<?xml version="1.0" encoding="UTF-8" standalone="yes"?>
<gpx
 xmlns="http://www.topografix.com/GPX/1/1"
 creator="OziExplorer Version 3956f - http://www.oziexplorer.com"
 version="1.1"
 xmlns:xsi="http://www.w3.org/2001/XMLSchema-instance"
 xsi:schemaLocation="http://www.topografix.com/GPX/1/1 http://www.topografix.com/GPX/1/1/gpx.xsd">
<metadata>
 <time>2025-01-08T08:30:09Z</time>
 <bounds minlat="31.305160" minlon="35.243220" maxlat="31.379760" maxlon="35.300220"/>
</metadata>
<wpt lat="31.3053800" lon="35.2686340">
 <time>2025-01-08T10:17:01.829Z</time>
 <name>START/FIN</name>
 <cmt>Nachalo marshruta</cmt>
 <desc>Nachalo marshruta</desc>
 <sym>Flag, Red</sym>
</wpt>
<wpt lat="31.3064500" lon="35.2688700">
 <time>2025-01-08T10:17:01.865Z</time>
 <name>BLACK</name>
 <cmt>Nachalo singla.</cmt>
 <desc>Nachalo singla.</desc>
 <sym>Flag, Red</sym>
</wpt>
<wpt lat="31.3380300" lon="35.2759300">
 <time>2025-01-08T10:17:01.866Z</time>
 <name>BR-TSFIRA</name>
 <cmt>Basseini (gevim) nahalya Seelim, nachalo peshehodnogo marshruta</cmt>
 <desc>Basseini (gevim) nahalya Seelim, nachalo peshehodnogo marshruta</desc>
 <sym>Flag, Red</sym>
</wpt>
<wpt lat="31.3411000" lon="35.2769700">
 <time>2025-01-08T10:17:01.868Z</time>
 <name>TATSPIT</name>
 <cmt>Vidovaya ploshadka na nahal Seelim</cmt>
 <desc>Vidovaya ploshadka na nahal Seelim</desc>
 <sym>Flag, Red</sym>
</wpt>
<wpt lat="31.3494100" lon="35.2601200">
 <time>2025-01-08T10:17:01.868Z</time>
 <name>Sokr-St</name>
 <sym>Flag, Red</sym>
</wpt>
<wpt lat="31.3664300" lon="35.2439600">
 <time>2025-01-08T10:17:01.869Z</time>
 <name>MAX</name>
 <cmt>Maximal'naya otmetka marshruta 470m</cmt>
 <desc>Maximal'naya otmetka marshruta 470m</desc>
 <sym>Flag, Red</sym>
</wpt>
<wpt lat="31.3793400" lon="35.2792800">
 <time>2025-01-08T10:17:01.870Z</time>
 <name>RED</name>
 <cmt>Nachalo krasnoy razmetka mershruta</cmt>
 <desc>Nachalo krasnoy razmetka mershruta</desc>
 <sym>Flag, Red</sym>
</wpt>
<wpt lat="31.3668580" lon="35.2896650">
 <time>2025-01-08T10:17:01.871Z</time>
 <name>PRIVAL1</name>
 <cmt>Tenistoe mesto dlya vozmojnogo privala</cmt>
 <desc>Tenistoe mesto dlya vozmojnogo privala</desc>
 <sym>Flag, Red</sym>
</wpt>
<wpt lat="31.3579900" lon="35.3002200">
 <time>2025-01-08T10:17:01.872Z</time>
 <name>TATSPIT</name>
 <cmt>Vidovaya ploshadka na Mertvoe more i nahal Seelim</cmt>
 <desc>Vidovaya ploshadka na Mertvoe more i nahal Seelim</desc>
 <sym>Flag, Red</sym>
</wpt>
<wpt lat="31.3579900" lon="35.3002200">
 <time>2025-01-08T10:17:01.872Z</time>
 <name>TATSPIT</name>
 <cmt>Vidovaya ploshadka na Mertvoe more i nahal Seelim</cmt>
 <desc>Vidovaya ploshadka na Mertvoe more i nahal Seelim</desc>
 <sym>Flag, Red</sym>
</wpt>
<wpt lat="31.3577300" lon="35.2972800">
 <time>2025-01-08T10:17:01.874Z</time>
 <name>BLUE</name>
 <cmt>Nachalo goluboy razmetki marshruta</cmt>
 <desc>Nachalo goluboy razmetki marshruta</desc>
 <sym>Flag, Red</sym>
</wpt>
<wpt lat="31.3509700" lon="35.2840800">
 <time>2025-01-08T10:17:01.874Z</time>
 <name>PESHK-ST</name>
 <cmt>Nachalo peshehodnogo ucastka marshruta</cmt>
 <desc>Nachalo peshehodnogo ucastka marshruta</desc>
 <sym>Flag, Red</sym>
</wpt>
<wpt lat="31.3504900" lon="35.2754600">
 <time>2025-01-08T10:17:01.875Z</time>
 <name>PESHK-FIN</name>
 <cmt>Kones peshehodnogo ucastka marshruta</cmt>
 <desc>Kones peshehodnogo ucastka marshruta</desc>
 <sym>Flag, Red</sym>
</wpt>
<wpt lat="31.3411400" lon="35.2768600">
 <time>2025-01-08T10:17:01.876Z</time>
 <name>BLACK</name>
 <cmt>Nachalo chernoy razmetki mershruta</cmt>
 <desc>Nachalo chernoy razmetki mershruta</desc>
 <sym>Flag, Red</sym>
</wpt>
<wpt lat="31.3381800" lon="35.2770200">
 <time>2025-01-08T10:17:01.878Z</time>
 <name>Tatspit</name>
 <sym>Flag, Red</sym>
</wpt>
<wpt lat="31.3375400" lon="35.2769800">
 <time>2025-01-08T10:17:01.878Z</time>
 <name>Tatspit</name>
 <sym>Flag, Red</sym>
</wpt>
<trk>
 <name>Nokdim-Seelim,Var3,32km820m</name>
 <desc>Nokdim-Seelim,Var3,32km820m</desc>
<trkseg>
<trkpt lat="31.3054000" lon="35.2686100">
<ele>316.570007</ele>
<time>2025-01-08T10:27:25.772Z</time>
</trkpt>
<trkpt lat="31.3057800" lon="35.2687900">
<ele>316.160004</ele>
<time>2025-01-08T10:27:25.772Z</time>
</trkpt>
<trkpt lat="31.3057800" lon="35.2687900">
<ele>316.160004</ele>
<time>2025-01-08T10:27:25.772Z</time>
</trkpt>
<trkpt lat="31.3057800" lon="35.2687900">
<ele>316.160004</ele>
<time>2025-01-08T10:27:25.772Z</time>
</trkpt>
<trkpt lat="31.3057700" lon="35.2688600">
<ele>315.880005</ele>
<time>2025-01-08T10:27:25.772Z</time>
</trkpt>
<trkpt lat="31.3058000" lon="35.2688700">
<ele>315.950012</ele>
<time>2025-01-08T10:27:25.772Z</time>
</trkpt>
<trkpt lat="31.3058700" lon="35.2688900">
<ele>316.129974</ele>
<time>2025-01-08T10:27:25.772Z</time>
</trkpt>
<trkpt lat="31.3059300" lon="35.2689100">
<ele>316.339996</ele>
<time>2025-01-08T10:27:25.772Z</time>
</trkpt>
<trkpt lat="31.3059800" lon="35.2688900">
<ele>316.529999</ele>
<time>2025-01-08T10:27:25.772Z</time>
</trkpt>
<trkpt lat="31.3060100" lon="35.2688300">
<ele>316.850006</ele>
<time>2025-01-08T10:27:25.772Z</time>
</trkpt>
<trkpt lat="31.3060400" lon="35.2688300">
<ele>316.959991</ele>
<time>2025-01-08T10:27:25.772Z</time>
</trkpt>
<trkpt lat="31.3060900" lon="35.2688300">
<ele>317.140015</ele>
<time>2025-01-08T10:27:25.772Z</time>
</trkpt>
<trkpt lat="31.3061300" lon="35.2688300">
<ele>316.869995</ele>
<time>2025-01-08T10:27:25.772Z</time>
</trkpt>
<trkpt lat="31.3061800" lon="35.2688200">
<ele>316.010010</ele>
<time>2025-01-08T10:27:25.772Z</time>
</trkpt>
<trkpt lat="31.3062500" lon="35.2687400">
<ele>315.040009</ele>
<time>2025-01-08T10:27:25.772Z</time>
</trkpt>
<trkpt lat="31.3062900" lon="35.2687000">
<ele>314.459991</ele>
<time>2025-01-08T10:27:25.772Z</time>
</trkpt>
<trkpt lat="31.3064300" lon="35.2688700">
<ele>311.619995</ele>
<time>2025-01-08T10:27:25.772Z</time>
</trkpt>
<trkpt lat="31.3064400" lon="35.2688700">
<ele>311.519989</ele>
<time>2025-01-08T10:27:25.772Z</time>
</trkpt>
<trkpt lat="31.3064400" lon="35.2688700">
<ele>311.519989</ele>
<time>2025-01-08T10:27:25.772Z</time>
</trkpt>
<trkpt lat="31.3066600" lon="35.2687900">
<ele>309.429993</ele>
<time>2025-01-08T10:27:25.772Z</time>
</trkpt>
<trkpt lat="31.3067300" lon="35.2688200">
<ele>309.019989</ele>
<time>2025-01-08T10:27:25.772Z</time>
</trkpt>
<trkpt lat="31.3067600" lon="35.2687500">
<ele>308.830017</ele>
<time>2025-01-08T10:27:25.772Z</time>
</trkpt>
<trkpt lat="31.3067400" lon="35.2684500">
<ele>308.209991</ele>
<time>2025-01-08T10:27:25.772Z</time>
</trkpt>
<trkpt lat="31.3069200" lon="35.2680800">
<ele>306.019989</ele>
<time>2025-01-08T10:27:25.772Z</time>
</trkpt>
<trkpt lat="31.3072100" lon="35.2679100">
<ele>305.609985</ele>
<time>2025-01-08T10:27:25.772Z</time>
</trkpt>
<trkpt lat="31.3072800" lon="35.2678600">
<ele>305.880005</ele>
<time>2025-01-08T10:27:25.772Z</time>
</trkpt>
<trkpt lat="31.3075100" lon="35.2679300">
<ele>305.070007</ele>
<time>2025-01-08T10:27:25.772Z</time>
</trkpt>
<trkpt lat="31.3075100" lon="35.2679300">
<ele>305.070007</ele>
<time>2025-01-08T10:27:25.772Z</time>
</trkpt>
<trkpt lat="31.3077200" lon="35.2679900">
<ele>306.170013</ele>
<time>2025-01-08T10:27:25.772Z</time>
</trkpt>
<trkpt lat="31.3077600" lon="35.2680000">
<ele>306.309998</ele>
<time>2025-01-08T10:27:25.772Z</time>
</trkpt>
<trkpt lat="31.3080000" lon="35.2681100">
<ele>310.000000</ele>
<time>2025-01-08T10:27:25.772Z</time>
</trkpt>
<trkpt lat="31.3082100" lon="35.2681100">
<ele>312.889984</ele>
<time>2025-01-08T10:27:25.772Z</time>
</trkpt>
<trkpt lat="31.3084600" lon="35.2682100">
<ele>315.520020</ele>
<time>2025-01-08T10:27:25.772Z</time>
</trkpt>
<trkpt lat="31.3086100" lon="35.2685000">
<ele>315.399994</ele>
<time>2025-01-08T10:27:25.772Z</time>
</trkpt>
<trkpt lat="31.3086600" lon="35.2688200">
<ele>312.619995</ele>
<time>2025-01-08T10:27:25.772Z</time>
</trkpt>
<trkpt lat="31.3087000" lon="35.2690200">
<ele>309.970001</ele>
<time>2025-01-08T10:27:25.772Z</time>
</trkpt>
<trkpt lat="31.3088400" lon="35.2691500">
<ele>307.440002</ele>
<time>2025-01-08T10:27:25.772Z</time>
</trkpt>
<trkpt lat="31.3090300" lon="35.2693000">
<ele>306.630005</ele>
<time>2025-01-08T10:27:25.772Z</time>
</trkpt>
<trkpt lat="31.3092000" lon="35.2693600">
<ele>306.260010</ele>
<time>2025-01-08T10:27:25.772Z</time>
</trkpt>
<trkpt lat="31.3092900" lon="35.2693400">
<ele>306.019989</ele>
<time>2025-01-08T10:27:25.772Z</time>
</trkpt>
<trkpt lat="31.3093600" lon="35.2693300">
<ele>305.940002</ele>
<time>2025-01-08T10:27:25.772Z</time>
</trkpt>
<trkpt lat="31.3093900" lon="35.2693100">
<ele>305.510010</ele>
<time>2025-01-08T10:27:25.772Z</time>
</trkpt>
<trkpt lat="31.3097800" lon="35.2691400">
<ele>312.020020</ele>
<time>2025-01-08T10:27:25.772Z</time>
</trkpt>
<trkpt lat="31.3100300" lon="35.2690000">
<ele>317.450012</ele>
<time>2025-01-08T10:27:25.772Z</time>
</trkpt>
<trkpt lat="31.3100300" lon="35.2690000">
<ele>317.450012</ele>
<time>2025-01-08T10:27:25.772Z</time>
</trkpt>
<trkpt lat="31.3100300" lon="35.2690000">
<ele>317.450012</ele>
<time>2025-01-08T10:27:25.772Z</time>
</trkpt>
<trkpt lat="31.3101000" lon="35.2689600">
<ele>318.619995</ele>
<time>2025-01-08T10:27:25.772Z</time>
</trkpt>
<trkpt lat="31.3101900" lon="35.2688800">
<ele>320.419983</ele>
<time>2025-01-08T10:27:25.772Z</time>
</trkpt>
<trkpt lat="31.3102900" lon="35.2687700">
<ele>322.360016</ele>
<time>2025-01-08T10:27:25.772Z</time>
</trkpt>
<trkpt lat="31.3105600" lon="35.2684200">
<ele>322.679993</ele>
<time>2025-01-08T10:27:25.772Z</time>
</trkpt>
<trkpt lat="31.3106700" lon="35.2683200">
<ele>322.570007</ele>
<time>2025-01-08T10:27:25.772Z</time>
</trkpt>
<trkpt lat="31.3107900" lon="35.2682100">
<ele>321.779999</ele>
<time>2025-01-08T10:27:25.772Z</time>
</trkpt>
<trkpt lat="31.3114000" lon="35.2677400">
<ele>316.369995</ele>
<time>2025-01-08T10:27:25.772Z</time>
</trkpt>
<trkpt lat="31.3114800" lon="35.2676900">
<ele>318.949982</ele>
<time>2025-01-08T10:27:25.772Z</time>
</trkpt>
<trkpt lat="31.3116200" lon="35.2676500">
<ele>321.699982</ele>
<time>2025-01-08T10:27:25.772Z</time>
</trkpt>
<trkpt lat="31.3119800" lon="35.2676200">
<ele>324.739990</ele>
<time>2025-01-08T10:27:25.772Z</time>
</trkpt>
<trkpt lat="31.3120800" lon="35.2676300">
<ele>325.429993</ele>
<time>2025-01-08T10:27:25.772Z</time>
</trkpt>
<trkpt lat="31.3121500" lon="35.2676600">
<ele>325.339996</ele>
<time>2025-01-08T10:27:25.772Z</time>
</trkpt>
<trkpt lat="31.3122100" lon="35.2677100">
<ele>324.609985</ele>
<time>2025-01-08T10:27:25.772Z</time>
</trkpt>
<trkpt lat="31.3124600" lon="35.2679700">
<ele>322.769989</ele>
<time>2025-01-08T10:27:25.772Z</time>
</trkpt>
<trkpt lat="31.3126100" lon="35.2680600">
<ele>323.750000</ele>
<time>2025-01-08T10:27:25.772Z</time>
</trkpt>
<trkpt lat="31.3128400" lon="35.2681300">
<ele>328.580017</ele>
<time>2025-01-08T10:27:25.772Z</time>
</trkpt>
<trkpt lat="31.3129100" lon="35.2683400">
<ele>328.299988</ele>
<time>2025-01-08T10:27:25.772Z</time>
</trkpt>
<trkpt lat="31.3129700" lon="35.2684300">
<ele>328.179993</ele>
<time>2025-01-08T10:27:25.772Z</time>
</trkpt>
<trkpt lat="31.3130100" lon="35.2684900">
<ele>328.020020</ele>
<time>2025-01-08T10:27:25.772Z</time>
</trkpt>
<trkpt lat="31.3130900" lon="35.2685700">
<ele>328.280029</ele>
<time>2025-01-08T10:27:25.772Z</time>
</trkpt>
<trkpt lat="31.3134500" lon="35.2688100">
<ele>329.359985</ele>
<time>2025-01-08T10:27:25.772Z</time>
</trkpt>
<trkpt lat="31.3138300" lon="35.2691200">
<ele>331.850006</ele>
<time>2025-01-08T10:27:25.772Z</time>
</trkpt>
<trkpt lat="31.3139400" lon="35.2691800">
<ele>332.660004</ele>
<time>2025-01-08T10:27:25.772Z</time>
</trkpt>
<trkpt lat="31.3141600" lon="35.2692500">
<ele>330.609985</ele>
<time>2025-01-08T10:27:25.772Z</time>
</trkpt>
<trkpt lat="31.3144100" lon="35.2692600">
<ele>324.190002</ele>
<time>2025-01-08T10:27:25.772Z</time>
</trkpt>
<trkpt lat="31.3145200" lon="35.2692500">
<ele>322.030029</ele>
<time>2025-01-08T10:27:25.772Z</time>
</trkpt>
<trkpt lat="31.3147600" lon="35.2691600">
<ele>319.249969</ele>
<time>2025-01-08T10:27:25.772Z</time>
</trkpt>
<trkpt lat="31.3149300" lon="35.2691200">
<ele>320.209991</ele>
<time>2025-01-08T10:27:25.772Z</time>
</trkpt>
<trkpt lat="31.3150000" lon="35.2690200">
<ele>321.059998</ele>
<time>2025-01-08T10:27:25.772Z</time>
</trkpt>
<trkpt lat="31.3150900" lon="35.2690500">
<ele>322.509979</ele>
<time>2025-01-08T10:27:25.772Z</time>
</trkpt>
<trkpt lat="31.3150900" lon="35.2692900">
<ele>321.500000</ele>
<time>2025-01-08T10:27:25.772Z</time>
</trkpt>
<trkpt lat="31.3152300" lon="35.2694000">
<ele>324.129974</ele>
<time>2025-01-08T10:27:25.772Z</time>
</trkpt>
<trkpt lat="31.3153200" lon="35.2694400">
<ele>325.029999</ele>
<time>2025-01-08T10:27:25.772Z</time>
</trkpt>
<trkpt lat="31.3154400" lon="35.2694500">
<ele>324.859985</ele>
<time>2025-01-08T10:27:25.772Z</time>
</trkpt>
<trkpt lat="31.3156700" lon="35.2694100">
<ele>324.510010</ele>
<time>2025-01-08T10:27:25.772Z</time>
</trkpt>
<trkpt lat="31.3160500" lon="35.2692900">
<ele>324.029999</ele>
<time>2025-01-08T10:27:25.772Z</time>
</trkpt>
<trkpt lat="31.3161400" lon="35.2692800">
<ele>324.340027</ele>
<time>2025-01-08T10:27:25.772Z</time>
</trkpt>
<trkpt lat="31.3163400" lon="35.2690700">
<ele>329.550018</ele>
<time>2025-01-08T10:27:25.772Z</time>
</trkpt>
<trkpt lat="31.3164000" lon="35.2693500">
<ele>329.009979</ele>
<time>2025-01-08T10:27:25.772Z</time>
</trkpt>
<trkpt lat="31.3163600" lon="35.2695100">
<ele>327.120026</ele>
<time>2025-01-08T10:27:25.772Z</time>
</trkpt>
<trkpt lat="31.3163800" lon="35.2696000">
<ele>327.230011</ele>
<time>2025-01-08T10:27:25.772Z</time>
</trkpt>
<trkpt lat="31.3163900" lon="35.2696800">
<ele>327.179993</ele>
<time>2025-01-08T10:27:25.772Z</time>
</trkpt>
<trkpt lat="31.3164200" lon="35.2697700">
<ele>326.809998</ele>
<time>2025-01-08T10:27:25.772Z</time>
</trkpt>
<trkpt lat="31.3165000" lon="35.2698400">
<ele>327.279999</ele>
<time>2025-01-08T10:27:25.772Z</time>
</trkpt>
<trkpt lat="31.3166700" lon="35.2702600">
<ele>322.419983</ele>
<time>2025-01-08T10:27:25.772Z</time>
</trkpt>
<trkpt lat="31.3169400" lon="35.2706000">
<ele>318.890015</ele>
<time>2025-01-08T10:27:25.772Z</time>
</trkpt>
<trkpt lat="31.3172200" lon="35.2705700">
<ele>311.959991</ele>
<time>2025-01-08T10:27:25.772Z</time>
</trkpt>
<trkpt lat="31.3173700" lon="35.2706000">
<ele>312.549988</ele>
<time>2025-01-08T10:27:25.772Z</time>
</trkpt>
<trkpt lat="31.3175600" lon="35.2705900">
<ele>313.869995</ele>
<time>2025-01-08T10:27:25.772Z</time>
</trkpt>
<trkpt lat="31.3176200" lon="35.2706000">
<ele>314.549988</ele>
<time>2025-01-08T10:27:25.772Z</time>
</trkpt>
<trkpt lat="31.3176900" lon="35.2706600">
<ele>315.550018</ele>
<time>2025-01-08T10:27:25.772Z</time>
</trkpt>
<trkpt lat="31.3177300" lon="35.2707700">
<ele>316.389984</ele>
<time>2025-01-08T10:27:25.772Z</time>
</trkpt>
<trkpt lat="31.3176700" lon="35.2710100">
<ele>315.449982</ele>
<time>2025-01-08T10:27:25.772Z</time>
</trkpt>
<trkpt lat="31.3176800" lon="35.2711300">
<ele>315.019989</ele>
<time>2025-01-08T10:27:25.772Z</time>
</trkpt>
<trkpt lat="31.3177200" lon="35.2712100">
<ele>315.209991</ele>
<time>2025-01-08T10:27:25.772Z</time>
</trkpt>
<trkpt lat="31.3177600" lon="35.2712500">
<ele>315.439972</ele>
<time>2025-01-08T10:27:25.772Z</time>
</trkpt>
<trkpt lat="31.3178500" lon="35.2712900">
<ele>316.110016</ele>
<time>2025-01-08T10:27:25.772Z</time>
</trkpt>
<trkpt lat="31.3179300" lon="35.2712800">
<ele>316.679993</ele>
<time>2025-01-08T10:27:25.772Z</time>
</trkpt>
<trkpt lat="31.3181700" lon="35.2711900">
<ele>318.279999</ele>
<time>2025-01-08T10:27:25.772Z</time>
</trkpt>
<trkpt lat="31.3185500" lon="35.2709800">
<ele>317.260010</ele>
<time>2025-01-08T10:27:25.772Z</time>
</trkpt>
<trkpt lat="31.3187200" lon="35.2709500">
<ele>318.119995</ele>
<time>2025-01-08T10:27:25.772Z</time>
</trkpt>
<trkpt lat="31.3187900" lon="35.2709700">
<ele>318.770020</ele>
<time>2025-01-08T10:27:25.772Z</time>
</trkpt>
<trkpt lat="31.3188900" lon="35.2710300">
<ele>320.019989</ele>
<time>2025-01-08T10:27:25.772Z</time>
</trkpt>
<trkpt lat="31.3188900" lon="35.2710300">
<ele>320.019989</ele>
<time>2025-01-08T10:27:25.772Z</time>
</trkpt>
<trkpt lat="31.3189400" lon="35.2710500">
<ele>320.709991</ele>
<time>2025-01-08T10:27:25.772Z</time>
</trkpt>
<trkpt lat="31.3192500" lon="35.2713200">
<ele>318.489990</ele>
<time>2025-01-08T10:27:25.772Z</time>
</trkpt>
<trkpt lat="31.3193400" lon="35.2714200">
<ele>316.059998</ele>
<time>2025-01-08T10:27:25.772Z</time>
</trkpt>
<trkpt lat="31.3194100" lon="35.2716400">
<ele>316.399994</ele>
<time>2025-01-08T10:27:25.772Z</time>
</trkpt>
<trkpt lat="31.3194500" lon="35.2717200">
<ele>315.839996</ele>
<time>2025-01-08T10:27:25.772Z</time>
</trkpt>
<trkpt lat="31.3196100" lon="35.2718900">
<ele>312.539978</ele>
<time>2025-01-08T10:27:25.772Z</time>
</trkpt>
<trkpt lat="31.3197100" lon="35.2719400">
<ele>312.020020</ele>
<time>2025-01-08T10:27:25.772Z</time>
</trkpt>
<trkpt lat="31.3200600" lon="35.2719300">
<ele>314.950012</ele>
<time>2025-01-08T10:27:25.772Z</time>
</trkpt>
<trkpt lat="31.3201500" lon="35.2719800">
<ele>317.329987</ele>
<time>2025-01-08T10:27:25.772Z</time>
</trkpt>
<trkpt lat="31.3201700" lon="35.2720900">
<ele>319.559998</ele>
<time>2025-01-08T10:27:25.772Z</time>
</trkpt>
<trkpt lat="31.3201400" lon="35.2721800">
<ele>320.749969</ele>
<time>2025-01-08T10:27:25.772Z</time>
</trkpt>
<trkpt lat="31.3202500" lon="35.2722000">
<ele>322.360016</ele>
<time>2025-01-08T10:27:25.772Z</time>
</trkpt>
<trkpt lat="31.3203700" lon="35.2721300">
<ele>322.110016</ele>
<time>2025-01-08T10:27:25.772Z</time>
</trkpt>
<trkpt lat="31.3205400" lon="35.2721600">
<ele>323.260010</ele>
<time>2025-01-08T10:27:25.772Z</time>
</trkpt>
<trkpt lat="31.3207400" lon="35.2722700">
<ele>326.050018</ele>
<time>2025-01-08T10:27:25.772Z</time>
</trkpt>
<trkpt lat="31.3209800" lon="35.2724500">
<ele>325.169983</ele>
<time>2025-01-08T10:27:25.772Z</time>
</trkpt>
<trkpt lat="31.3211000" lon="35.2725100">
<ele>322.910004</ele>
<time>2025-01-08T10:27:25.772Z</time>
</trkpt>
<trkpt lat="31.3214800" lon="35.2725200">
<ele>318.250000</ele>
<time>2025-01-08T10:27:25.772Z</time>
</trkpt>
<trkpt lat="31.3215800" lon="35.2725500">
<ele>318.699982</ele>
<time>2025-01-08T10:27:25.772Z</time>
</trkpt>
<trkpt lat="31.3217100" lon="35.2726100">
<ele>319.830017</ele>
<time>2025-01-08T10:27:25.772Z</time>
</trkpt>
<trkpt lat="31.3218900" lon="35.2727300">
<ele>321.049988</ele>
<time>2025-01-08T10:27:25.772Z</time>
</trkpt>
<trkpt lat="31.3219500" lon="35.2727200">
<ele>321.430023</ele>
<time>2025-01-08T10:27:25.772Z</time>
</trkpt>
<trkpt lat="31.3219200" lon="35.2728600">
<ele>320.589996</ele>
<time>2025-01-08T10:27:25.772Z</time>
</trkpt>
<trkpt lat="31.3219500" lon="35.2729900">
<ele>320.239990</ele>
<time>2025-01-08T10:27:25.772Z</time>
</trkpt>
<trkpt lat="31.3221100" lon="35.2731000">
<ele>319.389984</ele>
<time>2025-01-08T10:27:25.772Z</time>
</trkpt>
<trkpt lat="31.3222600" lon="35.2732100">
<ele>317.779999</ele>
<time>2025-01-08T10:27:25.772Z</time>
</trkpt>
<trkpt lat="31.3225400" lon="35.2732100">
<ele>321.760010</ele>
<time>2025-01-08T10:27:25.772Z</time>
</trkpt>
<trkpt lat="31.3226900" lon="35.2732200">
<ele>323.279999</ele>
<time>2025-01-08T10:27:25.772Z</time>
</trkpt>
<trkpt lat="31.3227400" lon="35.2734000">
<ele>322.110016</ele>
<time>2025-01-08T10:27:25.772Z</time>
</trkpt>
<trkpt lat="31.3228900" lon="35.2735400">
<ele>322.929993</ele>
<time>2025-01-08T10:27:25.772Z</time>
</trkpt>
<trkpt lat="31.3232500" lon="35.2738200">
<ele>327.269989</ele>
<time>2025-01-08T10:27:25.772Z</time>
</trkpt>
<trkpt lat="31.3239100" lon="35.2742400">
<ele>323.209991</ele>
<time>2025-01-08T10:27:25.772Z</time>
</trkpt>
<trkpt lat="31.3239200" lon="35.2742500">
<ele>323.019989</ele>
<time>2025-01-08T10:27:25.772Z</time>
</trkpt>
<trkpt lat="31.3241300" lon="35.2743600">
<ele>320.339996</ele>
<time>2025-01-08T10:27:25.772Z</time>
</trkpt>
<trkpt lat="31.3244600" lon="35.2744400">
<ele>318.980011</ele>
<time>2025-01-08T10:27:25.772Z</time>
</trkpt>
<trkpt lat="31.3245200" lon="35.2744800">
<ele>319.130005</ele>
<time>2025-01-08T10:27:25.772Z</time>
</trkpt>
<trkpt lat="31.3245500" lon="35.2745600">
<ele>319.419983</ele>
<time>2025-01-08T10:27:25.772Z</time>
</trkpt>
<trkpt lat="31.3245500" lon="35.2747200">
<ele>319.989990</ele>
<time>2025-01-08T10:27:25.772Z</time>
</trkpt>
<trkpt lat="31.3245300" lon="35.2748400">
<ele>319.149994</ele>
<time>2025-01-08T10:27:25.772Z</time>
</trkpt>
<trkpt lat="31.3244800" lon="35.2749800">
<ele>318.139984</ele>
<time>2025-01-08T10:27:25.772Z</time>
</trkpt>
<trkpt lat="31.3244000" lon="35.2751400">
<ele>316.489990</ele>
<time>2025-01-08T10:27:25.772Z</time>
</trkpt>
<trkpt lat="31.3243100" lon="35.2752700">
<ele>315.540009</ele>
<time>2025-01-08T10:27:25.772Z</time>
</trkpt>
<trkpt lat="31.3240500" lon="35.2755200">
<ele>318.980011</ele>
<time>2025-01-08T10:27:25.772Z</time>
</trkpt>
<trkpt lat="31.3239700" lon="35.2756200">
<ele>320.339996</ele>
<time>2025-01-08T10:27:25.772Z</time>
</trkpt>
<trkpt lat="31.3244100" lon="35.2760500">
<ele>319.249969</ele>
<time>2025-01-08T10:27:25.772Z</time>
</trkpt>
<trkpt lat="31.3244300" lon="35.2763000">
<ele>319.030029</ele>
<time>2025-01-08T10:27:25.772Z</time>
</trkpt>
<trkpt lat="31.3246500" lon="35.2763700">
<ele>318.900024</ele>
<time>2025-01-08T10:27:25.772Z</time>
</trkpt>
<trkpt lat="31.3246400" lon="35.2763700">
<ele>318.900024</ele>
<time>2025-01-08T10:27:25.772Z</time>
</trkpt>
<trkpt lat="31.3246400" lon="35.2763700">
<ele>318.900024</ele>
<time>2025-01-08T10:27:25.772Z</time>
</trkpt>
<trkpt lat="31.3248300" lon="35.2764600">
<ele>318.479980</ele>
<time>2025-01-08T10:27:25.772Z</time>
</trkpt>
<trkpt lat="31.3251500" lon="35.2766400">
<ele>315.900024</ele>
<time>2025-01-08T10:27:25.772Z</time>
</trkpt>
<trkpt lat="31.3252100" lon="35.2766700">
<ele>314.960022</ele>
<time>2025-01-08T10:27:25.772Z</time>
</trkpt>
<trkpt lat="31.3256900" lon="35.2768500">
<ele>307.869995</ele>
<time>2025-01-08T10:27:25.772Z</time>
</trkpt>
<trkpt lat="31.3259800" lon="35.2769700">
<ele>305.559998</ele>
<time>2025-01-08T10:27:25.772Z</time>
</trkpt>
<trkpt lat="31.3261300" lon="35.2770400">
<ele>304.279999</ele>
<time>2025-01-08T10:27:25.772Z</time>
</trkpt>
<trkpt lat="31.3265200" lon="35.2771700">
<ele>298.190002</ele>
<time>2025-01-08T10:27:25.772Z</time>
</trkpt>
<trkpt lat="31.3266800" lon="35.2772100">
<ele>297.989990</ele>
<time>2025-01-08T10:27:25.772Z</time>
</trkpt>
<trkpt lat="31.3268400" lon="35.2772400">
<ele>297.480011</ele>
<time>2025-01-08T10:27:25.772Z</time>
</trkpt>
<trkpt lat="31.3274200" lon="35.2771600">
<ele>299.139984</ele>
<time>2025-01-08T10:27:25.772Z</time>
</trkpt>
<trkpt lat="31.3280100" lon="35.2772200">
<ele>297.360016</ele>
<time>2025-01-08T10:27:25.772Z</time>
</trkpt>
<trkpt lat="31.3280900" lon="35.2772500">
<ele>296.919983</ele>
<time>2025-01-08T10:27:25.772Z</time>
</trkpt>
<trkpt lat="31.3283000" lon="35.2773200">
<ele>297.080017</ele>
<time>2025-01-08T10:27:25.772Z</time>
</trkpt>
<trkpt lat="31.3283900" lon="35.2773300">
<ele>297.830017</ele>
<time>2025-01-08T10:27:25.772Z</time>
</trkpt>
<trkpt lat="31.3284900" lon="35.2773500">
<ele>298.910004</ele>
<time>2025-01-08T10:27:25.772Z</time>
</trkpt>
<trkpt lat="31.3290800" lon="35.2774900">
<ele>303.359985</ele>
<time>2025-01-08T10:27:25.772Z</time>
</trkpt>
<trkpt lat="31.3292700" lon="35.2777800">
<ele>304.000000</ele>
<time>2025-01-08T10:27:25.772Z</time>
</trkpt>
<trkpt lat="31.3293400" lon="35.2777900">
<ele>304.029999</ele>
<time>2025-01-08T10:27:25.772Z</time>
</trkpt>
<trkpt lat="31.3294200" lon="35.2777900">
<ele>304.040009</ele>
<time>2025-01-08T10:27:25.772Z</time>
</trkpt>
<trkpt lat="31.3295200" lon="35.2778100">
<ele>302.720001</ele>
<time>2025-01-08T10:27:25.772Z</time>
</trkpt>
<trkpt lat="31.3296100" lon="35.2778100">
<ele>301.070007</ele>
<time>2025-01-08T10:27:25.772Z</time>
</trkpt>
<trkpt lat="31.3299500" lon="35.2778500">
<ele>293.440002</ele>
<time>2025-01-08T10:27:25.772Z</time>
</trkpt>
<trkpt lat="31.3302000" lon="35.2779700">
<ele>290.429993</ele>
<time>2025-01-08T10:27:25.772Z</time>
</trkpt>
<trkpt lat="31.3303600" lon="35.2781200">
<ele>288.540009</ele>
<time>2025-01-08T10:27:25.772Z</time>
</trkpt>
<trkpt lat="31.3304100" lon="35.2781700">
<ele>288.179993</ele>
<time>2025-01-08T10:27:25.772Z</time>
</trkpt>
<trkpt lat="31.3305200" lon="35.2783000">
<ele>287.239990</ele>
<time>2025-01-08T10:27:25.772Z</time>
</trkpt>
<trkpt lat="31.3306800" lon="35.2783900">
<ele>286.850006</ele>
<time>2025-01-08T10:27:25.772Z</time>
</trkpt>
<trkpt lat="31.3310700" lon="35.2782400">
<ele>281.029999</ele>
<time>2025-01-08T10:27:25.772Z</time>
</trkpt>
<trkpt lat="31.3311000" lon="35.2782200">
<ele>280.589996</ele>
<time>2025-01-08T10:27:25.772Z</time>
</trkpt>
<trkpt lat="31.3314800" lon="35.2778600">
<ele>279.459991</ele>
<time>2025-01-08T10:27:25.772Z</time>
</trkpt>
<trkpt lat="31.3315400" lon="35.2778100">
<ele>280.040009</ele>
<time>2025-01-08T10:27:25.772Z</time>
</trkpt>
<trkpt lat="31.3315700" lon="35.2776200">
<ele>281.240021</ele>
<time>2025-01-08T10:27:25.772Z</time>
</trkpt>
<trkpt lat="31.3314600" lon="35.2772700">
<ele>282.209991</ele>
<time>2025-01-08T10:27:25.772Z</time>
</trkpt>
<trkpt lat="31.3312300" lon="35.2766800">
<ele>284.170013</ele>
<time>2025-01-08T10:27:25.772Z</time>
</trkpt>
<trkpt lat="31.3310200" lon="35.2761600">
<ele>285.410004</ele>
<time>2025-01-08T10:27:25.772Z</time>
</trkpt>
<trkpt lat="31.3309200" lon="35.2758800">
<ele>287.450012</ele>
<time>2025-01-08T10:27:25.772Z</time>
</trkpt>
<trkpt lat="31.3309900" lon="35.2757300">
<ele>287.239990</ele>
<time>2025-01-08T10:27:25.772Z</time>
</trkpt>
<trkpt lat="31.3311500" lon="35.2756600">
<ele>286.339996</ele>
<time>2025-01-08T10:27:25.772Z</time>
</trkpt>
<trkpt lat="31.3313600" lon="35.2754400">
<ele>285.670013</ele>
<time>2025-01-08T10:27:25.772Z</time>
</trkpt>
<trkpt lat="31.3316200" lon="35.2752000">
<ele>288.029999</ele>
<time>2025-01-08T10:27:25.772Z</time>
</trkpt>
<trkpt lat="31.3318200" lon="35.2750100">
<ele>293.720001</ele>
<time>2025-01-08T10:27:25.772Z</time>
</trkpt>
<trkpt lat="31.3319900" lon="35.2748000">
<ele>296.420013</ele>
<time>2025-01-08T10:27:25.772Z</time>
</trkpt>
<trkpt lat="31.3320500" lon="35.2744400">
<ele>296.290009</ele>
<time>2025-01-08T10:27:25.772Z</time>
</trkpt>
<trkpt lat="31.3320400" lon="35.2743200">
<ele>297.660004</ele>
<time>2025-01-08T10:27:25.772Z</time>
</trkpt>
<trkpt lat="31.3319900" lon="35.2740200">
<ele>300.019989</ele>
<time>2025-01-08T10:27:25.772Z</time>
</trkpt>
<trkpt lat="31.3319700" lon="35.2737600">
<ele>300.230011</ele>
<time>2025-01-08T10:27:25.772Z</time>
</trkpt>
<trkpt lat="31.3319400" lon="35.2734500">
<ele>301.199982</ele>
<time>2025-01-08T10:27:25.772Z</time>
</trkpt>
<trkpt lat="31.3319500" lon="35.2731400">
<ele>304.169983</ele>
<time>2025-01-08T10:27:25.772Z</time>
</trkpt>
<trkpt lat="31.3320100" lon="35.2728600">
<ele>305.980011</ele>
<time>2025-01-08T10:27:25.772Z</time>
</trkpt>
<trkpt lat="31.3320700" lon="35.2726800">
<ele>305.329987</ele>
<time>2025-01-08T10:27:25.772Z</time>
</trkpt>
<trkpt lat="31.3322200" lon="35.2725800">
<ele>303.880005</ele>
<time>2025-01-08T10:27:25.772Z</time>
</trkpt>
<trkpt lat="31.3324000" lon="35.2725300">
<ele>299.549988</ele>
<time>2025-01-08T10:27:25.772Z</time>
</trkpt>
<trkpt lat="31.3326700" lon="35.2724600">
<ele>293.049988</ele>
<time>2025-01-08T10:27:25.772Z</time>
</trkpt>
<trkpt lat="31.3328400" lon="35.2724500">
<ele>290.700012</ele>
<time>2025-01-08T10:27:25.772Z</time>
</trkpt>
<trkpt lat="31.3329400" lon="35.2724900">
<ele>290.369995</ele>
<time>2025-01-08T10:27:25.772Z</time>
</trkpt>
<trkpt lat="31.3331600" lon="35.2726500">
<ele>287.559998</ele>
<time>2025-01-08T10:27:25.772Z</time>
</trkpt>
<trkpt lat="31.3332900" lon="35.2728400">
<ele>284.489990</ele>
<time>2025-01-08T10:27:25.772Z</time>
</trkpt>
<trkpt lat="31.3334400" lon="35.2730000">
<ele>279.369995</ele>
<time>2025-01-08T10:27:25.772Z</time>
</trkpt>
<trkpt lat="31.3336500" lon="35.2730800">
<ele>274.759979</ele>
<time>2025-01-08T10:27:25.772Z</time>
</trkpt>
<trkpt lat="31.3341600" lon="35.2732100">
<ele>281.529999</ele>
<time>2025-01-08T10:27:25.772Z</time>
</trkpt>
<trkpt lat="31.3343800" lon="35.2733500">
<ele>282.929993</ele>
<time>2025-01-08T10:27:25.772Z</time>
</trkpt>
<trkpt lat="31.3345300" lon="35.2734900">
<ele>280.109985</ele>
<time>2025-01-08T10:27:25.772Z</time>
</trkpt>
<trkpt lat="31.3345700" lon="35.2735300">
<ele>278.809998</ele>
<time>2025-01-08T10:27:25.772Z</time>
</trkpt>
<trkpt lat="31.3347300" lon="35.2737100">
<ele>273.389984</ele>
<time>2025-01-08T10:27:25.772Z</time>
</trkpt>
<trkpt lat="31.3348200" lon="35.2739600">
<ele>270.130005</ele>
<time>2025-01-08T10:27:25.772Z</time>
</trkpt>
<trkpt lat="31.3346400" lon="35.2741000">
<ele>270.479980</ele>
<time>2025-01-08T10:27:25.772Z</time>
</trkpt>
<trkpt lat="31.3344100" lon="35.2740500">
<ele>270.720001</ele>
<time>2025-01-08T10:27:25.772Z</time>
</trkpt>
<trkpt lat="31.3341500" lon="35.2739900">
<ele>268.100006</ele>
<time>2025-01-08T10:27:25.772Z</time>
</trkpt>
<trkpt lat="31.3340600" lon="35.2739900">
<ele>266.720001</ele>
<time>2025-01-08T10:27:25.772Z</time>
</trkpt>
<trkpt lat="31.3338500" lon="35.2739900">
<ele>263.630005</ele>
<time>2025-01-08T10:27:25.772Z</time>
</trkpt>
<trkpt lat="31.3336800" lon="35.2740300">
<ele>260.690002</ele>
<time>2025-01-08T10:27:25.772Z</time>
</trkpt>
<trkpt lat="31.3335400" lon="35.2743800">
<ele>256.880005</ele>
<time>2025-01-08T10:27:25.772Z</time>
</trkpt>
<trkpt lat="31.3336300" lon="35.2745300">
<ele>252.669998</ele>
<time>2025-01-08T10:27:25.772Z</time>
</trkpt>
<trkpt lat="31.3337000" lon="35.2746200">
<ele>249.900009</ele>
<time>2025-01-08T10:27:25.772Z</time>
</trkpt>
<trkpt lat="31.3338100" lon="35.2747800">
<ele>244.800003</ele>
<time>2025-01-08T10:27:25.772Z</time>
</trkpt>
<trkpt lat="31.3338600" lon="35.2749100">
<ele>242.410004</ele>
<time>2025-01-08T10:27:25.772Z</time>
</trkpt>
<trkpt lat="31.3338900" lon="35.2752100">
<ele>241.000000</ele>
<time>2025-01-08T10:27:25.772Z</time>
</trkpt>
<trkpt lat="31.3338100" lon="35.2755400">
<ele>240.409988</ele>
<time>2025-01-08T10:27:25.772Z</time>
</trkpt>
<trkpt lat="31.3337600" lon="35.2756800">
<ele>242.159988</ele>
<time>2025-01-08T10:27:25.772Z</time>
</trkpt>
<trkpt lat="31.3338700" lon="35.2759000">
<ele>240.980011</ele>
<time>2025-01-08T10:27:25.772Z</time>
</trkpt>
<trkpt lat="31.3340300" lon="35.2758700">
<ele>239.419998</ele>
<time>2025-01-08T10:27:25.772Z</time>
</trkpt>
<trkpt lat="31.3342600" lon="35.2757300">
<ele>236.910004</ele>
<time>2025-01-08T10:27:25.772Z</time>
</trkpt>
<trkpt lat="31.3343900" lon="35.2756800">
<ele>236.449997</ele>
<time>2025-01-08T10:27:25.772Z</time>
</trkpt>
<trkpt lat="31.3347100" lon="35.2756500">
<ele>230.270004</ele>
<time>2025-01-08T10:27:25.772Z</time>
</trkpt>
<trkpt lat="31.3349500" lon="35.2756800">
<ele>225.559998</ele>
<time>2025-01-08T10:27:25.772Z</time>
</trkpt>
<trkpt lat="31.3352700" lon="35.2757200">
<ele>224.050003</ele>
<time>2025-01-08T10:27:25.772Z</time>
</trkpt>
<trkpt lat="31.3356600" lon="35.2757900">
<ele>219.259995</ele>
<time>2025-01-08T10:27:25.772Z</time>
</trkpt>
<trkpt lat="31.3359400" lon="35.2757300">
<ele>216.369995</ele>
<time>2025-01-08T10:27:25.772Z</time>
</trkpt>
<trkpt lat="31.3360100" lon="35.2757100">
<ele>216.009995</ele>
<time>2025-01-08T10:27:25.772Z</time>
</trkpt>
<trkpt lat="31.3362100" lon="35.2756600">
<ele>214.690002</ele>
<time>2025-01-08T10:27:25.772Z</time>
</trkpt>
<trkpt lat="31.3363300" lon="35.2756300">
<ele>213.580002</ele>
<time>2025-01-08T10:27:25.772Z</time>
</trkpt>
<trkpt lat="31.3366300" lon="35.2755900">
<ele>210.720001</ele>
<time>2025-01-08T10:27:25.772Z</time>
</trkpt>
<trkpt lat="31.3368700" lon="35.2755600">
<ele>210.759995</ele>
<time>2025-01-08T10:27:25.772Z</time>
</trkpt>
<trkpt lat="31.3371000" lon="35.2755400">
<ele>210.000000</ele>
<time>2025-01-08T10:27:25.772Z</time>
</trkpt>
<trkpt lat="31.3372100" lon="35.2755500">
<ele>209.150009</ele>
<time>2025-01-08T10:27:25.772Z</time>
</trkpt>
<trkpt lat="31.3374000" lon="35.2756100">
<ele>208.110001</ele>
<time>2025-01-08T10:27:25.772Z</time>
</trkpt>
<trkpt lat="31.3376400" lon="35.2756900">
<ele>205.259995</ele>
<time>2025-01-08T10:27:25.772Z</time>
</trkpt>
<trkpt lat="31.3376900" lon="35.2757300">
<ele>204.440002</ele>
<time>2025-01-08T10:27:25.772Z</time>
</trkpt>
<trkpt lat="31.3376900" lon="35.2757300">
<ele>204.440002</ele>
<time>2025-01-08T10:27:25.772Z</time>
</trkpt>
<trkpt lat="31.3376900" lon="35.2757300">
<ele>204.440002</ele>
<time>2025-01-08T10:27:25.772Z</time>
</trkpt>
<trkpt lat="31.3378100" lon="35.2757300">
<ele>203.559998</ele>
<time>2025-01-08T10:27:25.772Z</time>
</trkpt>
<trkpt lat="31.3379200" lon="35.2757500">
<ele>204.169998</ele>
<time>2025-01-08T10:27:25.772Z</time>
</trkpt>
<trkpt lat="31.3379200" lon="35.2757500">
<ele>204.169998</ele>
<time>2025-01-08T10:27:25.772Z</time>
</trkpt>
<trkpt lat="31.3379700" lon="35.2757600">
<ele>204.470001</ele>
<time>2025-01-08T10:27:25.772Z</time>
</trkpt>
<trkpt lat="31.3381100" lon="35.2758500">
<ele>205.199997</ele>
<time>2025-01-08T10:27:25.772Z</time>
</trkpt>
<trkpt lat="31.3381900" lon="35.2759500">
<ele>206.670013</ele>
<time>2025-01-08T10:27:25.772Z</time>
</trkpt>
<trkpt lat="31.3382600" lon="35.2759700">
<ele>207.199997</ele>
<time>2025-01-08T10:27:25.772Z</time>
</trkpt>
<trkpt lat="31.3382700" lon="35.2760000">
<ele>207.729996</ele>
<time>2025-01-08T10:27:25.772Z</time>
</trkpt>
<trkpt lat="31.3382800" lon="35.2761700">
<ele>210.940002</ele>
<time>2025-01-08T10:27:25.772Z</time>
</trkpt>
<trkpt lat="31.3383400" lon="35.2762800">
<ele>214.360001</ele>
<time>2025-01-08T10:27:25.772Z</time>
</trkpt>
<trkpt lat="31.3383300" lon="35.2765400">
<ele>221.269989</ele>
<time>2025-01-08T10:27:25.772Z</time>
</trkpt>
<trkpt lat="31.3383500" lon="35.2767500">
<ele>226.570007</ele>
<time>2025-01-08T10:27:25.772Z</time>
</trkpt>
<trkpt lat="31.3383400" lon="35.2768800">
<ele>228.830002</ele>
<time>2025-01-08T10:27:25.772Z</time>
</trkpt>
<trkpt lat="31.3382900" lon="35.2769500">
<ele>229.169998</ele>
<time>2025-01-08T10:27:25.772Z</time>
</trkpt>
<trkpt lat="31.3381700" lon="35.2770300">
<ele>226.500000</ele>
<time>2025-01-08T10:27:25.772Z</time>
</trkpt>
<trkpt lat="31.3380400" lon="35.2770800">
<ele>223.839996</ele>
<time>2025-01-08T10:27:25.772Z</time>
</trkpt>
<trkpt lat="31.3380100" lon="35.2771000">
<ele>222.489990</ele>
<time>2025-01-08T10:27:25.772Z</time>
</trkpt>
<trkpt lat="31.3379500" lon="35.2771700">
<ele>219.869995</ele>
<time>2025-01-08T10:27:25.772Z</time>
</trkpt>
<trkpt lat="31.3379100" lon="35.2772600">
<ele>215.690002</ele>
<time>2025-01-08T10:27:25.772Z</time>
</trkpt>
<trkpt lat="31.3378700" lon="35.2773000">
<ele>211.050003</ele>
<time>2025-01-08T10:27:25.772Z</time>
</trkpt>
<trkpt lat="31.3377500" lon="35.2772800">
<ele>207.209991</ele>
<time>2025-01-08T10:27:25.772Z</time>
</trkpt>
<trkpt lat="31.3377000" lon="35.2772200">
<ele>209.100006</ele>
<time>2025-01-08T10:27:25.772Z</time>
</trkpt>
<trkpt lat="31.3376800" lon="35.2771800">
<ele>208.619995</ele>
<time>2025-01-08T10:27:25.772Z</time>
</trkpt>
<trkpt lat="31.3376800" lon="35.2770500">
<ele>210.289993</ele>
<time>2025-01-08T10:27:25.772Z</time>
</trkpt>
<trkpt lat="31.3376500" lon="35.2769500">
<ele>211.440002</ele>
<time>2025-01-08T10:27:25.772Z</time>
</trkpt>
<trkpt lat="31.3375400" lon="35.2769800">
<ele>209.850006</ele>
<time>2025-01-08T10:27:25.772Z</time>
</trkpt>
<trkpt lat="31.3375400" lon="35.2769800">
<ele>209.850006</ele>
<time>2025-01-08T10:27:25.772Z</time>
</trkpt>
<trkpt lat="31.3375400" lon="35.2769800">
<ele>209.850006</ele>
<time>2025-01-08T10:27:25.772Z</time>
</trkpt>
<trkpt lat="31.3376500" lon="35.2769500">
<ele>211.440002</ele>
<time>2025-01-08T10:27:25.772Z</time>
</trkpt>
<trkpt lat="31.3376800" lon="35.2770500">
<ele>210.289993</ele>
<time>2025-01-08T10:27:25.772Z</time>
</trkpt>
<trkpt lat="31.3376800" lon="35.2771800">
<ele>208.619995</ele>
<time>2025-01-08T10:27:25.772Z</time>
</trkpt>
<trkpt lat="31.3377000" lon="35.2772200">
<ele>209.100006</ele>
<time>2025-01-08T10:27:25.772Z</time>
</trkpt>
<trkpt lat="31.3377500" lon="35.2772800">
<ele>207.209991</ele>
<time>2025-01-08T10:27:25.772Z</time>
</trkpt>
<trkpt lat="31.3378700" lon="35.2773000">
<ele>211.050003</ele>
<time>2025-01-08T10:27:25.772Z</time>
</trkpt>
<trkpt lat="31.3379100" lon="35.2772600">
<ele>215.690002</ele>
<time>2025-01-08T10:27:25.772Z</time>
</trkpt>
<trkpt lat="31.3379500" lon="35.2771700">
<ele>219.869995</ele>
<time>2025-01-08T10:27:25.772Z</time>
</trkpt>
<trkpt lat="31.3380100" lon="35.2771000">
<ele>222.489990</ele>
<time>2025-01-08T10:27:25.772Z</time>
</trkpt>
<trkpt lat="31.3380400" lon="35.2770800">
<ele>223.839996</ele>
<time>2025-01-08T10:27:25.772Z</time>
</trkpt>
<trkpt lat="31.3381700" lon="35.2770300">
<ele>226.500000</ele>
<time>2025-01-08T10:27:25.772Z</time>
</trkpt>
<trkpt lat="31.3382900" lon="35.2769500">
<ele>229.169998</ele>
<time>2025-01-08T10:27:25.772Z</time>
</trkpt>
<trkpt lat="31.3383400" lon="35.2768800">
<ele>228.830002</ele>
<time>2025-01-08T10:27:25.772Z</time>
</trkpt>
<trkpt lat="31.3383500" lon="35.2767500">
<ele>226.570007</ele>
<time>2025-01-08T10:27:25.772Z</time>
</trkpt>
<trkpt lat="31.3383300" lon="35.2765400">
<ele>221.269989</ele>
<time>2025-01-08T10:27:25.772Z</time>
</trkpt>
<trkpt lat="31.3383400" lon="35.2762800">
<ele>214.360001</ele>
<time>2025-01-08T10:27:25.772Z</time>
</trkpt>
<trkpt lat="31.3382800" lon="35.2761700">
<ele>210.940002</ele>
<time>2025-01-08T10:27:25.772Z</time>
</trkpt>
<trkpt lat="31.3382700" lon="35.2760000">
<ele>207.729996</ele>
<time>2025-01-08T10:27:25.772Z</time>
</trkpt>
<trkpt lat="31.3382600" lon="35.2759700">
<ele>207.199997</ele>
<time>2025-01-08T10:27:25.772Z</time>
</trkpt>
<trkpt lat="31.3381900" lon="35.2759500">
<ele>206.670013</ele>
<time>2025-01-08T10:27:25.772Z</time>
</trkpt>
<trkpt lat="31.3381100" lon="35.2758500">
<ele>205.199997</ele>
<time>2025-01-08T10:27:25.772Z</time>
</trkpt>
<trkpt lat="31.3379700" lon="35.2757600">
<ele>204.470001</ele>
<time>2025-01-08T10:27:25.772Z</time>
</trkpt>
<trkpt lat="31.3381400" lon="35.2757300">
<ele>205.229996</ele>
<time>2025-01-08T10:27:25.772Z</time>
</trkpt>
<trkpt lat="31.3381300" lon="35.2757200">
<ele>205.220001</ele>
<time>2025-01-08T10:27:25.772Z</time>
</trkpt>
<trkpt lat="31.3381300" lon="35.2757200">
<ele>205.220001</ele>
<time>2025-01-08T10:27:25.772Z</time>
</trkpt>
<trkpt lat="31.3381800" lon="35.2756400">
<ele>205.620010</ele>
<time>2025-01-08T10:27:25.772Z</time>
</trkpt>
<trkpt lat="31.3382400" lon="35.2754100">
<ele>209.119995</ele>
<time>2025-01-08T10:27:25.772Z</time>
</trkpt>
<trkpt lat="31.3381900" lon="35.2751800">
<ele>212.699997</ele>
<time>2025-01-08T10:27:25.772Z</time>
</trkpt>
<trkpt lat="31.3381300" lon="35.2749800">
<ele>215.339996</ele>
<time>2025-01-08T10:27:25.772Z</time>
</trkpt>
<trkpt lat="31.3380400" lon="35.2747900">
<ele>217.000000</ele>
<time>2025-01-08T10:27:25.772Z</time>
</trkpt>
<trkpt lat="31.3380400" lon="35.2745800">
<ele>220.390015</ele>
<time>2025-01-08T10:27:25.772Z</time>
</trkpt>
<trkpt lat="31.3381300" lon="35.2745200">
<ele>222.250000</ele>
<time>2025-01-08T10:27:25.772Z</time>
</trkpt>
<trkpt lat="31.3383200" lon="35.2746600">
<ele>221.760010</ele>
<time>2025-01-08T10:27:25.772Z</time>
</trkpt>
<trkpt lat="31.3385700" lon="35.2750300">
<ele>215.660004</ele>
<time>2025-01-08T10:27:25.772Z</time>
</trkpt>
<trkpt lat="31.3388300" lon="35.2749300">
<ele>211.389999</ele>
<time>2025-01-08T10:27:25.772Z</time>
</trkpt>
<trkpt lat="31.3390500" lon="35.2748400">
<ele>211.970001</ele>
<time>2025-01-08T10:27:25.772Z</time>
</trkpt>
<trkpt lat="31.3393000" lon="35.2747800">
<ele>219.129990</ele>
<time>2025-01-08T10:27:25.772Z</time>
</trkpt>
<trkpt lat="31.3394800" lon="35.2747000">
<ele>227.900009</ele>
<time>2025-01-08T10:27:25.772Z</time>
</trkpt>
<trkpt lat="31.3397100" lon="35.2746600">
<ele>238.070007</ele>
<time>2025-01-08T10:27:25.772Z</time>
</trkpt>
<trkpt lat="31.3399000" lon="35.2748300">
<ele>239.429993</ele>
<time>2025-01-08T10:27:25.772Z</time>
</trkpt>
<trkpt lat="31.3400000" lon="35.2750400">
<ele>238.000000</ele>
<time>2025-01-08T10:27:25.772Z</time>
</trkpt>
<trkpt lat="31.3400700" lon="35.2753600">
<ele>240.550003</ele>
<time>2025-01-08T10:27:25.772Z</time>
</trkpt>
<trkpt lat="31.3401400" lon="35.2755900">
<ele>241.850006</ele>
<time>2025-01-08T10:27:25.772Z</time>
</trkpt>
<trkpt lat="31.3401700" lon="35.2756400">
<ele>242.410004</ele>
<time>2025-01-08T10:27:25.772Z</time>
</trkpt>
<trkpt lat="31.3403400" lon="35.2757700">
<ele>246.729996</ele>
<time>2025-01-08T10:27:25.772Z</time>
</trkpt>
<trkpt lat="31.3405100" lon="35.2758800">
<ele>251.100006</ele>
<time>2025-01-08T10:27:25.772Z</time>
</trkpt>
<trkpt lat="31.3407200" lon="35.2760700">
<ele>253.070007</ele>
<time>2025-01-08T10:27:25.772Z</time>
</trkpt>
<trkpt lat="31.3408500" lon="35.2762300">
<ele>253.650009</ele>
<time>2025-01-08T10:27:25.772Z</time>
</trkpt>
<trkpt lat="31.3409500" lon="35.2764700">
<ele>254.550003</ele>
<time>2025-01-08T10:27:25.772Z</time>
</trkpt>
<trkpt lat="31.3409500" lon="35.2766600">
<ele>255.239990</ele>
<time>2025-01-08T10:27:25.772Z</time>
</trkpt>
<trkpt lat="31.3409800" lon="35.2767600">
<ele>254.860001</ele>
<time>2025-01-08T10:27:25.772Z</time>
</trkpt>
<trkpt lat="31.3410000" lon="35.2768200">
<ele>254.360016</ele>
<time>2025-01-08T10:27:25.772Z</time>
</trkpt>
<trkpt lat="31.3411000" lon="35.2769700">
<ele>251.009995</ele>
<time>2025-01-08T10:27:25.772Z</time>
</trkpt>
<trkpt lat="31.3411600" lon="35.2768600">
<ele>253.220001</ele>
<time>2025-01-08T10:27:25.772Z</time>
</trkpt>
<trkpt lat="31.3413800" lon="35.2767300">
<ele>254.669998</ele>
<time>2025-01-08T10:27:25.772Z</time>
</trkpt>
<trkpt lat="31.3414600" lon="35.2766200">
<ele>255.689987</ele>
<time>2025-01-08T10:27:25.772Z</time>
</trkpt>
<trkpt lat="31.3415200" lon="35.2763600">
<ele>258.950012</ele>
<time>2025-01-08T10:27:25.772Z</time>
</trkpt>
<trkpt lat="31.3415600" lon="35.2761400">
<ele>261.389984</ele>
<time>2025-01-08T10:27:25.772Z</time>
</trkpt>
<trkpt lat="31.3416200" lon="35.2759200">
<ele>260.989990</ele>
<time>2025-01-08T10:27:25.772Z</time>
</trkpt>
<trkpt lat="31.3416400" lon="35.2757900">
<ele>260.809998</ele>
<time>2025-01-08T10:27:25.772Z</time>
</trkpt>
<trkpt lat="31.3416700" lon="35.2756600">
<ele>260.369995</ele>
<time>2025-01-08T10:27:25.772Z</time>
</trkpt>
<trkpt lat="31.3417500" lon="35.2753700">
<ele>259.500000</ele>
<time>2025-01-08T10:27:25.772Z</time>
</trkpt>
<trkpt lat="31.3418100" lon="35.2752100">
<ele>259.450012</ele>
<time>2025-01-08T10:27:25.772Z</time>
</trkpt>
<trkpt lat="31.3418900" lon="35.2749800">
<ele>259.869995</ele>
<time>2025-01-08T10:27:25.772Z</time>
</trkpt>
<trkpt lat="31.3419300" lon="35.2747100">
<ele>260.390015</ele>
<time>2025-01-08T10:27:25.772Z</time>
</trkpt>
<trkpt lat="31.3419300" lon="35.2746400">
<ele>261.160004</ele>
<time>2025-01-08T10:27:25.772Z</time>
</trkpt>
<trkpt lat="31.3419800" lon="35.2745000">
<ele>263.730011</ele>
<time>2025-01-08T10:27:25.772Z</time>
</trkpt>
<trkpt lat="31.3420100" lon="35.2744200">
<ele>265.750000</ele>
<time>2025-01-08T10:27:25.772Z</time>
</trkpt>
<trkpt lat="31.3420800" lon="35.2741100">
<ele>274.289978</ele>
<time>2025-01-08T10:27:25.772Z</time>
</trkpt>
<trkpt lat="31.3421000" lon="35.2738700">
<ele>281.059998</ele>
<time>2025-01-08T10:27:25.772Z</time>
</trkpt>
<trkpt lat="31.3420800" lon="35.2736100">
<ele>286.940002</ele>
<time>2025-01-08T10:27:25.772Z</time>
</trkpt>
<trkpt lat="31.3420900" lon="35.2733700">
<ele>290.200012</ele>
<time>2025-01-08T10:27:25.772Z</time>
</trkpt>
<trkpt lat="31.3420900" lon="35.2733600">
<ele>290.329987</ele>
<time>2025-01-08T10:27:25.772Z</time>
</trkpt>
<trkpt lat="31.3421800" lon="35.2732300">
<ele>293.420013</ele>
<time>2025-01-08T10:27:25.772Z</time>
</trkpt>
<trkpt lat="31.3422700" lon="35.2732100">
<ele>296.070007</ele>
<time>2025-01-08T10:27:25.772Z</time>
</trkpt>
<trkpt lat="31.3424500" lon="35.2734000">
<ele>301.010010</ele>
<time>2025-01-08T10:27:25.772Z</time>
</trkpt>
<trkpt lat="31.3425900" lon="35.2736600">
<ele>301.729980</ele>
<time>2025-01-08T10:27:25.772Z</time>
</trkpt>
<trkpt lat="31.3427800" lon="35.2738700">
<ele>303.740021</ele>
<time>2025-01-08T10:27:25.772Z</time>
</trkpt>
<trkpt lat="31.3428800" lon="35.2736600">
<ele>298.949982</ele>
<time>2025-01-08T10:27:25.772Z</time>
</trkpt>
<trkpt lat="31.3428900" lon="35.2733900">
<ele>297.850006</ele>
<time>2025-01-08T10:27:25.772Z</time>
</trkpt>
<trkpt lat="31.3428800" lon="35.2733000">
<ele>298.160004</ele>
<time>2025-01-08T10:27:25.772Z</time>
</trkpt>
<trkpt lat="31.3428200" lon="35.2730600">
<ele>301.300018</ele>
<time>2025-01-08T10:27:25.772Z</time>
</trkpt>
<trkpt lat="31.3428200" lon="35.2729600">
<ele>302.019989</ele>
<time>2025-01-08T10:27:25.772Z</time>
</trkpt>
<trkpt lat="31.3427600" lon="35.2726900">
<ele>305.910004</ele>
<time>2025-01-08T10:27:25.772Z</time>
</trkpt>
<trkpt lat="31.3427200" lon="35.2725100">
<ele>307.959991</ele>
<time>2025-01-08T10:27:25.772Z</time>
</trkpt>
<trkpt lat="31.3427000" lon="35.2723500">
<ele>309.390015</ele>
<time>2025-01-08T10:27:25.772Z</time>
</trkpt>
<trkpt lat="31.3426800" lon="35.2722600">
<ele>310.540009</ele>
<time>2025-01-08T10:27:25.772Z</time>
</trkpt>
<trkpt lat="31.3426600" lon="35.2721800">
<ele>311.630005</ele>
<time>2025-01-08T10:27:25.772Z</time>
</trkpt>
<trkpt lat="31.3426000" lon="35.2719600">
<ele>314.400024</ele>
<time>2025-01-08T10:27:25.772Z</time>
</trkpt>
<trkpt lat="31.3425800" lon="35.2716900">
<ele>315.510010</ele>
<time>2025-01-08T10:27:25.772Z</time>
</trkpt>
<trkpt lat="31.3425500" lon="35.2714200">
<ele>316.580017</ele>
<time>2025-01-08T10:27:25.772Z</time>
</trkpt>
<trkpt lat="31.3425500" lon="35.2711100">
<ele>317.920013</ele>
<time>2025-01-08T10:27:25.772Z</time>
</trkpt>
<trkpt lat="31.3425600" lon="35.2707000">
<ele>319.559998</ele>
<time>2025-01-08T10:27:25.772Z</time>
</trkpt>
<trkpt lat="31.3425700" lon="35.2703200">
<ele>321.359985</ele>
<time>2025-01-08T10:27:25.772Z</time>
</trkpt>
<trkpt lat="31.3425600" lon="35.2699300">
<ele>320.619995</ele>
<time>2025-01-08T10:27:25.772Z</time>
</trkpt>
<trkpt lat="31.3426100" lon="35.2691500">
<ele>315.160004</ele>
<time>2025-01-08T10:27:25.772Z</time>
</trkpt>
<trkpt lat="31.3426100" lon="35.2690900">
<ele>316.920013</ele>
<time>2025-01-08T10:27:25.772Z</time>
</trkpt>
<trkpt lat="31.3426100" lon="35.2687600">
<ele>326.190002</ele>
<time>2025-01-08T10:27:25.772Z</time>
</trkpt>
<trkpt lat="31.3425900" lon="35.2684600">
<ele>331.830017</ele>
<time>2025-01-08T10:27:25.772Z</time>
</trkpt>
<trkpt lat="31.3425500" lon="35.2682400">
<ele>333.249969</ele>
<time>2025-01-08T10:27:25.772Z</time>
</trkpt>
<trkpt lat="31.3425000" lon="35.2679000">
<ele>333.000000</ele>
<time>2025-01-08T10:27:25.772Z</time>
</trkpt>
<trkpt lat="31.3424300" lon="35.2675800">
<ele>334.899994</ele>
<time>2025-01-08T10:27:25.772Z</time>
</trkpt>
<trkpt lat="31.3424200" lon="35.2671900">
<ele>335.729980</ele>
<time>2025-01-08T10:27:25.772Z</time>
</trkpt>
<trkpt lat="31.3425700" lon="35.2667200">
<ele>335.810028</ele>
<time>2025-01-08T10:27:25.772Z</time>
</trkpt>
<trkpt lat="31.3426600" lon="35.2664300">
<ele>336.849976</ele>
<time>2025-01-08T10:27:25.772Z</time>
</trkpt>
<trkpt lat="31.3426500" lon="35.2662600">
<ele>337.459991</ele>
<time>2025-01-08T10:27:25.772Z</time>
</trkpt>
<trkpt lat="31.3426400" lon="35.2661200">
<ele>337.970001</ele>
<time>2025-01-08T10:27:25.772Z</time>
</trkpt>
<trkpt lat="31.3426000" lon="35.2658300">
<ele>338.980011</ele>
<time>2025-01-08T10:27:25.772Z</time>
</trkpt>
<trkpt lat="31.3425300" lon="35.2653200">
<ele>336.179993</ele>
<time>2025-01-08T10:27:25.772Z</time>
</trkpt>
<trkpt lat="31.3425100" lon="35.2651600">
<ele>335.139984</ele>
<time>2025-01-08T10:27:25.772Z</time>
</trkpt>
<trkpt lat="31.3424200" lon="35.2646000">
<ele>329.260010</ele>
<time>2025-01-08T10:27:25.772Z</time>
</trkpt>
<trkpt lat="31.3424000" lon="35.2643900">
<ele>329.809998</ele>
<time>2025-01-08T10:27:25.772Z</time>
</trkpt>
<trkpt lat="31.3422700" lon="35.2639300">
<ele>335.259979</ele>
<time>2025-01-08T10:27:25.772Z</time>
</trkpt>
<trkpt lat="31.3419600" lon="35.2633100">
<ele>343.070007</ele>
<time>2025-01-08T10:27:25.772Z</time>
</trkpt>
<trkpt lat="31.3416600" lon="35.2627100">
<ele>339.209991</ele>
<time>2025-01-08T10:27:25.772Z</time>
</trkpt>
<trkpt lat="31.3415600" lon="35.2623000">
<ele>339.570007</ele>
<time>2025-01-08T10:27:25.772Z</time>
</trkpt>
<trkpt lat="31.3417900" lon="35.2617000">
<ele>337.750000</ele>
<time>2025-01-08T10:27:25.772Z</time>
</trkpt>
<trkpt lat="31.3418000" lon="35.2616600">
<ele>337.300018</ele>
<time>2025-01-08T10:27:25.772Z</time>
</trkpt>
<trkpt lat="31.3418100" lon="35.2614700">
<ele>334.730011</ele>
<time>2025-01-08T10:27:25.772Z</time>
</trkpt>
<trkpt lat="31.3417300" lon="35.2610400">
<ele>328.199982</ele>
<time>2025-01-08T10:27:25.772Z</time>
</trkpt>
<trkpt lat="31.3417000" lon="35.2608500">
<ele>326.559998</ele>
<time>2025-01-08T10:27:25.772Z</time>
</trkpt>
<trkpt lat="31.3416400" lon="35.2607000">
<ele>327.529999</ele>
<time>2025-01-08T10:27:25.772Z</time>
</trkpt>
<trkpt lat="31.3416100" lon="35.2605400">
<ele>327.939972</ele>
<time>2025-01-08T10:27:25.772Z</time>
</trkpt>
<trkpt lat="31.3416500" lon="35.2604000">
<ele>325.509979</ele>
<time>2025-01-08T10:27:25.772Z</time>
</trkpt>
<trkpt lat="31.3417800" lon="35.2601800">
<ele>319.419983</ele>
<time>2025-01-08T10:27:25.772Z</time>
</trkpt>
<trkpt lat="31.3418000" lon="35.2601400">
<ele>318.430023</ele>
<time>2025-01-08T10:27:25.772Z</time>
</trkpt>
<trkpt lat="31.3419200" lon="35.2598900">
<ele>313.049988</ele>
<time>2025-01-08T10:27:25.772Z</time>
</trkpt>
<trkpt lat="31.3422000" lon="35.2594800">
<ele>309.419983</ele>
<time>2025-01-08T10:27:25.772Z</time>
</trkpt>
<trkpt lat="31.3421900" lon="35.2590700">
<ele>308.839996</ele>
<time>2025-01-08T10:27:25.772Z</time>
</trkpt>
<trkpt lat="31.3418900" lon="35.2588300">
<ele>310.339996</ele>
<time>2025-01-08T10:27:25.772Z</time>
</trkpt>
<trkpt lat="31.3417000" lon="35.2586500">
<ele>313.089996</ele>
<time>2025-01-08T10:27:25.772Z</time>
</trkpt>
<trkpt lat="31.3414300" lon="35.2584200">
<ele>325.559998</ele>
<time>2025-01-08T10:27:25.772Z</time>
</trkpt>
<trkpt lat="31.3415900" lon="35.2582800">
<ele>318.339996</ele>
<time>2025-01-08T10:27:25.772Z</time>
</trkpt>
<trkpt lat="31.3417900" lon="35.2583900">
<ele>309.540009</ele>
<time>2025-01-08T10:27:25.772Z</time>
</trkpt>
<trkpt lat="31.3418700" lon="35.2584000">
<ele>306.790009</ele>
<time>2025-01-08T10:27:25.772Z</time>
</trkpt>
<trkpt lat="31.3422300" lon="35.2583300">
<ele>303.059998</ele>
<time>2025-01-08T10:27:25.772Z</time>
</trkpt>
<trkpt lat="31.3422800" lon="35.2582600">
<ele>303.359985</ele>
<time>2025-01-08T10:27:25.772Z</time>
</trkpt>
<trkpt lat="31.3424300" lon="35.2580400">
<ele>303.690002</ele>
<time>2025-01-08T10:27:25.772Z</time>
</trkpt>
<trkpt lat="31.3425000" lon="35.2577900">
<ele>302.089996</ele>
<time>2025-01-08T10:27:25.772Z</time>
</trkpt>
<trkpt lat="31.3423700" lon="35.2574500">
<ele>306.119995</ele>
<time>2025-01-08T10:27:25.772Z</time>
</trkpt>
<trkpt lat="31.3422700" lon="35.2572300">
<ele>309.929993</ele>
<time>2025-01-08T10:27:25.772Z</time>
</trkpt>
<trkpt lat="31.3421200" lon="35.2571200">
<ele>313.729980</ele>
<time>2025-01-08T10:27:25.772Z</time>
</trkpt>
<trkpt lat="31.3420400" lon="35.2569300">
<ele>313.450012</ele>
<time>2025-01-08T10:27:25.772Z</time>
</trkpt>
<trkpt lat="31.3420600" lon="35.2568900">
<ele>312.850006</ele>
<time>2025-01-08T10:27:25.772Z</time>
</trkpt>
<trkpt lat="31.3422900" lon="35.2569300">
<ele>312.279999</ele>
<time>2025-01-08T10:27:25.772Z</time>
</trkpt>
<trkpt lat="31.3425700" lon="35.2571200">
<ele>307.279999</ele>
<time>2025-01-08T10:27:25.772Z</time>
</trkpt>
<trkpt lat="31.3429600" lon="35.2575300">
<ele>307.140015</ele>
<time>2025-01-08T10:27:25.772Z</time>
</trkpt>
<trkpt lat="31.3431300" lon="35.2579200">
<ele>306.239990</ele>
<time>2025-01-08T10:27:25.772Z</time>
</trkpt>
<trkpt lat="31.3435900" lon="35.2581300">
<ele>302.779999</ele>
<time>2025-01-08T10:27:25.772Z</time>
</trkpt>
<trkpt lat="31.3440600" lon="35.2582200">
<ele>293.480011</ele>
<time>2025-01-08T10:27:25.772Z</time>
</trkpt>
<trkpt lat="31.3442400" lon="35.2582300">
<ele>291.519989</ele>
<time>2025-01-08T10:27:25.772Z</time>
</trkpt>
<trkpt lat="31.3445900" lon="35.2578700">
<ele>292.269989</ele>
<time>2025-01-08T10:27:25.772Z</time>
</trkpt>
<trkpt lat="31.3446300" lon="35.2577200">
<ele>293.160004</ele>
<time>2025-01-08T10:27:25.772Z</time>
</trkpt>
<trkpt lat="31.3447100" lon="35.2573600">
<ele>299.160004</ele>
<time>2025-01-08T10:27:25.772Z</time>
</trkpt>
<trkpt lat="31.3452600" lon="35.2570300">
<ele>297.250000</ele>
<time>2025-01-08T10:27:25.772Z</time>
</trkpt>
<trkpt lat="31.3454600" lon="35.2568700">
<ele>300.039978</ele>
<time>2025-01-08T10:27:25.772Z</time>
</trkpt>
<trkpt lat="31.3457000" lon="35.2568700">
<ele>300.509979</ele>
<time>2025-01-08T10:27:25.772Z</time>
</trkpt>
<trkpt lat="31.3459000" lon="35.2568400">
<ele>302.419983</ele>
<time>2025-01-08T10:27:25.772Z</time>
</trkpt>
<trkpt lat="31.3460900" lon="35.2567700">
<ele>304.750000</ele>
<time>2025-01-08T10:27:25.772Z</time>
</trkpt>
<trkpt lat="31.3461400" lon="35.2567400">
<ele>304.950012</ele>
<time>2025-01-08T10:27:25.772Z</time>
</trkpt>
<trkpt lat="31.3462800" lon="35.2566200">
<ele>304.809998</ele>
<time>2025-01-08T10:27:25.772Z</time>
</trkpt>
<trkpt lat="31.3463400" lon="35.2566000">
<ele>304.329987</ele>
<time>2025-01-08T10:27:25.772Z</time>
</trkpt>
<trkpt lat="31.3465700" lon="35.2564300">
<ele>302.390015</ele>
<time>2025-01-08T10:27:25.772Z</time>
</trkpt>
<trkpt lat="31.3465500" lon="35.2560000">
<ele>306.679993</ele>
<time>2025-01-08T10:27:25.772Z</time>
</trkpt>
<trkpt lat="31.3464100" lon="35.2554300">
<ele>311.200012</ele>
<time>2025-01-08T10:27:25.772Z</time>
</trkpt>
<trkpt lat="31.3462700" lon="35.2546400">
<ele>300.730011</ele>
<time>2025-01-08T10:27:25.772Z</time>
</trkpt>
<trkpt lat="31.3463000" lon="35.2545500">
<ele>299.180023</ele>
<time>2025-01-08T10:27:25.772Z</time>
</trkpt>
<trkpt lat="31.3463900" lon="35.2545000">
<ele>296.220001</ele>
<time>2025-01-08T10:27:25.772Z</time>
</trkpt>
<trkpt lat="31.3464300" lon="35.2544800">
<ele>297.049988</ele>
<time>2025-01-08T10:27:25.772Z</time>
</trkpt>
<trkpt lat="31.3465000" lon="35.2545200">
<ele>298.420013</ele>
<time>2025-01-08T10:27:25.772Z</time>
</trkpt>
<trkpt lat="31.3466700" lon="35.2547800">
<ele>297.700012</ele>
<time>2025-01-08T10:27:25.772Z</time>
</trkpt>
<trkpt lat="31.3468200" lon="35.2550100">
<ele>299.880005</ele>
<time>2025-01-08T10:27:25.772Z</time>
</trkpt>
<trkpt lat="31.3469300" lon="35.2552400">
<ele>301.910004</ele>
<time>2025-01-08T10:27:25.772Z</time>
</trkpt>
<trkpt lat="31.3470700" lon="35.2553900">
<ele>305.529999</ele>
<time>2025-01-08T10:27:25.772Z</time>
</trkpt>
<trkpt lat="31.3473100" lon="35.2555900">
<ele>311.619995</ele>
<time>2025-01-08T10:27:25.772Z</time>
</trkpt>
<trkpt lat="31.3475700" lon="35.2558000">
<ele>314.850006</ele>
<time>2025-01-08T10:27:25.772Z</time>
</trkpt>
<trkpt lat="31.3477400" lon="35.2559200">
<ele>314.199982</ele>
<time>2025-01-08T10:27:25.772Z</time>
</trkpt>
<trkpt lat="31.3479100" lon="35.2559600">
<ele>314.260010</ele>
<time>2025-01-08T10:27:25.772Z</time>
</trkpt>
<trkpt lat="31.3481100" lon="35.2559200">
<ele>314.289978</ele>
<time>2025-01-08T10:27:25.772Z</time>
</trkpt>
<trkpt lat="31.3483000" lon="35.2558800">
<ele>313.299988</ele>
<time>2025-01-08T10:27:25.772Z</time>
</trkpt>
<trkpt lat="31.3483300" lon="35.2560600">
<ele>317.679993</ele>
<time>2025-01-08T10:27:25.772Z</time>
</trkpt>
<trkpt lat="31.3480900" lon="35.2564100">
<ele>321.309998</ele>
<time>2025-01-08T10:27:25.772Z</time>
</trkpt>
<trkpt lat="31.3480100" lon="35.2567700">
<ele>323.860016</ele>
<time>2025-01-08T10:27:25.772Z</time>
</trkpt>
<trkpt lat="31.3480300" lon="35.2569700">
<ele>325.280029</ele>
<time>2025-01-08T10:27:25.772Z</time>
</trkpt>
<trkpt lat="31.3481400" lon="35.2572300">
<ele>325.399994</ele>
<time>2025-01-08T10:27:25.772Z</time>
</trkpt>
<trkpt lat="31.3482700" lon="35.2574000">
<ele>323.959991</ele>
<time>2025-01-08T10:27:25.772Z</time>
</trkpt>
<trkpt lat="31.3484600" lon="35.2575700">
<ele>324.640015</ele>
<time>2025-01-08T10:27:25.772Z</time>
</trkpt>
<trkpt lat="31.3486600" lon="35.2577300">
<ele>324.500000</ele>
<time>2025-01-08T10:27:25.772Z</time>
</trkpt>
<trkpt lat="31.3487700" lon="35.2577600">
<ele>323.659973</ele>
<time>2025-01-08T10:27:25.772Z</time>
</trkpt>
<trkpt lat="31.3491700" lon="35.2577800">
<ele>315.970001</ele>
<time>2025-01-08T10:27:25.772Z</time>
</trkpt>
<trkpt lat="31.3493100" lon="35.2577700">
<ele>316.739990</ele>
<time>2025-01-08T10:27:25.772Z</time>
</trkpt>
<trkpt lat="31.3495600" lon="35.2580400">
<ele>318.160004</ele>
<time>2025-01-08T10:27:25.772Z</time>
</trkpt>
<trkpt lat="31.3491400" lon="35.2587200">
<ele>311.700012</ele>
<time>2025-01-08T10:27:25.772Z</time>
</trkpt>
<trkpt lat="31.3490700" lon="35.2587900">
<ele>310.309998</ele>
<time>2025-01-08T10:27:25.772Z</time>
</trkpt>
<trkpt lat="31.3489300" lon="35.2589800">
<ele>308.350006</ele>
<time>2025-01-08T10:27:25.772Z</time>
</trkpt>
<trkpt lat="31.3489100" lon="35.2593800">
<ele>309.739990</ele>
<time>2025-01-08T10:27:25.772Z</time>
</trkpt>
<trkpt lat="31.3490600" lon="35.2599800">
<ele>309.300018</ele>
<time>2025-01-08T10:27:25.772Z</time>
</trkpt>
<trkpt lat="31.3494100" lon="35.2601200">
<ele>308.000000</ele>
<time>2025-01-08T10:27:25.772Z</time>
</trkpt>
<trkpt lat="31.3502400" lon="35.2597000">
<ele>305.049988</ele>
<time>2025-01-08T10:27:25.772Z</time>
</trkpt>
<trkpt lat="31.3502900" lon="35.2596600">
<ele>305.630005</ele>
<time>2025-01-08T10:27:25.772Z</time>
</trkpt>
<trkpt lat="31.3506600" lon="35.2592800">
<ele>308.179993</ele>
<time>2025-01-08T10:27:25.772Z</time>
</trkpt>
<trkpt lat="31.3508300" lon="35.2591300">
<ele>309.269989</ele>
<time>2025-01-08T10:27:25.772Z</time>
</trkpt>
<trkpt lat="31.3511000" lon="35.2586500">
<ele>311.339996</ele>
<time>2025-01-08T10:27:25.772Z</time>
</trkpt>
<trkpt lat="31.3514000" lon="35.2582500">
<ele>314.289978</ele>
<time>2025-01-08T10:27:25.772Z</time>
</trkpt>
<trkpt lat="31.3516400" lon="35.2580300">
<ele>311.109985</ele>
<time>2025-01-08T10:27:25.772Z</time>
</trkpt>
<trkpt lat="31.3517500" lon="35.2579800">
<ele>309.360016</ele>
<time>2025-01-08T10:27:25.772Z</time>
</trkpt>
<trkpt lat="31.3520100" lon="35.2577200">
<ele>303.890015</ele>
<time>2025-01-08T10:27:25.772Z</time>
</trkpt>
<trkpt lat="31.3521500" lon="35.2574300">
<ele>304.859985</ele>
<time>2025-01-08T10:27:25.772Z</time>
</trkpt>
<trkpt lat="31.3521900" lon="35.2573300">
<ele>305.519989</ele>
<time>2025-01-08T10:27:25.772Z</time>
</trkpt>
<trkpt lat="31.3522800" lon="35.2573000">
<ele>306.910004</ele>
<time>2025-01-08T10:27:25.772Z</time>
</trkpt>
<trkpt lat="31.3523900" lon="35.2572600">
<ele>309.410004</ele>
<time>2025-01-08T10:27:25.772Z</time>
</trkpt>
<trkpt lat="31.3525700" lon="35.2571400">
<ele>314.470001</ele>
<time>2025-01-08T10:27:25.772Z</time>
</trkpt>
<trkpt lat="31.3527700" lon="35.2569900">
<ele>318.739990</ele>
<time>2025-01-08T10:27:25.772Z</time>
</trkpt>
<trkpt lat="31.3529600" lon="35.2568500">
<ele>319.670013</ele>
<time>2025-01-08T10:27:25.772Z</time>
</trkpt>
<trkpt lat="31.3531100" lon="35.2567400">
<ele>318.919983</ele>
<time>2025-01-08T10:27:25.772Z</time>
</trkpt>
<trkpt lat="31.3533300" lon="35.2566200">
<ele>316.859985</ele>
<time>2025-01-08T10:27:25.772Z</time>
</trkpt>
<trkpt lat="31.3535800" lon="35.2565300">
<ele>314.720001</ele>
<time>2025-01-08T10:27:25.772Z</time>
</trkpt>
<trkpt lat="31.3539300" lon="35.2564300">
<ele>311.010010</ele>
<time>2025-01-08T10:27:25.772Z</time>
</trkpt>
<trkpt lat="31.3543000" lon="35.2563300">
<ele>318.439972</ele>
<time>2025-01-08T10:27:25.772Z</time>
</trkpt>
<trkpt lat="31.3545000" lon="35.2564000">
<ele>324.540009</ele>
<time>2025-01-08T10:27:25.772Z</time>
</trkpt>
<trkpt lat="31.3545600" lon="35.2563900">
<ele>325.920013</ele>
<time>2025-01-08T10:27:25.772Z</time>
</trkpt>
<trkpt lat="31.3548500" lon="35.2563500">
<ele>330.220001</ele>
<time>2025-01-08T10:27:25.772Z</time>
</trkpt>
<trkpt lat="31.3551600" lon="35.2563900">
<ele>328.850006</ele>
<time>2025-01-08T10:27:25.772Z</time>
</trkpt>
<trkpt lat="31.3553800" lon="35.2564000">
<ele>328.720001</ele>
<time>2025-01-08T10:27:25.772Z</time>
</trkpt>
<trkpt lat="31.3555200" lon="35.2564000">
<ele>329.709991</ele>
<time>2025-01-08T10:27:25.772Z</time>
</trkpt>
<trkpt lat="31.3557800" lon="35.2563900">
<ele>330.000000</ele>
<time>2025-01-08T10:27:25.772Z</time>
</trkpt>
<trkpt lat="31.3560000" lon="35.2563600">
<ele>333.809998</ele>
<time>2025-01-08T10:27:25.772Z</time>
</trkpt>
<trkpt lat="31.3562500" lon="35.2563600">
<ele>338.100006</ele>
<time>2025-01-08T10:27:25.772Z</time>
</trkpt>
<trkpt lat="31.3564700" lon="35.2563500">
<ele>341.410004</ele>
<time>2025-01-08T10:27:25.772Z</time>
</trkpt>
<trkpt lat="31.3566400" lon="35.2563500">
<ele>343.770020</ele>
<time>2025-01-08T10:27:25.772Z</time>
</trkpt>
<trkpt lat="31.3568800" lon="35.2563300">
<ele>342.960022</ele>
<time>2025-01-08T10:27:25.772Z</time>
</trkpt>
<trkpt lat="31.3570900" lon="35.2562600">
<ele>340.709991</ele>
<time>2025-01-08T10:27:25.772Z</time>
</trkpt>
<trkpt lat="31.3573900" lon="35.2561700">
<ele>340.520020</ele>
<time>2025-01-08T10:27:25.772Z</time>
</trkpt>
<trkpt lat="31.3577900" lon="35.2560800">
<ele>346.009979</ele>
<time>2025-01-08T10:27:25.772Z</time>
</trkpt>
<trkpt lat="31.3581300" lon="35.2558400">
<ele>346.949982</ele>
<time>2025-01-08T10:27:25.772Z</time>
</trkpt>
<trkpt lat="31.3583400" lon="35.2554400">
<ele>346.720001</ele>
<time>2025-01-08T10:27:25.772Z</time>
</trkpt>
<trkpt lat="31.3585100" lon="35.2551600">
<ele>348.329987</ele>
<time>2025-01-08T10:27:25.772Z</time>
</trkpt>
<trkpt lat="31.3585300" lon="35.2550200">
<ele>347.679993</ele>
<time>2025-01-08T10:27:25.772Z</time>
</trkpt>
<trkpt lat="31.3586100" lon="35.2545500">
<ele>346.739990</ele>
<time>2025-01-08T10:27:25.772Z</time>
</trkpt>
<trkpt lat="31.3587100" lon="35.2539900">
<ele>348.160004</ele>
<time>2025-01-08T10:27:25.772Z</time>
</trkpt>
<trkpt lat="31.3587300" lon="35.2536600">
<ele>352.890015</ele>
<time>2025-01-08T10:27:25.772Z</time>
</trkpt>
<trkpt lat="31.3588000" lon="35.2532900">
<ele>358.490021</ele>
<time>2025-01-08T10:27:25.772Z</time>
</trkpt>
<trkpt lat="31.3588900" lon="35.2529700">
<ele>361.020020</ele>
<time>2025-01-08T10:27:25.772Z</time>
</trkpt>
<trkpt lat="31.3589500" lon="35.2526900">
<ele>361.610016</ele>
<time>2025-01-08T10:27:25.772Z</time>
</trkpt>
<trkpt lat="31.3590500" lon="35.2523400">
<ele>362.480011</ele>
<time>2025-01-08T10:27:25.772Z</time>
</trkpt>
<trkpt lat="31.3592800" lon="35.2521500">
<ele>365.399994</ele>
<time>2025-01-08T10:27:25.772Z</time>
</trkpt>
<trkpt lat="31.3594700" lon="35.2520400">
<ele>367.079987</ele>
<time>2025-01-08T10:27:25.772Z</time>
</trkpt>
<trkpt lat="31.3595500" lon="35.2520000">
<ele>369.389984</ele>
<time>2025-01-08T10:27:25.772Z</time>
</trkpt>
<trkpt lat="31.3596900" lon="35.2519000">
<ele>373.510010</ele>
<time>2025-01-08T10:27:25.772Z</time>
</trkpt>
<trkpt lat="31.3598600" lon="35.2517700">
<ele>371.940002</ele>
<time>2025-01-08T10:27:25.772Z</time>
</trkpt>
<trkpt lat="31.3599900" lon="35.2516800">
<ele>370.170013</ele>
<time>2025-01-08T10:27:25.772Z</time>
</trkpt>
<trkpt lat="31.3602000" lon="35.2515100">
<ele>374.790009</ele>
<time>2025-01-08T10:27:25.772Z</time>
</trkpt>
<trkpt lat="31.3604200" lon="35.2513500">
<ele>378.000000</ele>
<time>2025-01-08T10:27:25.772Z</time>
</trkpt>
<trkpt lat="31.3606900" lon="35.2512000">
<ele>380.880005</ele>
<time>2025-01-08T10:27:25.772Z</time>
</trkpt>
<trkpt lat="31.3610500" lon="35.2508800">
<ele>383.389984</ele>
<time>2025-01-08T10:27:25.772Z</time>
</trkpt>
<trkpt lat="31.3612100" lon="35.2507000">
<ele>385.779999</ele>
<time>2025-01-08T10:27:25.772Z</time>
</trkpt>
<trkpt lat="31.3614100" lon="35.2505500">
<ele>389.509979</ele>
<time>2025-01-08T10:27:25.772Z</time>
</trkpt>
<trkpt lat="31.3616300" lon="35.2504600">
<ele>393.839996</ele>
<time>2025-01-08T10:27:25.772Z</time>
</trkpt>
<trkpt lat="31.3618200" lon="35.2503700">
<ele>396.269989</ele>
<time>2025-01-08T10:27:25.772Z</time>
</trkpt>
<trkpt lat="31.3620100" lon="35.2503900">
<ele>399.559998</ele>
<time>2025-01-08T10:27:25.772Z</time>
</trkpt>
<trkpt lat="31.3622100" lon="35.2504300">
<ele>401.869995</ele>
<time>2025-01-08T10:27:25.772Z</time>
</trkpt>
<trkpt lat="31.3624500" lon="35.2503600">
<ele>406.920013</ele>
<time>2025-01-08T10:27:25.772Z</time>
</trkpt>
<trkpt lat="31.3625100" lon="35.2503300">
<ele>408.220001</ele>
<time>2025-01-08T10:27:25.772Z</time>
</trkpt>
<trkpt lat="31.3625400" lon="35.2503000">
<ele>408.880005</ele>
<time>2025-01-08T10:27:25.772Z</time>
</trkpt>
<trkpt lat="31.3625700" lon="35.2502800">
<ele>409.510010</ele>
<time>2025-01-08T10:27:25.772Z</time>
</trkpt>
<trkpt lat="31.3627000" lon="35.2501400">
<ele>412.319977</ele>
<time>2025-01-08T10:27:25.772Z</time>
</trkpt>
<trkpt lat="31.3628700" lon="35.2500400">
<ele>414.380005</ele>
<time>2025-01-08T10:27:25.772Z</time>
</trkpt>
<trkpt lat="31.3630400" lon="35.2500200">
<ele>415.010010</ele>
<time>2025-01-08T10:27:25.772Z</time>
</trkpt>
<trkpt lat="31.3631900" lon="35.2500200">
<ele>412.059998</ele>
<time>2025-01-08T10:27:25.772Z</time>
</trkpt>
<trkpt lat="31.3633500" lon="35.2499200">
<ele>410.269989</ele>
<time>2025-01-08T10:27:25.772Z</time>
</trkpt>
<trkpt lat="31.3633600" lon="35.2497500">
<ele>413.460022</ele>
<time>2025-01-08T10:27:25.772Z</time>
</trkpt>
<trkpt lat="31.3632700" lon="35.2494700">
<ele>413.790009</ele>
<time>2025-01-08T10:27:25.772Z</time>
</trkpt>
<trkpt lat="31.3631700" lon="35.2491500">
<ele>412.260010</ele>
<time>2025-01-08T10:27:25.772Z</time>
</trkpt>
<trkpt lat="31.3630500" lon="35.2489700">
<ele>410.989990</ele>
<time>2025-01-08T10:27:25.772Z</time>
</trkpt>
<trkpt lat="31.3629800" lon="35.2488700">
<ele>410.850006</ele>
<time>2025-01-08T10:27:25.772Z</time>
</trkpt>
<trkpt lat="31.3628300" lon="35.2484800">
<ele>411.940002</ele>
<time>2025-01-08T10:27:25.772Z</time>
</trkpt>
<trkpt lat="31.3626600" lon="35.2480600">
<ele>414.419983</ele>
<time>2025-01-08T10:27:25.772Z</time>
</trkpt>
<trkpt lat="31.3625200" lon="35.2476800">
<ele>416.149994</ele>
<time>2025-01-08T10:27:25.772Z</time>
</trkpt>
<trkpt lat="31.3624800" lon="35.2475600">
<ele>417.309998</ele>
<time>2025-01-08T10:27:25.772Z</time>
</trkpt>
<trkpt lat="31.3624800" lon="35.2475500">
<ele>417.409973</ele>
<time>2025-01-08T10:27:25.772Z</time>
</trkpt>
<trkpt lat="31.3624100" lon="35.2474700">
<ele>417.779999</ele>
<time>2025-01-08T10:27:25.772Z</time>
</trkpt>
<trkpt lat="31.3622400" lon="35.2472700">
<ele>419.389984</ele>
<time>2025-01-08T10:27:25.772Z</time>
</trkpt>
<trkpt lat="31.3620200" lon="35.2471200">
<ele>422.559998</ele>
<time>2025-01-08T10:27:25.772Z</time>
</trkpt>
<trkpt lat="31.3618100" lon="35.2469900">
<ele>423.140015</ele>
<time>2025-01-08T10:27:25.772Z</time>
</trkpt>
<trkpt lat="31.3615800" lon="35.2467200">
<ele>425.159973</ele>
<time>2025-01-08T10:27:25.772Z</time>
</trkpt>
<trkpt lat="31.3614700" lon="35.2464400">
<ele>427.559998</ele>
<time>2025-01-08T10:27:25.772Z</time>
</trkpt>
<trkpt lat="31.3612200" lon="35.2461400">
<ele>429.399994</ele>
<time>2025-01-08T10:27:25.772Z</time>
</trkpt>
<trkpt lat="31.3610200" lon="35.2458000">
<ele>430.039978</ele>
<time>2025-01-08T10:27:25.772Z</time>
</trkpt>
<trkpt lat="31.3608900" lon="35.2455200">
<ele>429.410004</ele>
<time>2025-01-08T10:27:25.772Z</time>
</trkpt>
<trkpt lat="31.3608800" lon="35.2452300">
<ele>429.820007</ele>
<time>2025-01-08T10:27:25.772Z</time>
</trkpt>
<trkpt lat="31.3610300" lon="35.2450600">
<ele>432.210022</ele>
<time>2025-01-08T10:27:25.772Z</time>
</trkpt>
<trkpt lat="31.3612400" lon="35.2448700">
<ele>434.610016</ele>
<time>2025-01-08T10:27:25.772Z</time>
</trkpt>
<trkpt lat="31.3614300" lon="35.2446600">
<ele>437.180023</ele>
<time>2025-01-08T10:27:25.772Z</time>
</trkpt>
<trkpt lat="31.3615300" lon="35.2445100">
<ele>437.899994</ele>
<time>2025-01-08T10:27:25.772Z</time>
</trkpt>
<trkpt lat="31.3616000" lon="35.2444200">
<ele>438.850006</ele>
<time>2025-01-08T10:27:25.772Z</time>
</trkpt>
<trkpt lat="31.3616700" lon="35.2443500">
<ele>440.359985</ele>
<time>2025-01-08T10:27:25.772Z</time>
</trkpt>
<trkpt lat="31.3618400" lon="35.2442100">
<ele>442.380005</ele>
<time>2025-01-08T10:27:25.772Z</time>
</trkpt>
<trkpt lat="31.3621400" lon="35.2441000">
<ele>444.240021</ele>
<time>2025-01-08T10:27:25.772Z</time>
</trkpt>
<trkpt lat="31.3622700" lon="35.2440800">
<ele>444.970001</ele>
<time>2025-01-08T10:27:25.772Z</time>
</trkpt>
<trkpt lat="31.3625200" lon="35.2440200">
<ele>446.459991</ele>
<time>2025-01-08T10:27:25.772Z</time>
</trkpt>
<trkpt lat="31.3626400" lon="35.2440000">
<ele>446.099976</ele>
<time>2025-01-08T10:27:25.772Z</time>
</trkpt>
<trkpt lat="31.3628800" lon="35.2439800">
<ele>445.669983</ele>
<time>2025-01-08T10:27:25.772Z</time>
</trkpt>
<trkpt lat="31.3631200" lon="35.2440000">
<ele>446.359985</ele>
<time>2025-01-08T10:27:25.772Z</time>
</trkpt>
<trkpt lat="31.3632400" lon="35.2439600">
<ele>447.010010</ele>
<time>2025-01-08T10:27:25.772Z</time>
</trkpt>
<trkpt lat="31.3633200" lon="35.2438800">
<ele>446.839996</ele>
<time>2025-01-08T10:27:25.772Z</time>
</trkpt>
<trkpt lat="31.3634200" lon="35.2437300">
<ele>447.279999</ele>
<time>2025-01-08T10:27:25.772Z</time>
</trkpt>
<trkpt lat="31.3636800" lon="35.2433500">
<ele>449.029999</ele>
<time>2025-01-08T10:27:25.772Z</time>
</trkpt>
<trkpt lat="31.3639000" lon="35.2432200">
<ele>448.500000</ele>
<time>2025-01-08T10:27:25.772Z</time>
</trkpt>
<trkpt lat="31.3640600" lon="35.2432900">
<ele>447.190002</ele>
<time>2025-01-08T10:27:25.772Z</time>
</trkpt>
<trkpt lat="31.3642900" lon="35.2433500">
<ele>443.589996</ele>
<time>2025-01-08T10:27:25.772Z</time>
</trkpt>
<trkpt lat="31.3645900" lon="35.2433500">
<ele>439.830017</ele>
<time>2025-01-08T10:27:25.772Z</time>
</trkpt>
<trkpt lat="31.3646700" lon="35.2433500">
<ele>439.260010</ele>
<time>2025-01-08T10:27:25.772Z</time>
</trkpt>
<trkpt lat="31.3647400" lon="35.2433500">
<ele>439.329987</ele>
<time>2025-01-08T10:27:25.772Z</time>
</trkpt>
<trkpt lat="31.3650800" lon="35.2434100">
<ele>446.510010</ele>
<time>2025-01-08T10:27:25.772Z</time>
</trkpt>
<trkpt lat="31.3652800" lon="35.2436400">
<ele>446.880005</ele>
<time>2025-01-08T10:27:25.772Z</time>
</trkpt>
<trkpt lat="31.3655400" lon="35.2437200">
<ele>445.089996</ele>
<time>2025-01-08T10:27:25.772Z</time>
</trkpt>
<trkpt lat="31.3656900" lon="35.2438000">
<ele>445.660004</ele>
<time>2025-01-08T10:27:25.772Z</time>
</trkpt>
<trkpt lat="31.3659600" lon="35.2438800">
<ele>446.970001</ele>
<time>2025-01-08T10:27:25.772Z</time>
</trkpt>
<trkpt lat="31.3660900" lon="35.2438900">
<ele>446.980011</ele>
<time>2025-01-08T10:27:25.772Z</time>
</trkpt>
<trkpt lat="31.3663700" lon="35.2438900">
<ele>446.980011</ele>
<time>2025-01-08T10:27:25.772Z</time>
</trkpt>
<trkpt lat="31.3664300" lon="35.2439600">
<ele>446.130005</ele>
<time>2025-01-08T10:27:25.772Z</time>
</trkpt>
<trkpt lat="31.3664900" lon="35.2443500">
<ele>444.710022</ele>
<time>2025-01-08T10:27:25.772Z</time>
</trkpt>
<trkpt lat="31.3665800" lon="35.2446600">
<ele>451.319977</ele>
<time>2025-01-08T10:27:25.772Z</time>
</trkpt>
<trkpt lat="31.3666200" lon="35.2447800">
<ele>453.329987</ele>
<time>2025-01-08T10:27:25.772Z</time>
</trkpt>
<trkpt lat="31.3666500" lon="35.2449000">
<ele>453.759979</ele>
<time>2025-01-08T10:27:25.772Z</time>
</trkpt>
<trkpt lat="31.3667600" lon="35.2451500">
<ele>452.429993</ele>
<time>2025-01-08T10:27:25.772Z</time>
</trkpt>
<trkpt lat="31.3667900" lon="35.2452300">
<ele>451.820007</ele>
<time>2025-01-08T10:27:25.772Z</time>
</trkpt>
<trkpt lat="31.3669500" lon="35.2455700">
<ele>449.800018</ele>
<time>2025-01-08T10:27:25.772Z</time>
</trkpt>
<trkpt lat="31.3670300" lon="35.2457500">
<ele>447.059998</ele>
<time>2025-01-08T10:27:25.772Z</time>
</trkpt>
<trkpt lat="31.3670600" lon="35.2462500">
<ele>442.130005</ele>
<time>2025-01-08T10:27:25.772Z</time>
</trkpt>
<trkpt lat="31.3670100" lon="35.2464300">
<ele>443.589996</ele>
<time>2025-01-08T10:27:25.772Z</time>
</trkpt>
<trkpt lat="31.3667400" lon="35.2472100">
<ele>443.980011</ele>
<time>2025-01-08T10:27:25.772Z</time>
</trkpt>
<trkpt lat="31.3667100" lon="35.2472900">
<ele>444.129974</ele>
<time>2025-01-08T10:27:25.772Z</time>
</trkpt>
<trkpt lat="31.3666700" lon="35.2478200">
<ele>437.250000</ele>
<time>2025-01-08T10:27:25.772Z</time>
</trkpt>
<trkpt lat="31.3666800" lon="35.2482000">
<ele>431.979980</ele>
<time>2025-01-08T10:27:25.772Z</time>
</trkpt>
<trkpt lat="31.3667000" lon="35.2484000">
<ele>430.070007</ele>
<time>2025-01-08T10:27:25.772Z</time>
</trkpt>
<trkpt lat="31.3667100" lon="35.2486000">
<ele>427.309998</ele>
<time>2025-01-08T10:27:25.772Z</time>
</trkpt>
<trkpt lat="31.3668600" lon="35.2489700">
<ele>426.209991</ele>
<time>2025-01-08T10:27:25.772Z</time>
</trkpt>
<trkpt lat="31.3669200" lon="35.2490700">
<ele>426.709991</ele>
<time>2025-01-08T10:27:25.772Z</time>
</trkpt>
<trkpt lat="31.3669700" lon="35.2491800">
<ele>426.570007</ele>
<time>2025-01-08T10:27:25.772Z</time>
</trkpt>
<trkpt lat="31.3669500" lon="35.2496000">
<ele>420.530029</ele>
<time>2025-01-08T10:27:25.772Z</time>
</trkpt>
<trkpt lat="31.3669500" lon="35.2496800">
<ele>418.809998</ele>
<time>2025-01-08T10:27:25.772Z</time>
</trkpt>
<trkpt lat="31.3670100" lon="35.2498400">
<ele>415.099976</ele>
<time>2025-01-08T10:27:25.772Z</time>
</trkpt>
<trkpt lat="31.3670200" lon="35.2501700">
<ele>410.779999</ele>
<time>2025-01-08T10:27:25.772Z</time>
</trkpt>
<trkpt lat="31.3669300" lon="35.2505300">
<ele>408.750000</ele>
<time>2025-01-08T10:27:25.772Z</time>
</trkpt>
<trkpt lat="31.3668500" lon="35.2508700">
<ele>404.799988</ele>
<time>2025-01-08T10:27:25.772Z</time>
</trkpt>
<trkpt lat="31.3668800" lon="35.2511500">
<ele>402.059998</ele>
<time>2025-01-08T10:27:25.772Z</time>
</trkpt>
<trkpt lat="31.3669800" lon="35.2513600">
<ele>403.000000</ele>
<time>2025-01-08T10:27:25.772Z</time>
</trkpt>
<trkpt lat="31.3670800" lon="35.2514800">
<ele>402.939972</ele>
<time>2025-01-08T10:27:25.772Z</time>
</trkpt>
<trkpt lat="31.3673000" lon="35.2519000">
<ele>399.859985</ele>
<time>2025-01-08T10:27:25.772Z</time>
</trkpt>
<trkpt lat="31.3673400" lon="35.2519700">
<ele>399.279999</ele>
<time>2025-01-08T10:27:25.772Z</time>
</trkpt>
<trkpt lat="31.3675400" lon="35.2522800">
<ele>398.539978</ele>
<time>2025-01-08T10:27:25.772Z</time>
</trkpt>
<trkpt lat="31.3675900" lon="35.2523600">
<ele>397.869995</ele>
<time>2025-01-08T10:27:25.772Z</time>
</trkpt>
<trkpt lat="31.3677200" lon="35.2525200">
<ele>395.589996</ele>
<time>2025-01-08T10:27:25.772Z</time>
</trkpt>
<trkpt lat="31.3677700" lon="35.2525700">
<ele>394.129974</ele>
<time>2025-01-08T10:27:25.772Z</time>
</trkpt>
<trkpt lat="31.3679400" lon="35.2527100">
<ele>387.459991</ele>
<time>2025-01-08T10:27:25.772Z</time>
</trkpt>
<trkpt lat="31.3681000" lon="35.2528300">
<ele>383.230011</ele>
<time>2025-01-08T10:27:25.772Z</time>
</trkpt>
<trkpt lat="31.3681800" lon="35.2528700">
<ele>382.170013</ele>
<time>2025-01-08T10:27:25.772Z</time>
</trkpt>
<trkpt lat="31.3682700" lon="35.2529100">
<ele>381.170013</ele>
<time>2025-01-08T10:27:25.772Z</time>
</trkpt>
<trkpt lat="31.3683700" lon="35.2529400">
<ele>380.880005</ele>
<time>2025-01-08T10:27:25.772Z</time>
</trkpt>
<trkpt lat="31.3686600" lon="35.2531300">
<ele>383.670013</ele>
<time>2025-01-08T10:27:25.772Z</time>
</trkpt>
<trkpt lat="31.3690600" lon="35.2533300">
<ele>390.640015</ele>
<time>2025-01-08T10:27:25.772Z</time>
</trkpt>
<trkpt lat="31.3694000" lon="35.2533100">
<ele>391.169983</ele>
<time>2025-01-08T10:27:25.772Z</time>
</trkpt>
<trkpt lat="31.3696000" lon="35.2532100">
<ele>393.569977</ele>
<time>2025-01-08T10:27:25.772Z</time>
</trkpt>
<trkpt lat="31.3696400" lon="35.2532000">
<ele>394.070007</ele>
<time>2025-01-08T10:27:25.772Z</time>
</trkpt>
<trkpt lat="31.3697400" lon="35.2531700">
<ele>395.239990</ele>
<time>2025-01-08T10:27:25.772Z</time>
</trkpt>
<trkpt lat="31.3698600" lon="35.2531400">
<ele>395.889984</ele>
<time>2025-01-08T10:27:25.772Z</time>
</trkpt>
<trkpt lat="31.3701500" lon="35.2531200">
<ele>395.329987</ele>
<time>2025-01-08T10:27:25.772Z</time>
</trkpt>
<trkpt lat="31.3703200" lon="35.2531200">
<ele>393.540009</ele>
<time>2025-01-08T10:27:25.772Z</time>
</trkpt>
<trkpt lat="31.3704400" lon="35.2531300">
<ele>391.279999</ele>
<time>2025-01-08T10:27:25.772Z</time>
</trkpt>
<trkpt lat="31.3705500" lon="35.2531400">
<ele>389.190002</ele>
<time>2025-01-08T10:27:25.772Z</time>
</trkpt>
<trkpt lat="31.3707800" lon="35.2532100">
<ele>387.520020</ele>
<time>2025-01-08T10:27:25.772Z</time>
</trkpt>
<trkpt lat="31.3709500" lon="35.2533000">
<ele>386.830017</ele>
<time>2025-01-08T10:27:25.772Z</time>
</trkpt>
<trkpt lat="31.3712000" lon="35.2534200">
<ele>387.130005</ele>
<time>2025-01-08T10:27:25.772Z</time>
</trkpt>
<trkpt lat="31.3714200" lon="35.2534300">
<ele>390.250000</ele>
<time>2025-01-08T10:27:25.772Z</time>
</trkpt>
<trkpt lat="31.3715400" lon="35.2534200">
<ele>391.529999</ele>
<time>2025-01-08T10:27:25.772Z</time>
</trkpt>
<trkpt lat="31.3716800" lon="35.2533500">
<ele>393.369995</ele>
<time>2025-01-08T10:27:25.772Z</time>
</trkpt>
<trkpt lat="31.3718700" lon="35.2533500">
<ele>387.820007</ele>
<time>2025-01-08T10:27:25.772Z</time>
</trkpt>
<trkpt lat="31.3719300" lon="35.2533800">
<ele>385.430023</ele>
<time>2025-01-08T10:27:25.772Z</time>
</trkpt>
<trkpt lat="31.3720300" lon="35.2534400">
<ele>381.889984</ele>
<time>2025-01-08T10:27:25.772Z</time>
</trkpt>
<trkpt lat="31.3721000" lon="35.2534800">
<ele>379.799988</ele>
<time>2025-01-08T10:27:25.772Z</time>
</trkpt>
<trkpt lat="31.3721500" lon="35.2535200">
<ele>378.280029</ele>
<time>2025-01-08T10:27:25.772Z</time>
</trkpt>
<trkpt lat="31.3722500" lon="35.2536200">
<ele>375.549988</ele>
<time>2025-01-08T10:27:25.772Z</time>
</trkpt>
<trkpt lat="31.3723000" lon="35.2537000">
<ele>373.829987</ele>
<time>2025-01-08T10:27:25.772Z</time>
</trkpt>
<trkpt lat="31.3723700" lon="35.2538800">
<ele>371.109985</ele>
<time>2025-01-08T10:27:25.772Z</time>
</trkpt>
<trkpt lat="31.3724400" lon="35.2540400">
<ele>370.879974</ele>
<time>2025-01-08T10:27:25.772Z</time>
</trkpt>
<trkpt lat="31.3725200" lon="35.2542200">
<ele>371.540009</ele>
<time>2025-01-08T10:27:25.772Z</time>
</trkpt>
<trkpt lat="31.3725900" lon="35.2543300">
<ele>372.389984</ele>
<time>2025-01-08T10:27:25.772Z</time>
</trkpt>
<trkpt lat="31.3727400" lon="35.2543300">
<ele>372.739990</ele>
<time>2025-01-08T10:27:25.772Z</time>
</trkpt>
<trkpt lat="31.3729400" lon="35.2541700">
<ele>375.140015</ele>
<time>2025-01-08T10:27:25.772Z</time>
</trkpt>
<trkpt lat="31.3730900" lon="35.2541300">
<ele>376.640015</ele>
<time>2025-01-08T10:27:25.772Z</time>
</trkpt>
<trkpt lat="31.3732600" lon="35.2542200">
<ele>376.019989</ele>
<time>2025-01-08T10:27:25.772Z</time>
</trkpt>
<trkpt lat="31.3733200" lon="35.2542400">
<ele>375.910004</ele>
<time>2025-01-08T10:27:25.772Z</time>
</trkpt>
<trkpt lat="31.3734300" lon="35.2543400">
<ele>374.940002</ele>
<time>2025-01-08T10:27:25.772Z</time>
</trkpt>
<trkpt lat="31.3735700" lon="35.2544500">
<ele>374.709991</ele>
<time>2025-01-08T10:27:25.772Z</time>
</trkpt>
<trkpt lat="31.3736800" lon="35.2546800">
<ele>375.950012</ele>
<time>2025-01-08T10:27:25.772Z</time>
</trkpt>
<trkpt lat="31.3737500" lon="35.2549500">
<ele>378.230011</ele>
<time>2025-01-08T10:27:25.772Z</time>
</trkpt>
<trkpt lat="31.3737700" lon="35.2552500">
<ele>380.000000</ele>
<time>2025-01-08T10:27:25.772Z</time>
</trkpt>
<trkpt lat="31.3738200" lon="35.2554900">
<ele>379.929993</ele>
<time>2025-01-08T10:27:25.772Z</time>
</trkpt>
<trkpt lat="31.3740300" lon="35.2557800">
<ele>380.209991</ele>
<time>2025-01-08T10:27:25.772Z</time>
</trkpt>
<trkpt lat="31.3741800" lon="35.2560300">
<ele>380.890015</ele>
<time>2025-01-08T10:27:25.772Z</time>
</trkpt>
<trkpt lat="31.3743200" lon="35.2561300">
<ele>383.849976</ele>
<time>2025-01-08T10:27:25.772Z</time>
</trkpt>
<trkpt lat="31.3744200" lon="35.2562100">
<ele>385.800018</ele>
<time>2025-01-08T10:27:25.772Z</time>
</trkpt>
<trkpt lat="31.3744400" lon="35.2563000">
<ele>385.569977</ele>
<time>2025-01-08T10:27:25.772Z</time>
</trkpt>
<trkpt lat="31.3745500" lon="35.2566000">
<ele>381.579987</ele>
<time>2025-01-08T10:27:25.772Z</time>
</trkpt>
<trkpt lat="31.3749100" lon="35.2568200">
<ele>381.850006</ele>
<time>2025-01-08T10:27:25.772Z</time>
</trkpt>
<trkpt lat="31.3751700" lon="35.2569600">
<ele>384.720001</ele>
<time>2025-01-08T10:27:25.772Z</time>
</trkpt>
<trkpt lat="31.3751900" lon="35.2570000">
<ele>385.229980</ele>
<time>2025-01-08T10:27:25.772Z</time>
</trkpt>
<trkpt lat="31.3751600" lon="35.2570700">
<ele>384.839996</ele>
<time>2025-01-08T10:27:25.772Z</time>
</trkpt>
<trkpt lat="31.3751000" lon="35.2571600">
<ele>384.149994</ele>
<time>2025-01-08T10:27:25.772Z</time>
</trkpt>
<trkpt lat="31.3751100" lon="35.2574600">
<ele>386.470001</ele>
<time>2025-01-08T10:27:25.772Z</time>
</trkpt>
<trkpt lat="31.3753400" lon="35.2578100">
<ele>391.779999</ele>
<time>2025-01-08T10:27:25.772Z</time>
</trkpt>
<trkpt lat="31.3755600" lon="35.2580100">
<ele>392.190002</ele>
<time>2025-01-08T10:27:25.772Z</time>
</trkpt>
<trkpt lat="31.3758500" lon="35.2582200">
<ele>390.929993</ele>
<time>2025-01-08T10:27:25.772Z</time>
</trkpt>
<trkpt lat="31.3760600" lon="35.2584300">
<ele>391.720001</ele>
<time>2025-01-08T10:27:25.772Z</time>
</trkpt>
<trkpt lat="31.3762000" lon="35.2586100">
<ele>389.660004</ele>
<time>2025-01-08T10:27:25.772Z</time>
</trkpt>
<trkpt lat="31.3762900" lon="35.2590000">
<ele>386.320007</ele>
<time>2025-01-08T10:27:25.772Z</time>
</trkpt>
<trkpt lat="31.3760900" lon="35.2592200">
<ele>387.750000</ele>
<time>2025-01-08T10:27:25.772Z</time>
</trkpt>
<trkpt lat="31.3760900" lon="35.2594800">
<ele>388.680023</ele>
<time>2025-01-08T10:27:25.772Z</time>
</trkpt>
<trkpt lat="31.3761400" lon="35.2597600">
<ele>387.470001</ele>
<time>2025-01-08T10:27:25.772Z</time>
</trkpt>
<trkpt lat="31.3761300" lon="35.2599100">
<ele>387.610016</ele>
<time>2025-01-08T10:27:25.772Z</time>
</trkpt>
<trkpt lat="31.3761900" lon="35.2603200">
<ele>387.119995</ele>
<time>2025-01-08T10:27:25.772Z</time>
</trkpt>
<trkpt lat="31.3761100" lon="35.2604400">
<ele>389.179993</ele>
<time>2025-01-08T10:27:25.772Z</time>
</trkpt>
<trkpt lat="31.3760500" lon="35.2606300">
<ele>390.860016</ele>
<time>2025-01-08T10:27:25.772Z</time>
</trkpt>
<trkpt lat="31.3760600" lon="35.2608100">
<ele>391.859985</ele>
<time>2025-01-08T10:27:25.772Z</time>
</trkpt>
<trkpt lat="31.3760200" lon="35.2612600">
<ele>389.600006</ele>
<time>2025-01-08T10:27:25.772Z</time>
</trkpt>
<trkpt lat="31.3759700" lon="35.2614400">
<ele>387.480011</ele>
<time>2025-01-08T10:27:25.772Z</time>
</trkpt>
<trkpt lat="31.3759600" lon="35.2616800">
<ele>382.550018</ele>
<time>2025-01-08T10:27:25.772Z</time>
</trkpt>
<trkpt lat="31.3759800" lon="35.2619600">
<ele>377.550018</ele>
<time>2025-01-08T10:27:25.772Z</time>
</trkpt>
<trkpt lat="31.3760000" lon="35.2622200">
<ele>375.620026</ele>
<time>2025-01-08T10:27:25.772Z</time>
</trkpt>
<trkpt lat="31.3759900" lon="35.2623200">
<ele>374.680023</ele>
<time>2025-01-08T10:27:25.772Z</time>
</trkpt>
<trkpt lat="31.3759300" lon="35.2625400">
<ele>371.940002</ele>
<time>2025-01-08T10:27:25.772Z</time>
</trkpt>
<trkpt lat="31.3759200" lon="35.2626200">
<ele>371.470001</ele>
<time>2025-01-08T10:27:25.772Z</time>
</trkpt>
<trkpt lat="31.3758700" lon="35.2628100">
<ele>370.470001</ele>
<time>2025-01-08T10:27:25.772Z</time>
</trkpt>
<trkpt lat="31.3756100" lon="35.2630400">
<ele>370.089996</ele>
<time>2025-01-08T10:27:25.772Z</time>
</trkpt>
<trkpt lat="31.3753800" lon="35.2632700">
<ele>370.850006</ele>
<time>2025-01-08T10:27:25.772Z</time>
</trkpt>
<trkpt lat="31.3752700" lon="35.2635700">
<ele>371.699982</ele>
<time>2025-01-08T10:27:25.772Z</time>
</trkpt>
<trkpt lat="31.3751600" lon="35.2637800">
<ele>373.820007</ele>
<time>2025-01-08T10:27:25.772Z</time>
</trkpt>
<trkpt lat="31.3750400" lon="35.2639500">
<ele>375.440002</ele>
<time>2025-01-08T10:27:25.772Z</time>
</trkpt>
<trkpt lat="31.3750200" lon="35.2640600">
<ele>376.229980</ele>
<time>2025-01-08T10:27:25.772Z</time>
</trkpt>
<trkpt lat="31.3750100" lon="35.2641100">
<ele>376.589996</ele>
<time>2025-01-08T10:27:25.772Z</time>
</trkpt>
<trkpt lat="31.3749900" lon="35.2641900">
<ele>377.120026</ele>
<time>2025-01-08T10:27:25.772Z</time>
</trkpt>
<trkpt lat="31.3749600" lon="35.2642700">
<ele>377.460022</ele>
<time>2025-01-08T10:27:25.772Z</time>
</trkpt>
<trkpt lat="31.3748800" lon="35.2643900">
<ele>377.890015</ele>
<time>2025-01-08T10:27:25.772Z</time>
</trkpt>
<trkpt lat="31.3748100" lon="35.2646900">
<ele>378.280029</ele>
<time>2025-01-08T10:27:25.772Z</time>
</trkpt>
<trkpt lat="31.3747900" lon="35.2648300">
<ele>377.559998</ele>
<time>2025-01-08T10:27:25.772Z</time>
</trkpt>
<trkpt lat="31.3748000" lon="35.2649800">
<ele>376.679993</ele>
<time>2025-01-08T10:27:25.772Z</time>
</trkpt>
<trkpt lat="31.3748800" lon="35.2652700">
<ele>375.610016</ele>
<time>2025-01-08T10:27:25.772Z</time>
</trkpt>
<trkpt lat="31.3749700" lon="35.2655900">
<ele>371.609985</ele>
<time>2025-01-08T10:27:25.772Z</time>
</trkpt>
<trkpt lat="31.3750100" lon="35.2657300">
<ele>369.849976</ele>
<time>2025-01-08T10:27:25.772Z</time>
</trkpt>
<trkpt lat="31.3751000" lon="35.2663000">
<ele>361.600006</ele>
<time>2025-01-08T10:27:25.772Z</time>
</trkpt>
<trkpt lat="31.3751100" lon="35.2664100">
<ele>360.170013</ele>
<time>2025-01-08T10:27:25.772Z</time>
</trkpt>
<trkpt lat="31.3751100" lon="35.2665300">
<ele>357.579987</ele>
<time>2025-01-08T10:27:25.772Z</time>
</trkpt>
<trkpt lat="31.3750900" lon="35.2667000">
<ele>354.050018</ele>
<time>2025-01-08T10:27:25.772Z</time>
</trkpt>
<trkpt lat="31.3750700" lon="35.2670100">
<ele>344.809998</ele>
<time>2025-01-08T10:27:25.772Z</time>
</trkpt>
<trkpt lat="31.3750700" lon="35.2671400">
<ele>340.480011</ele>
<time>2025-01-08T10:27:25.772Z</time>
</trkpt>
<trkpt lat="31.3750600" lon="35.2673000">
<ele>335.940002</ele>
<time>2025-01-08T10:27:25.772Z</time>
</trkpt>
<trkpt lat="31.3750500" lon="35.2673900">
<ele>333.809998</ele>
<time>2025-01-08T10:27:25.772Z</time>
</trkpt>
<trkpt lat="31.3749800" lon="35.2676200">
<ele>330.830017</ele>
<time>2025-01-08T10:27:25.772Z</time>
</trkpt>
<trkpt lat="31.3749100" lon="35.2677600">
<ele>330.769989</ele>
<time>2025-01-08T10:27:25.772Z</time>
</trkpt>
<trkpt lat="31.3748900" lon="35.2678300">
<ele>330.559998</ele>
<time>2025-01-08T10:27:25.772Z</time>
</trkpt>
<trkpt lat="31.3748700" lon="35.2679100">
<ele>330.429993</ele>
<time>2025-01-08T10:27:25.772Z</time>
</trkpt>
<trkpt lat="31.3748700" lon="35.2679700">
<ele>330.200012</ele>
<time>2025-01-08T10:27:25.772Z</time>
</trkpt>
<trkpt lat="31.3748900" lon="35.2680600">
<ele>329.529999</ele>
<time>2025-01-08T10:27:25.772Z</time>
</trkpt>
<trkpt lat="31.3749500" lon="35.2682000">
<ele>326.730011</ele>
<time>2025-01-08T10:27:25.772Z</time>
</trkpt>
<trkpt lat="31.3750400" lon="35.2683700">
<ele>323.459991</ele>
<time>2025-01-08T10:27:25.772Z</time>
</trkpt>
<trkpt lat="31.3750300" lon="35.2685000">
<ele>322.089996</ele>
<time>2025-01-08T10:27:25.772Z</time>
</trkpt>
<trkpt lat="31.3751200" lon="35.2687300">
<ele>320.630005</ele>
<time>2025-01-08T10:27:25.772Z</time>
</trkpt>
<trkpt lat="31.3751700" lon="35.2690400">
<ele>317.690002</ele>
<time>2025-01-08T10:27:25.772Z</time>
</trkpt>
<trkpt lat="31.3751400" lon="35.2693000">
<ele>313.110016</ele>
<time>2025-01-08T10:27:25.772Z</time>
</trkpt>
<trkpt lat="31.3751000" lon="35.2693900">
<ele>310.889984</ele>
<time>2025-01-08T10:27:25.772Z</time>
</trkpt>
<trkpt lat="31.3750800" lon="35.2694500">
<ele>309.410004</ele>
<time>2025-01-08T10:27:25.772Z</time>
</trkpt>
<trkpt lat="31.3750100" lon="35.2696800">
<ele>308.029999</ele>
<time>2025-01-08T10:27:25.772Z</time>
</trkpt>
<trkpt lat="31.3749900" lon="35.2697700">
<ele>306.630005</ele>
<time>2025-01-08T10:27:25.772Z</time>
</trkpt>
<trkpt lat="31.3749800" lon="35.2698200">
<ele>305.250000</ele>
<time>2025-01-08T10:27:25.772Z</time>
</trkpt>
<trkpt lat="31.3750600" lon="35.2699100">
<ele>305.020020</ele>
<time>2025-01-08T10:27:25.772Z</time>
</trkpt>
<trkpt lat="31.3751400" lon="35.2699100">
<ele>307.359985</ele>
<time>2025-01-08T10:27:25.772Z</time>
</trkpt>
<trkpt lat="31.3751900" lon="35.2698900">
<ele>308.729980</ele>
<time>2025-01-08T10:27:25.772Z</time>
</trkpt>
<trkpt lat="31.3752500" lon="35.2699000">
<ele>310.429993</ele>
<time>2025-01-08T10:27:25.772Z</time>
</trkpt>
<trkpt lat="31.3754800" lon="35.2700000">
<ele>320.279999</ele>
<time>2025-01-08T10:27:25.772Z</time>
</trkpt>
<trkpt lat="31.3756700" lon="35.2699800">
<ele>324.380005</ele>
<time>2025-01-08T10:27:25.772Z</time>
</trkpt>
<trkpt lat="31.3757400" lon="35.2699800">
<ele>325.440002</ele>
<time>2025-01-08T10:27:25.772Z</time>
</trkpt>
<trkpt lat="31.3758300" lon="35.2700000">
<ele>326.950012</ele>
<time>2025-01-08T10:27:25.772Z</time>
</trkpt>
<trkpt lat="31.3759100" lon="35.2700200">
<ele>327.680023</ele>
<time>2025-01-08T10:27:25.772Z</time>
</trkpt>
<trkpt lat="31.3760600" lon="35.2700300">
<ele>328.759979</ele>
<time>2025-01-08T10:27:25.772Z</time>
</trkpt>
<trkpt lat="31.3761300" lon="35.2700600">
<ele>329.109985</ele>
<time>2025-01-08T10:27:25.772Z</time>
</trkpt>
<trkpt lat="31.3762600" lon="35.2701400">
<ele>328.969971</ele>
<time>2025-01-08T10:27:25.772Z</time>
</trkpt>
<trkpt lat="31.3764600" lon="35.2704100">
<ele>330.230011</ele>
<time>2025-01-08T10:27:25.772Z</time>
</trkpt>
<trkpt lat="31.3765000" lon="35.2705000">
<ele>330.880005</ele>
<time>2025-01-08T10:27:25.772Z</time>
</trkpt>
<trkpt lat="31.3766500" lon="35.2707300">
<ele>333.519989</ele>
<time>2025-01-08T10:27:25.772Z</time>
</trkpt>
<trkpt lat="31.3768300" lon="35.2708600">
<ele>334.440002</ele>
<time>2025-01-08T10:27:25.772Z</time>
</trkpt>
<trkpt lat="31.3770100" lon="35.2710500">
<ele>333.779999</ele>
<time>2025-01-08T10:27:25.772Z</time>
</trkpt>
<trkpt lat="31.3771500" lon="35.2713000">
<ele>334.419983</ele>
<time>2025-01-08T10:27:25.772Z</time>
</trkpt>
<trkpt lat="31.3772700" lon="35.2715200">
<ele>337.010010</ele>
<time>2025-01-08T10:27:25.772Z</time>
</trkpt>
<trkpt lat="31.3773600" lon="35.2716800">
<ele>340.220001</ele>
<time>2025-01-08T10:27:25.772Z</time>
</trkpt>
<trkpt lat="31.3775000" lon="35.2718700">
<ele>345.660004</ele>
<time>2025-01-08T10:27:25.772Z</time>
</trkpt>
<trkpt lat="31.3774900" lon="35.2721200">
<ele>350.079987</ele>
<time>2025-01-08T10:27:25.772Z</time>
</trkpt>
<trkpt lat="31.3774700" lon="35.2722200">
<ele>351.850006</ele>
<time>2025-01-08T10:27:25.772Z</time>
</trkpt>
<trkpt lat="31.3774500" lon="35.2722500">
<ele>352.220001</ele>
<time>2025-01-08T10:27:25.772Z</time>
</trkpt>
<trkpt lat="31.3774000" lon="35.2723700">
<ele>353.769989</ele>
<time>2025-01-08T10:27:25.772Z</time>
</trkpt>
<trkpt lat="31.3774000" lon="35.2724700">
<ele>355.209991</ele>
<time>2025-01-08T10:27:25.772Z</time>
</trkpt>
<trkpt lat="31.3774000" lon="35.2725900">
<ele>356.400024</ele>
<time>2025-01-08T10:27:25.772Z</time>
</trkpt>
<trkpt lat="31.3774300" lon="35.2727300">
<ele>357.609985</ele>
<time>2025-01-08T10:27:25.772Z</time>
</trkpt>
<trkpt lat="31.3775000" lon="35.2729300">
<ele>356.899994</ele>
<time>2025-01-08T10:27:25.772Z</time>
</trkpt>
<trkpt lat="31.3775500" lon="35.2733900">
<ele>353.470001</ele>
<time>2025-01-08T10:27:25.772Z</time>
</trkpt>
<trkpt lat="31.3775200" lon="35.2735900">
<ele>350.660004</ele>
<time>2025-01-08T10:27:25.772Z</time>
</trkpt>
<trkpt lat="31.3775900" lon="35.2739700">
<ele>345.809998</ele>
<time>2025-01-08T10:27:25.772Z</time>
</trkpt>
<trkpt lat="31.3776300" lon="35.2741300">
<ele>341.970001</ele>
<time>2025-01-08T10:27:25.772Z</time>
</trkpt>
<trkpt lat="31.3776400" lon="35.2743800">
<ele>340.609985</ele>
<time>2025-01-08T10:27:25.772Z</time>
</trkpt>
<trkpt lat="31.3775900" lon="35.2746200">
<ele>340.470001</ele>
<time>2025-01-08T10:27:25.772Z</time>
</trkpt>
<trkpt lat="31.3776100" lon="35.2750300">
<ele>339.809998</ele>
<time>2025-01-08T10:27:25.772Z</time>
</trkpt>
<trkpt lat="31.3776300" lon="35.2752100">
<ele>339.600006</ele>
<time>2025-01-08T10:27:25.772Z</time>
</trkpt>
<trkpt lat="31.3776300" lon="35.2753200">
<ele>339.889984</ele>
<time>2025-01-08T10:27:25.772Z</time>
</trkpt>
<trkpt lat="31.3778100" lon="35.2756600">
<ele>341.779999</ele>
<time>2025-01-08T10:27:25.772Z</time>
</trkpt>
<trkpt lat="31.3783000" lon="35.2760600">
<ele>340.139984</ele>
<time>2025-01-08T10:27:25.772Z</time>
</trkpt>
<trkpt lat="31.3783400" lon="35.2760900">
<ele>339.169983</ele>
<time>2025-01-08T10:27:25.772Z</time>
</trkpt>
<trkpt lat="31.3786200" lon="35.2762600">
<ele>335.429993</ele>
<time>2025-01-08T10:27:25.772Z</time>
</trkpt>
<trkpt lat="31.3787900" lon="35.2764300">
<ele>333.820007</ele>
<time>2025-01-08T10:27:25.772Z</time>
</trkpt>
<trkpt lat="31.3788900" lon="35.2765700">
<ele>333.000000</ele>
<time>2025-01-08T10:27:25.772Z</time>
</trkpt>
<trkpt lat="31.3791200" lon="35.2769800">
<ele>331.809998</ele>
<time>2025-01-08T10:27:25.772Z</time>
</trkpt>
<trkpt lat="31.3791800" lon="35.2771000">
<ele>330.549988</ele>
<time>2025-01-08T10:27:25.772Z</time>
</trkpt>
<trkpt lat="31.3793200" lon="35.2774400">
<ele>328.339996</ele>
<time>2025-01-08T10:27:25.772Z</time>
</trkpt>
<trkpt lat="31.3793400" lon="35.2774900">
<ele>327.760010</ele>
<time>2025-01-08T10:27:25.772Z</time>
</trkpt>
<trkpt lat="31.3793900" lon="35.2776100">
<ele>327.169983</ele>
<time>2025-01-08T10:27:25.772Z</time>
</trkpt>
<trkpt lat="31.3794300" lon="35.2777300">
<ele>326.380005</ele>
<time>2025-01-08T10:27:25.772Z</time>
</trkpt>
<trkpt lat="31.3796300" lon="35.2785700">
<ele>323.999969</ele>
<time>2025-01-08T10:27:25.772Z</time>
</trkpt>
<trkpt lat="31.3797600" lon="35.2789700">
<ele>328.969971</ele>
<time>2025-01-08T10:27:25.772Z</time>
</trkpt>
<trkpt lat="31.3797000" lon="35.2790800">
<ele>329.929993</ele>
<time>2025-01-08T10:27:25.772Z</time>
</trkpt>
<trkpt lat="31.3795400" lon="35.2792200">
<ele>330.129974</ele>
<time>2025-01-08T10:27:25.772Z</time>
</trkpt>
<trkpt lat="31.3793400" lon="35.2792800">
<ele>330.379974</ele>
<time>2025-01-08T10:27:25.772Z</time>
</trkpt>
<trkpt lat="31.3791100" lon="35.2793300">
<ele>331.839996</ele>
<time>2025-01-08T10:27:25.772Z</time>
</trkpt>
<trkpt lat="31.3789000" lon="35.2793700">
<ele>334.109985</ele>
<time>2025-01-08T10:27:25.772Z</time>
</trkpt>
<trkpt lat="31.3786000" lon="35.2793400">
<ele>339.720001</ele>
<time>2025-01-08T10:27:25.772Z</time>
</trkpt>
<trkpt lat="31.3784200" lon="35.2793400">
<ele>341.259979</ele>
<time>2025-01-08T10:27:25.772Z</time>
</trkpt>
<trkpt lat="31.3782100" lon="35.2793500">
<ele>341.120026</ele>
<time>2025-01-08T10:27:25.772Z</time>
</trkpt>
<trkpt lat="31.3779500" lon="35.2793700">
<ele>340.940002</ele>
<time>2025-01-08T10:27:25.772Z</time>
</trkpt>
<trkpt lat="31.3777600" lon="35.2795100">
<ele>341.059998</ele>
<time>2025-01-08T10:27:25.772Z</time>
</trkpt>
<trkpt lat="31.3775400" lon="35.2795700">
<ele>342.779999</ele>
<time>2025-01-08T10:27:25.772Z</time>
</trkpt>
<trkpt lat="31.3772700" lon="35.2796900">
<ele>345.660004</ele>
<time>2025-01-08T10:27:25.772Z</time>
</trkpt>
<trkpt lat="31.3769700" lon="35.2796700">
<ele>347.519989</ele>
<time>2025-01-08T10:27:25.772Z</time>
</trkpt>
<trkpt lat="31.3767200" lon="35.2797600">
<ele>347.670013</ele>
<time>2025-01-08T10:27:25.772Z</time>
</trkpt>
<trkpt lat="31.3765800" lon="35.2800600">
<ele>348.610016</ele>
<time>2025-01-08T10:27:25.772Z</time>
</trkpt>
<trkpt lat="31.3763900" lon="35.2802400">
<ele>351.850006</ele>
<time>2025-01-08T10:27:25.772Z</time>
</trkpt>
<trkpt lat="31.3763300" lon="35.2802600">
<ele>351.980011</ele>
<time>2025-01-08T10:27:25.772Z</time>
</trkpt>
<trkpt lat="31.3762500" lon="35.2802700">
<ele>352.009979</ele>
<time>2025-01-08T10:27:25.772Z</time>
</trkpt>
<trkpt lat="31.3761300" lon="35.2804100">
<ele>351.520020</ele>
<time>2025-01-08T10:27:25.772Z</time>
</trkpt>
<trkpt lat="31.3760800" lon="35.2807800">
<ele>349.739990</ele>
<time>2025-01-08T10:27:25.772Z</time>
</trkpt>
<trkpt lat="31.3758700" lon="35.2809100">
<ele>344.670013</ele>
<time>2025-01-08T10:27:25.772Z</time>
</trkpt>
<trkpt lat="31.3755900" lon="35.2809300">
<ele>343.300018</ele>
<time>2025-01-08T10:27:25.772Z</time>
</trkpt>
<trkpt lat="31.3754600" lon="35.2810400">
<ele>341.809998</ele>
<time>2025-01-08T10:27:25.772Z</time>
</trkpt>
<trkpt lat="31.3753600" lon="35.2811900">
<ele>339.399994</ele>
<time>2025-01-08T10:27:25.772Z</time>
</trkpt>
<trkpt lat="31.3753300" lon="35.2812400">
<ele>338.869995</ele>
<time>2025-01-08T10:27:25.772Z</time>
</trkpt>
<trkpt lat="31.3750700" lon="35.2814900">
<ele>339.059998</ele>
<time>2025-01-08T10:27:25.772Z</time>
</trkpt>
<trkpt lat="31.3749300" lon="35.2816300">
<ele>339.169983</ele>
<time>2025-01-08T10:27:25.772Z</time>
</trkpt>
<trkpt lat="31.3747500" lon="35.2818100">
<ele>338.640015</ele>
<time>2025-01-08T10:27:25.772Z</time>
</trkpt>
<trkpt lat="31.3745500" lon="35.2819900">
<ele>336.729980</ele>
<time>2025-01-08T10:27:25.772Z</time>
</trkpt>
<trkpt lat="31.3741600" lon="35.2822700">
<ele>334.239990</ele>
<time>2025-01-08T10:27:25.772Z</time>
</trkpt>
<trkpt lat="31.3737200" lon="35.2827100">
<ele>328.470001</ele>
<time>2025-01-08T10:27:25.772Z</time>
</trkpt>
<trkpt lat="31.3736100" lon="35.2828900">
<ele>326.990021</ele>
<time>2025-01-08T10:27:25.772Z</time>
</trkpt>
<trkpt lat="31.3735700" lon="35.2829500">
<ele>326.589996</ele>
<time>2025-01-08T10:27:25.772Z</time>
</trkpt>
<trkpt lat="31.3733600" lon="35.2832200">
<ele>326.970001</ele>
<time>2025-01-08T10:27:25.772Z</time>
</trkpt>
<trkpt lat="31.3729200" lon="35.2835300">
<ele>329.179993</ele>
<time>2025-01-08T10:27:25.772Z</time>
</trkpt>
<trkpt lat="31.3725000" lon="35.2836200">
<ele>327.220001</ele>
<time>2025-01-08T10:27:25.772Z</time>
</trkpt>
<trkpt lat="31.3723100" lon="35.2836900">
<ele>325.079987</ele>
<time>2025-01-08T10:27:25.772Z</time>
</trkpt>
<trkpt lat="31.3720100" lon="35.2839700">
<ele>323.899994</ele>
<time>2025-01-08T10:27:25.772Z</time>
</trkpt>
<trkpt lat="31.3716000" lon="35.2842700">
<ele>323.390015</ele>
<time>2025-01-08T10:27:25.772Z</time>
</trkpt>
<trkpt lat="31.3714400" lon="35.2844600">
<ele>325.380005</ele>
<time>2025-01-08T10:27:25.772Z</time>
</trkpt>
<trkpt lat="31.3712400" lon="35.2846100">
<ele>322.779999</ele>
<time>2025-01-08T10:27:25.772Z</time>
</trkpt>
<trkpt lat="31.3708900" lon="35.2847400">
<ele>319.559998</ele>
<time>2025-01-08T10:27:25.772Z</time>
</trkpt>
<trkpt lat="31.3707900" lon="35.2849400">
<ele>317.929993</ele>
<time>2025-01-08T10:27:25.772Z</time>
</trkpt>
<trkpt lat="31.3705300" lon="35.2851600">
<ele>318.699982</ele>
<time>2025-01-08T10:27:25.772Z</time>
</trkpt>
<trkpt lat="31.3703000" lon="35.2854400">
<ele>320.709991</ele>
<time>2025-01-08T10:27:25.772Z</time>
</trkpt>
<trkpt lat="31.3701800" lon="35.2856100">
<ele>320.779999</ele>
<time>2025-01-08T10:27:25.772Z</time>
</trkpt>
<trkpt lat="31.3701100" lon="35.2857300">
<ele>320.640015</ele>
<time>2025-01-08T10:27:25.772Z</time>
</trkpt>
<trkpt lat="31.3699600" lon="35.2859500">
<ele>318.430023</ele>
<time>2025-01-08T10:27:25.772Z</time>
</trkpt>
<trkpt lat="31.3699000" lon="35.2860200">
<ele>316.450012</ele>
<time>2025-01-08T10:27:25.772Z</time>
</trkpt>
<trkpt lat="31.3692000" lon="35.2869400">
<ele>309.559998</ele>
<time>2025-01-08T10:27:25.772Z</time>
</trkpt>
<trkpt lat="31.3691100" lon="35.2870900">
<ele>309.309998</ele>
<time>2025-01-08T10:27:25.772Z</time>
</trkpt>
<trkpt lat="31.3688100" lon="35.2872200">
<ele>308.290009</ele>
<time>2025-01-08T10:27:25.772Z</time>
</trkpt>
<trkpt lat="31.3684800" lon="35.2874000">
<ele>305.320007</ele>
<time>2025-01-08T10:27:25.772Z</time>
</trkpt>
<trkpt lat="31.3683600" lon="35.2874900">
<ele>303.330017</ele>
<time>2025-01-08T10:27:25.772Z</time>
</trkpt>
<trkpt lat="31.3680000" lon="35.2878400">
<ele>303.779999</ele>
<time>2025-01-08T10:27:25.772Z</time>
</trkpt>
<trkpt lat="31.3674900" lon="35.2883900">
<ele>303.800018</ele>
<time>2025-01-08T10:27:25.772Z</time>
</trkpt>
<trkpt lat="31.3673100" lon="35.2886500">
<ele>303.880005</ele>
<time>2025-01-08T10:27:25.772Z</time>
</trkpt>
<trkpt lat="31.3671400" lon="35.2889800">
<ele>307.390015</ele>
<time>2025-01-08T10:27:25.772Z</time>
</trkpt>
<trkpt lat="31.3670000" lon="35.2892000">
<ele>308.760010</ele>
<time>2025-01-08T10:27:25.772Z</time>
</trkpt>
<trkpt lat="31.3669100" lon="35.2895600">
<ele>311.859985</ele>
<time>2025-01-08T10:27:25.772Z</time>
</trkpt>
<trkpt lat="31.3668500" lon="35.2896700">
<ele>311.869995</ele>
<time>2025-01-08T10:27:25.772Z</time>
</trkpt>
<trkpt lat="31.3666500" lon="35.2898900">
<ele>312.650024</ele>
<time>2025-01-08T10:27:25.772Z</time>
</trkpt>
<trkpt lat="31.3665800" lon="35.2901800">
<ele>312.529999</ele>
<time>2025-01-08T10:27:25.772Z</time>
</trkpt>
<trkpt lat="31.3664900" lon="35.2904600">
<ele>311.600006</ele>
<time>2025-01-08T10:27:25.772Z</time>
</trkpt>
<trkpt lat="31.3662800" lon="35.2907000">
<ele>311.149994</ele>
<time>2025-01-08T10:27:25.772Z</time>
</trkpt>
<trkpt lat="31.3657900" lon="35.2910100">
<ele>307.250000</ele>
<time>2025-01-08T10:27:25.772Z</time>
</trkpt>
<trkpt lat="31.3657400" lon="35.2910500">
<ele>306.920013</ele>
<time>2025-01-08T10:27:25.772Z</time>
</trkpt>
<trkpt lat="31.3654300" lon="35.2913400">
<ele>303.699982</ele>
<time>2025-01-08T10:27:25.772Z</time>
</trkpt>
<trkpt lat="31.3650800" lon="35.2919200">
<ele>307.200012</ele>
<time>2025-01-08T10:27:25.772Z</time>
</trkpt>
<trkpt lat="31.3649100" lon="35.2921900">
<ele>307.149994</ele>
<time>2025-01-08T10:27:25.772Z</time>
</trkpt>
<trkpt lat="31.3648100" lon="35.2923800">
<ele>306.070007</ele>
<time>2025-01-08T10:27:25.772Z</time>
</trkpt>
<trkpt lat="31.3647700" lon="35.2924400">
<ele>305.949982</ele>
<time>2025-01-08T10:27:25.772Z</time>
</trkpt>
<trkpt lat="31.3644900" lon="35.2927000">
<ele>303.119995</ele>
<time>2025-01-08T10:27:25.772Z</time>
</trkpt>
<trkpt lat="31.3643200" lon="35.2928600">
<ele>303.600006</ele>
<time>2025-01-08T10:27:25.772Z</time>
</trkpt>
<trkpt lat="31.3642500" lon="35.2929600">
<ele>304.869995</ele>
<time>2025-01-08T10:27:25.772Z</time>
</trkpt>
<trkpt lat="31.3641600" lon="35.2930400">
<ele>306.940002</ele>
<time>2025-01-08T10:27:25.772Z</time>
</trkpt>
<trkpt lat="31.3640900" lon="35.2931100">
<ele>307.700012</ele>
<time>2025-01-08T10:27:25.772Z</time>
</trkpt>
<trkpt lat="31.3640500" lon="35.2932100">
<ele>309.139984</ele>
<time>2025-01-08T10:27:25.772Z</time>
</trkpt>
<trkpt lat="31.3640400" lon="35.2932500">
<ele>309.739990</ele>
<time>2025-01-08T10:27:25.772Z</time>
</trkpt>
<trkpt lat="31.3640400" lon="35.2933000">
<ele>310.440002</ele>
<time>2025-01-08T10:27:25.772Z</time>
</trkpt>
<trkpt lat="31.3640300" lon="35.2933800">
<ele>311.989990</ele>
<time>2025-01-08T10:27:25.772Z</time>
</trkpt>
<trkpt lat="31.3640200" lon="35.2934500">
<ele>313.599976</ele>
<time>2025-01-08T10:27:25.772Z</time>
</trkpt>
<trkpt lat="31.3640600" lon="35.2935500">
<ele>315.269989</ele>
<time>2025-01-08T10:27:25.772Z</time>
</trkpt>
<trkpt lat="31.3641000" lon="35.2935800">
<ele>315.350006</ele>
<time>2025-01-08T10:27:25.772Z</time>
</trkpt>
<trkpt lat="31.3640900" lon="35.2936500">
<ele>316.769989</ele>
<time>2025-01-08T10:27:25.772Z</time>
</trkpt>
<trkpt lat="31.3640900" lon="35.2936900">
<ele>317.450012</ele>
<time>2025-01-08T10:27:25.772Z</time>
</trkpt>
<trkpt lat="31.3640500" lon="35.2937300">
<ele>318.640015</ele>
<time>2025-01-08T10:27:25.772Z</time>
</trkpt>
<trkpt lat="31.3639600" lon="35.2937900">
<ele>320.720001</ele>
<time>2025-01-08T10:27:25.772Z</time>
</trkpt>
<trkpt lat="31.3638700" lon="35.2938200">
<ele>321.989990</ele>
<time>2025-01-08T10:27:25.772Z</time>
</trkpt>
<trkpt lat="31.3637300" lon="35.2939000">
<ele>323.079987</ele>
<time>2025-01-08T10:27:25.772Z</time>
</trkpt>
<trkpt lat="31.3636400" lon="35.2939000">
<ele>323.079987</ele>
<time>2025-01-08T10:27:25.772Z</time>
</trkpt>
<trkpt lat="31.3635100" lon="35.2939100">
<ele>322.840027</ele>
<time>2025-01-08T10:27:25.772Z</time>
</trkpt>
<trkpt lat="31.3634400" lon="35.2939300">
<ele>322.859985</ele>
<time>2025-01-08T10:27:25.772Z</time>
</trkpt>
<trkpt lat="31.3633500" lon="35.2939800">
<ele>323.329987</ele>
<time>2025-01-08T10:27:25.772Z</time>
</trkpt>
<trkpt lat="31.3632900" lon="35.2940100">
<ele>323.809998</ele>
<time>2025-01-08T10:27:25.772Z</time>
</trkpt>
<trkpt lat="31.3630400" lon="35.2941600">
<ele>326.880005</ele>
<time>2025-01-08T10:27:25.772Z</time>
</trkpt>
<trkpt lat="31.3627000" lon="35.2942400">
<ele>329.179993</ele>
<time>2025-01-08T10:27:25.772Z</time>
</trkpt>
<trkpt lat="31.3622600" lon="35.2942700">
<ele>334.440002</ele>
<time>2025-01-08T10:27:25.772Z</time>
</trkpt>
<trkpt lat="31.3618200" lon="35.2943400">
<ele>339.270020</ele>
<time>2025-01-08T10:27:25.772Z</time>
</trkpt>
<trkpt lat="31.3613600" lon="35.2945500">
<ele>340.760010</ele>
<time>2025-01-08T10:27:25.772Z</time>
</trkpt>
<trkpt lat="31.3613000" lon="35.2945900">
<ele>340.459991</ele>
<time>2025-01-08T10:27:25.772Z</time>
</trkpt>
<trkpt lat="31.3608800" lon="35.2947100">
<ele>336.570007</ele>
<time>2025-01-08T10:27:25.772Z</time>
</trkpt>
<trkpt lat="31.3604400" lon="35.2948000">
<ele>336.470001</ele>
<time>2025-01-08T10:27:25.772Z</time>
</trkpt>
<trkpt lat="31.3600000" lon="35.2950800">
<ele>337.579987</ele>
<time>2025-01-08T10:27:25.772Z</time>
</trkpt>
<trkpt lat="31.3596400" lon="35.2952900">
<ele>337.579987</ele>
<time>2025-01-08T10:27:25.772Z</time>
</trkpt>
<trkpt lat="31.3593600" lon="35.2952900">
<ele>338.680023</ele>
<time>2025-01-08T10:27:25.772Z</time>
</trkpt>
<trkpt lat="31.3590400" lon="35.2954100">
<ele>339.889984</ele>
<time>2025-01-08T10:27:25.772Z</time>
</trkpt>
<trkpt lat="31.3589700" lon="35.2954900">
<ele>340.139984</ele>
<time>2025-01-08T10:27:25.772Z</time>
</trkpt>
<trkpt lat="31.3589300" lon="35.2955800">
<ele>339.679993</ele>
<time>2025-01-08T10:27:25.772Z</time>
</trkpt>
<trkpt lat="31.3587600" lon="35.2960000">
<ele>336.480011</ele>
<time>2025-01-08T10:27:25.772Z</time>
</trkpt>
<trkpt lat="31.3585700" lon="35.2964700">
<ele>333.519989</ele>
<time>2025-01-08T10:27:25.772Z</time>
</trkpt>
<trkpt lat="31.3584300" lon="35.2966400">
<ele>331.199982</ele>
<time>2025-01-08T10:27:25.772Z</time>
</trkpt>
<trkpt lat="31.3583100" lon="35.2967800">
<ele>330.460022</ele>
<time>2025-01-08T10:27:25.772Z</time>
</trkpt>
<trkpt lat="31.3580900" lon="35.2969300">
<ele>329.130005</ele>
<time>2025-01-08T10:27:25.772Z</time>
</trkpt>
<trkpt lat="31.3578100" lon="35.2971100">
<ele>328.610016</ele>
<time>2025-01-08T10:27:25.772Z</time>
</trkpt>
<trkpt lat="31.3577300" lon="35.2973900">
<ele>328.409973</ele>
<time>2025-01-08T10:27:25.772Z</time>
</trkpt>
<trkpt lat="31.3577700" lon="35.2977400">
<ele>326.380005</ele>
<time>2025-01-08T10:27:25.772Z</time>
</trkpt>
<trkpt lat="31.3578200" lon="35.2979700">
<ele>324.290009</ele>
<time>2025-01-08T10:27:25.772Z</time>
</trkpt>
<trkpt lat="31.3578200" lon="35.2982800">
<ele>322.649994</ele>
<time>2025-01-08T10:27:25.772Z</time>
</trkpt>
<trkpt lat="31.3577400" lon="35.2985600">
<ele>320.940002</ele>
<time>2025-01-08T10:27:25.772Z</time>
</trkpt>
<trkpt lat="31.3577300" lon="35.2987100">
<ele>320.180023</ele>
<time>2025-01-08T10:27:25.772Z</time>
</trkpt>
<trkpt lat="31.3577600" lon="35.2988600">
<ele>319.859985</ele>
<time>2025-01-08T10:27:25.772Z</time>
</trkpt>
<trkpt lat="31.3579300" lon="35.2994400">
<ele>315.690002</ele>
<time>2025-01-08T10:27:25.772Z</time>
</trkpt>
<trkpt lat="31.3580000" lon="35.2996600">
<ele>318.260010</ele>
<time>2025-01-08T10:27:25.772Z</time>
</trkpt>
<trkpt lat="31.3580100" lon="35.3000500">
<ele>316.550018</ele>
<time>2025-01-08T10:27:25.772Z</time>
</trkpt>
<trkpt lat="31.3579900" lon="35.3002200">
<ele>313.880005</ele>
<time>2025-01-08T10:27:25.772Z</time>
</trkpt>
<trkpt lat="31.3579800" lon="35.3000200">
<ele>316.369995</ele>
<time>2025-01-08T10:27:25.772Z</time>
</trkpt>
<trkpt lat="31.3579700" lon="35.2997700">
<ele>317.860016</ele>
<time>2025-01-08T10:27:25.772Z</time>
</trkpt>
<trkpt lat="31.3579800" lon="35.2995500">
<ele>317.010010</ele>
<time>2025-01-08T10:27:25.772Z</time>
</trkpt>
<trkpt lat="31.3578700" lon="35.2992500">
<ele>317.100006</ele>
<time>2025-01-08T10:27:25.772Z</time>
</trkpt>
<trkpt lat="31.3577600" lon="35.2988300">
<ele>319.979980</ele>
<time>2025-01-08T10:27:25.772Z</time>
</trkpt>
<trkpt lat="31.3577900" lon="35.2983800">
<ele>321.970001</ele>
<time>2025-01-08T10:27:25.772Z</time>
</trkpt>
<trkpt lat="31.3578200" lon="35.2978900">
<ele>325.059998</ele>
<time>2025-01-08T10:27:25.772Z</time>
</trkpt>
<trkpt lat="31.3577600" lon="35.2975700">
<ele>327.660004</ele>
<time>2025-01-08T10:27:25.772Z</time>
</trkpt>
<trkpt lat="31.3577300" lon="35.2972800">
<ele>328.480011</ele>
<time>2025-01-08T10:27:25.772Z</time>
</trkpt>
<trkpt lat="31.3576300" lon="35.2970400">
<ele>330.949982</ele>
<time>2025-01-08T10:27:25.772Z</time>
</trkpt>
<trkpt lat="31.3575600" lon="35.2967700">
<ele>334.309998</ele>
<time>2025-01-08T10:27:25.772Z</time>
</trkpt>
<trkpt lat="31.3574100" lon="35.2965500">
<ele>334.339996</ele>
<time>2025-01-08T10:27:25.772Z</time>
</trkpt>
<trkpt lat="31.3572700" lon="35.2963800">
<ele>331.289978</ele>
<time>2025-01-08T10:27:25.772Z</time>
</trkpt>
<trkpt lat="31.3572100" lon="35.2963100">
<ele>330.739990</ele>
<time>2025-01-08T10:27:25.772Z</time>
</trkpt>
<trkpt lat="31.3571900" lon="35.2961600">
<ele>332.320007</ele>
<time>2025-01-08T10:27:25.772Z</time>
</trkpt>
<trkpt lat="31.3568500" lon="35.2962300">
<ele>331.170013</ele>
<time>2025-01-08T10:27:25.772Z</time>
</trkpt>
<trkpt lat="31.3559300" lon="35.2962700">
<ele>337.339996</ele>
<time>2025-01-08T10:27:25.772Z</time>
</trkpt>
<trkpt lat="31.3556500" lon="35.2957700">
<ele>330.000000</ele>
<time>2025-01-08T10:27:25.772Z</time>
</trkpt>
<trkpt lat="31.3555500" lon="35.2952000">
<ele>322.690002</ele>
<time>2025-01-08T10:27:25.772Z</time>
</trkpt>
<trkpt lat="31.3555100" lon="35.2947900">
<ele>321.380005</ele>
<time>2025-01-08T10:27:25.772Z</time>
</trkpt>
<trkpt lat="31.3555100" lon="35.2945800">
<ele>320.740021</ele>
<time>2025-01-08T10:27:25.772Z</time>
</trkpt>
<trkpt lat="31.3554800" lon="35.2944200">
<ele>320.380005</ele>
<time>2025-01-08T10:27:25.772Z</time>
</trkpt>
<trkpt lat="31.3553200" lon="35.2942300">
<ele>322.269989</ele>
<time>2025-01-08T10:27:25.772Z</time>
</trkpt>
<trkpt lat="31.3551500" lon="35.2941400">
<ele>324.660004</ele>
<time>2025-01-08T10:27:25.772Z</time>
</trkpt>
<trkpt lat="31.3549900" lon="35.2940800">
<ele>327.369995</ele>
<time>2025-01-08T10:27:25.772Z</time>
</trkpt>
<trkpt lat="31.3548900" lon="35.2938200">
<ele>332.330017</ele>
<time>2025-01-08T10:27:25.772Z</time>
</trkpt>
<trkpt lat="31.3548100" lon="35.2937200">
<ele>334.559998</ele>
<time>2025-01-08T10:27:25.772Z</time>
</trkpt>
<trkpt lat="31.3547500" lon="35.2936600">
<ele>336.070007</ele>
<time>2025-01-08T10:27:25.772Z</time>
</trkpt>
<trkpt lat="31.3545900" lon="35.2935200">
<ele>337.789978</ele>
<time>2025-01-08T10:27:25.772Z</time>
</trkpt>
<trkpt lat="31.3544500" lon="35.2932900">
<ele>339.940002</ele>
<time>2025-01-08T10:27:25.772Z</time>
</trkpt>
<trkpt lat="31.3543300" lon="35.2930000">
<ele>340.119995</ele>
<time>2025-01-08T10:27:25.772Z</time>
</trkpt>
<trkpt lat="31.3543200" lon="35.2929800">
<ele>340.149994</ele>
<time>2025-01-08T10:27:25.772Z</time>
</trkpt>
<trkpt lat="31.3542200" lon="35.2928500">
<ele>340.139984</ele>
<time>2025-01-08T10:27:25.772Z</time>
</trkpt>
<trkpt lat="31.3542000" lon="35.2927900">
<ele>340.109985</ele>
<time>2025-01-08T10:27:25.772Z</time>
</trkpt>
<trkpt lat="31.3540000" lon="35.2924100">
<ele>338.649994</ele>
<time>2025-01-08T10:27:25.772Z</time>
</trkpt>
<trkpt lat="31.3538900" lon="35.2922400">
<ele>337.950012</ele>
<time>2025-01-08T10:27:25.772Z</time>
</trkpt>
<trkpt lat="31.3535500" lon="35.2919600">
<ele>340.990021</ele>
<time>2025-01-08T10:27:25.772Z</time>
</trkpt>
<trkpt lat="31.3534000" lon="35.2916800">
<ele>341.590027</ele>
<time>2025-01-08T10:27:25.772Z</time>
</trkpt>
<trkpt lat="31.3534200" lon="35.2915100">
<ele>341.369995</ele>
<time>2025-01-08T10:27:25.772Z</time>
</trkpt>
<trkpt lat="31.3534000" lon="35.2914300">
<ele>340.869995</ele>
<time>2025-01-08T10:27:25.772Z</time>
</trkpt>
<trkpt lat="31.3533200" lon="35.2913600">
<ele>339.620026</ele>
<time>2025-01-08T10:27:25.772Z</time>
</trkpt>
<trkpt lat="31.3532800" lon="35.2913200">
<ele>338.699982</ele>
<time>2025-01-08T10:27:25.772Z</time>
</trkpt>
<trkpt lat="31.3532300" lon="35.2912400">
<ele>337.630005</ele>
<time>2025-01-08T10:27:25.772Z</time>
</trkpt>
<trkpt lat="31.3530800" lon="35.2910300">
<ele>334.769989</ele>
<time>2025-01-08T10:27:25.772Z</time>
</trkpt>
<trkpt lat="31.3530300" lon="35.2909600">
<ele>333.660004</ele>
<time>2025-01-08T10:27:25.772Z</time>
</trkpt>
<trkpt lat="31.3529200" lon="35.2906900">
<ele>333.519989</ele>
<time>2025-01-08T10:27:25.772Z</time>
</trkpt>
<trkpt lat="31.3527400" lon="35.2904400">
<ele>334.870026</ele>
<time>2025-01-08T10:27:25.772Z</time>
</trkpt>
<trkpt lat="31.3524900" lon="35.2901300">
<ele>339.049988</ele>
<time>2025-01-08T10:27:25.772Z</time>
</trkpt>
<trkpt lat="31.3524800" lon="35.2901200">
<ele>339.110016</ele>
<time>2025-01-08T10:27:25.772Z</time>
</trkpt>
<trkpt lat="31.3523000" lon="35.2899400">
<ele>341.149994</ele>
<time>2025-01-08T10:27:25.772Z</time>
</trkpt>
<trkpt lat="31.3521500" lon="35.2898600">
<ele>343.049988</ele>
<time>2025-01-08T10:27:25.772Z</time>
</trkpt>
<trkpt lat="31.3520500" lon="35.2898500">
<ele>344.559998</ele>
<time>2025-01-08T10:27:25.772Z</time>
</trkpt>
<trkpt lat="31.3519700" lon="35.2898200">
<ele>345.929993</ele>
<time>2025-01-08T10:27:25.772Z</time>
</trkpt>
<trkpt lat="31.3518800" lon="35.2898200">
<ele>346.609985</ele>
<time>2025-01-08T10:27:25.772Z</time>
</trkpt>
<trkpt lat="31.3517600" lon="35.2898300">
<ele>347.150024</ele>
<time>2025-01-08T10:27:25.772Z</time>
</trkpt>
<trkpt lat="31.3516400" lon="35.2897900">
<ele>347.849976</ele>
<time>2025-01-08T10:27:25.772Z</time>
</trkpt>
<trkpt lat="31.3515000" lon="35.2897200">
<ele>348.610016</ele>
<time>2025-01-08T10:27:25.772Z</time>
</trkpt>
<trkpt lat="31.3513800" lon="35.2895900">
<ele>349.479980</ele>
<time>2025-01-08T10:27:25.772Z</time>
</trkpt>
<trkpt lat="31.3514600" lon="35.2892400">
<ele>353.010010</ele>
<time>2025-01-08T10:27:25.772Z</time>
</trkpt>
<trkpt lat="31.3514500" lon="35.2889500">
<ele>355.899994</ele>
<time>2025-01-08T10:27:25.772Z</time>
</trkpt>
<trkpt lat="31.3514700" lon="35.2885400">
<ele>357.750000</ele>
<time>2025-01-08T10:27:25.772Z</time>
</trkpt>
<trkpt lat="31.3514800" lon="35.2884600">
<ele>358.580017</ele>
<time>2025-01-08T10:27:25.772Z</time>
</trkpt>
<trkpt lat="31.3515700" lon="35.2881700">
<ele>361.440002</ele>
<time>2025-01-08T10:27:25.772Z</time>
</trkpt>
<trkpt lat="31.3516300" lon="35.2876200">
<ele>360.149994</ele>
<time>2025-01-08T10:27:25.772Z</time>
</trkpt>
<trkpt lat="31.3516900" lon="35.2874500">
<ele>359.980011</ele>
<time>2025-01-08T10:27:25.772Z</time>
</trkpt>
<trkpt lat="31.3517400" lon="35.2873200">
<ele>359.759979</ele>
<time>2025-01-08T10:27:25.772Z</time>
</trkpt>
<trkpt lat="31.3517800" lon="35.2868800">
<ele>355.710022</ele>
<time>2025-01-08T10:27:25.772Z</time>
</trkpt>
<trkpt lat="31.3518000" lon="35.2867800">
<ele>355.519989</ele>
<time>2025-01-08T10:27:25.772Z</time>
</trkpt>
<trkpt lat="31.3518200" lon="35.2866800">
<ele>355.279999</ele>
<time>2025-01-08T10:27:25.772Z</time>
</trkpt>
<trkpt lat="31.3518900" lon="35.2861600">
<ele>351.329987</ele>
<time>2025-01-08T10:27:25.772Z</time>
</trkpt>
<trkpt lat="31.3519600" lon="35.2858800">
<ele>348.059998</ele>
<time>2025-01-08T10:27:25.772Z</time>
</trkpt>
<trkpt lat="31.3519200" lon="35.2856700">
<ele>345.040009</ele>
<time>2025-01-08T10:27:25.772Z</time>
</trkpt>
<trkpt lat="31.3519600" lon="35.2855100">
<ele>343.850006</ele>
<time>2025-01-08T10:27:25.772Z</time>
</trkpt>
<trkpt lat="31.3520300" lon="35.2852600">
<ele>343.359985</ele>
<time>2025-01-08T10:27:25.772Z</time>
</trkpt>
<trkpt lat="31.3518500" lon="35.2850600">
<ele>343.300018</ele>
<time>2025-01-08T10:27:25.772Z</time>
</trkpt>
<trkpt lat="31.3516400" lon="35.2850100">
<ele>342.960022</ele>
<time>2025-01-08T10:27:25.772Z</time>
</trkpt>
<trkpt lat="31.3513900" lon="35.2847700">
<ele>343.829987</ele>
<time>2025-01-08T10:27:25.772Z</time>
</trkpt>
<trkpt lat="31.3513200" lon="35.2844400">
<ele>347.540009</ele>
<time>2025-01-08T10:27:25.772Z</time>
</trkpt>
<trkpt lat="31.3513200" lon="35.2843600">
<ele>348.329987</ele>
<time>2025-01-08T10:27:25.772Z</time>
</trkpt>
<trkpt lat="31.3513500" lon="35.2842800">
<ele>348.970001</ele>
<time>2025-01-08T10:27:25.772Z</time>
</trkpt>
<trkpt lat="31.3513400" lon="35.2842200">
<ele>349.630005</ele>
<time>2025-01-08T10:27:25.772Z</time>
</trkpt>
<trkpt lat="31.3513200" lon="35.2841800">
<ele>350.119995</ele>
<time>2025-01-08T10:27:25.772Z</time>
</trkpt>
<trkpt lat="31.3512900" lon="35.2841100">
<ele>350.690002</ele>
<time>2025-01-08T10:27:25.772Z</time>
</trkpt>
<trkpt lat="31.3512500" lon="35.2841200">
<ele>350.750000</ele>
<time>2025-01-08T10:27:25.772Z</time>
</trkpt>
<trkpt lat="31.3512000" lon="35.2841400">
<ele>350.809998</ele>
<time>2025-01-08T10:27:25.772Z</time>
</trkpt>
<trkpt lat="31.3511400" lon="35.2841600">
<ele>350.920013</ele>
<time>2025-01-08T10:27:25.772Z</time>
</trkpt>
<trkpt lat="31.3510500" lon="35.2841600">
<ele>351.229980</ele>
<time>2025-01-08T10:27:25.772Z</time>
</trkpt>
<trkpt lat="31.3509700" lon="35.2840800">
<ele>351.500000</ele>
<time>2025-01-08T10:27:25.772Z</time>
</trkpt>
<trkpt lat="31.3509100" lon="35.2840000">
<ele>351.459991</ele>
<time>2025-01-08T10:27:25.772Z</time>
</trkpt>
<trkpt lat="31.3508500" lon="35.2838800">
<ele>350.899994</ele>
<time>2025-01-08T10:27:25.772Z</time>
</trkpt>
<trkpt lat="31.3507900" lon="35.2837600">
<ele>348.369995</ele>
<time>2025-01-08T10:27:25.772Z</time>
</trkpt>
<trkpt lat="31.3507500" lon="35.2836800">
<ele>346.640015</ele>
<time>2025-01-08T10:27:25.772Z</time>
</trkpt>
<trkpt lat="31.3507000" lon="35.2834900">
<ele>342.199982</ele>
<time>2025-01-08T10:27:25.772Z</time>
</trkpt>
<trkpt lat="31.3506500" lon="35.2833300">
<ele>338.269989</ele>
<time>2025-01-08T10:27:25.772Z</time>
</trkpt>
<trkpt lat="31.3506300" lon="35.2832700">
<ele>336.940002</ele>
<time>2025-01-08T10:27:25.772Z</time>
</trkpt>
<trkpt lat="31.3506200" lon="35.2831300">
<ele>334.059967</ele>
<time>2025-01-08T10:27:25.772Z</time>
</trkpt>
<trkpt lat="31.3506400" lon="35.2830200">
<ele>331.889984</ele>
<time>2025-01-08T10:27:25.772Z</time>
</trkpt>
<trkpt lat="31.3506900" lon="35.2829600">
<ele>330.500000</ele>
<time>2025-01-08T10:27:25.772Z</time>
</trkpt>
<trkpt lat="31.3507400" lon="35.2829100">
<ele>329.059998</ele>
<time>2025-01-08T10:27:25.772Z</time>
</trkpt>
<trkpt lat="31.3508100" lon="35.2828100">
<ele>326.090027</ele>
<time>2025-01-08T10:27:25.772Z</time>
</trkpt>
<trkpt lat="31.3509100" lon="35.2827300">
<ele>324.470032</ele>
<time>2025-01-08T10:27:25.772Z</time>
</trkpt>
<trkpt lat="31.3510200" lon="35.2826500">
<ele>322.840027</ele>
<time>2025-01-08T10:27:25.772Z</time>
</trkpt>
<trkpt lat="31.3511200" lon="35.2825600">
<ele>320.390015</ele>
<time>2025-01-08T10:27:25.772Z</time>
</trkpt>
<trkpt lat="31.3511300" lon="35.2824400">
<ele>318.760010</ele>
<time>2025-01-08T10:27:25.772Z</time>
</trkpt>
<trkpt lat="31.3512100" lon="35.2822600">
<ele>318.029999</ele>
<time>2025-01-08T10:27:25.772Z</time>
</trkpt>
<trkpt lat="31.3513100" lon="35.2818900">
<ele>310.929993</ele>
<time>2025-01-08T10:27:25.772Z</time>
</trkpt>
<trkpt lat="31.3513500" lon="35.2818300">
<ele>310.209991</ele>
<time>2025-01-08T10:27:25.772Z</time>
</trkpt>
<trkpt lat="31.3514000" lon="35.2817800">
<ele>309.899994</ele>
<time>2025-01-08T10:27:25.772Z</time>
</trkpt>
<trkpt lat="31.3514400" lon="35.2817500">
<ele>310.250000</ele>
<time>2025-01-08T10:27:25.772Z</time>
</trkpt>
<trkpt lat="31.3514300" lon="35.2816900">
<ele>308.890015</ele>
<time>2025-01-08T10:27:25.772Z</time>
</trkpt>
<trkpt lat="31.3514300" lon="35.2816100">
<ele>305.790009</ele>
<time>2025-01-08T10:27:25.772Z</time>
</trkpt>
<trkpt lat="31.3514300" lon="35.2815500">
<ele>302.980011</ele>
<time>2025-01-08T10:27:25.772Z</time>
</trkpt>
<trkpt lat="31.3514700" lon="35.2814700">
<ele>299.670013</ele>
<time>2025-01-08T10:27:25.772Z</time>
</trkpt>
<trkpt lat="31.3514900" lon="35.2813900">
<ele>296.140015</ele>
<time>2025-01-08T10:27:25.772Z</time>
</trkpt>
<trkpt lat="31.3515100" lon="35.2813000">
<ele>293.470001</ele>
<time>2025-01-08T10:27:25.772Z</time>
</trkpt>
<trkpt lat="31.3515200" lon="35.2811600">
<ele>289.050018</ele>
<time>2025-01-08T10:27:25.772Z</time>
</trkpt>
<trkpt lat="31.3515600" lon="35.2810000">
<ele>284.630005</ele>
<time>2025-01-08T10:27:25.772Z</time>
</trkpt>
<trkpt lat="31.3515200" lon="35.2808800">
<ele>281.739990</ele>
<time>2025-01-08T10:27:25.772Z</time>
</trkpt>
<trkpt lat="31.3515600" lon="35.2807900">
<ele>278.899994</ele>
<time>2025-01-08T10:27:25.772Z</time>
</trkpt>
<trkpt lat="31.3515100" lon="35.2806800">
<ele>276.279999</ele>
<time>2025-01-08T10:27:25.772Z</time>
</trkpt>
<trkpt lat="31.3514400" lon="35.2805200">
<ele>272.779999</ele>
<time>2025-01-08T10:27:25.772Z</time>
</trkpt>
<trkpt lat="31.3513500" lon="35.2804000">
<ele>271.839996</ele>
<time>2025-01-08T10:27:25.772Z</time>
</trkpt>
<trkpt lat="31.3514300" lon="35.2802600">
<ele>268.270020</ele>
<time>2025-01-08T10:27:25.772Z</time>
</trkpt>
<trkpt lat="31.3514500" lon="35.2801000">
<ele>266.700012</ele>
<time>2025-01-08T10:27:25.772Z</time>
</trkpt>
<trkpt lat="31.3514900" lon="35.2798500">
<ele>264.440002</ele>
<time>2025-01-08T10:27:25.772Z</time>
</trkpt>
<trkpt lat="31.3515000" lon="35.2796800">
<ele>263.329987</ele>
<time>2025-01-08T10:27:25.772Z</time>
</trkpt>
<trkpt lat="31.3513500" lon="35.2794200">
<ele>264.160004</ele>
<time>2025-01-08T10:27:25.772Z</time>
</trkpt>
<trkpt lat="31.3512400" lon="35.2792100">
<ele>266.320007</ele>
<time>2025-01-08T10:27:25.772Z</time>
</trkpt>
<trkpt lat="31.3512400" lon="35.2791700">
<ele>266.160004</ele>
<time>2025-01-08T10:27:25.772Z</time>
</trkpt>
<trkpt lat="31.3512800" lon="35.2791400">
<ele>265.029999</ele>
<time>2025-01-08T10:27:25.772Z</time>
</trkpt>
<trkpt lat="31.3512600" lon="35.2789900">
<ele>262.339996</ele>
<time>2025-01-08T10:27:25.772Z</time>
</trkpt>
<trkpt lat="31.3512200" lon="35.2789900">
<ele>263.000000</ele>
<time>2025-01-08T10:27:25.772Z</time>
</trkpt>
<trkpt lat="31.3511700" lon="35.2789500">
<ele>263.089996</ele>
<time>2025-01-08T10:27:25.772Z</time>
</trkpt>
<trkpt lat="31.3511300" lon="35.2788400">
<ele>261.779999</ele>
<time>2025-01-08T10:27:25.772Z</time>
</trkpt>
<trkpt lat="31.3510700" lon="35.2786900">
<ele>259.609985</ele>
<time>2025-01-08T10:27:25.772Z</time>
</trkpt>
<trkpt lat="31.3509800" lon="35.2786000">
<ele>258.449982</ele>
<time>2025-01-08T10:27:25.772Z</time>
</trkpt>
<trkpt lat="31.3509800" lon="35.2784900">
<ele>258.269989</ele>
<time>2025-01-08T10:27:25.772Z</time>
</trkpt>
<trkpt lat="31.3510200" lon="35.2781500">
<ele>258.000000</ele>
<time>2025-01-08T10:27:25.772Z</time>
</trkpt>
<trkpt lat="31.3509600" lon="35.2779300">
<ele>257.260010</ele>
<time>2025-01-08T10:27:25.772Z</time>
</trkpt>
<trkpt lat="31.3509100" lon="35.2777700">
<ele>255.770004</ele>
<time>2025-01-08T10:27:25.772Z</time>
</trkpt>
<trkpt lat="31.3508900" lon="35.2777200">
<ele>255.199997</ele>
<time>2025-01-08T10:27:25.772Z</time>
</trkpt>
<trkpt lat="31.3508500" lon="35.2776800">
<ele>254.479996</ele>
<time>2025-01-08T10:27:25.772Z</time>
</trkpt>
<trkpt lat="31.3506500" lon="35.2774900">
<ele>250.199997</ele>
<time>2025-01-08T10:27:25.772Z</time>
</trkpt>
<trkpt lat="31.3505000" lon="35.2773500">
<ele>245.699997</ele>
<time>2025-01-08T10:27:25.772Z</time>
</trkpt>
<trkpt lat="31.3504800" lon="35.2772800">
<ele>244.220001</ele>
<time>2025-01-08T10:27:25.772Z</time>
</trkpt>
<trkpt lat="31.3504700" lon="35.2770200">
<ele>240.669998</ele>
<time>2025-01-08T10:27:25.772Z</time>
</trkpt>
<trkpt lat="31.3504900" lon="35.2770000">
<ele>240.700012</ele>
<time>2025-01-08T10:27:25.772Z</time>
</trkpt>
<trkpt lat="31.3505900" lon="35.2769400">
<ele>241.560013</ele>
<time>2025-01-08T10:27:25.772Z</time>
</trkpt>
<trkpt lat="31.3505400" lon="35.2765600">
<ele>234.779999</ele>
<time>2025-01-08T10:27:25.772Z</time>
</trkpt>
<trkpt lat="31.3504500" lon="35.2764000">
<ele>229.939987</ele>
<time>2025-01-08T10:27:25.772Z</time>
</trkpt>
<trkpt lat="31.3504100" lon="35.2762900">
<ele>227.090012</ele>
<time>2025-01-08T10:27:25.772Z</time>
</trkpt>
<trkpt lat="31.3504200" lon="35.2761400">
<ele>224.569992</ele>
<time>2025-01-08T10:27:25.772Z</time>
</trkpt>
<trkpt lat="31.3504000" lon="35.2759800">
<ele>222.339996</ele>
<time>2025-01-08T10:27:25.772Z</time>
</trkpt>
<trkpt lat="31.3504200" lon="35.2759100">
<ele>221.880005</ele>
<time>2025-01-08T10:27:25.772Z</time>
</trkpt>
<trkpt lat="31.3503900" lon="35.2758700">
<ele>221.010010</ele>
<time>2025-01-08T10:27:25.772Z</time>
</trkpt>
<trkpt lat="31.3503500" lon="35.2757900">
<ele>219.539993</ele>
<time>2025-01-08T10:27:25.772Z</time>
</trkpt>
<trkpt lat="31.3504200" lon="35.2757400">
<ele>220.220016</ele>
<time>2025-01-08T10:27:25.772Z</time>
</trkpt>
<trkpt lat="31.3504200" lon="35.2757000">
<ele>219.869995</ele>
<time>2025-01-08T10:27:25.772Z</time>
</trkpt>
<trkpt lat="31.3504300" lon="35.2756700">
<ele>219.810013</ele>
<time>2025-01-08T10:27:25.772Z</time>
</trkpt>
<trkpt lat="31.3504700" lon="35.2756500">
<ele>220.499985</ele>
<time>2025-01-08T10:27:25.772Z</time>
</trkpt>
<trkpt lat="31.3505000" lon="35.2755700">
<ele>220.679993</ele>
<time>2025-01-08T10:27:25.772Z</time>
</trkpt>
<trkpt lat="31.3505000" lon="35.2754800">
<ele>219.239990</ele>
<time>2025-01-08T10:27:25.772Z</time>
</trkpt>
<trkpt lat="31.3504900" lon="35.2754600">
<ele>218.630005</ele>
<time>2025-01-08T10:27:25.772Z</time>
</trkpt>
<trkpt lat="31.3504500" lon="35.2754400">
<ele>217.260010</ele>
<time>2025-01-08T10:27:25.772Z</time>
</trkpt>
<trkpt lat="31.3502700" lon="35.2754600">
<ele>213.150009</ele>
<time>2025-01-08T10:27:25.772Z</time>
</trkpt>
<trkpt lat="31.3502100" lon="35.2755000">
<ele>212.830002</ele>
<time>2025-01-08T10:27:25.772Z</time>
</trkpt>
<trkpt lat="31.3501500" lon="35.2755600">
<ele>212.779999</ele>
<time>2025-01-08T10:27:25.772Z</time>
</trkpt>
<trkpt lat="31.3500100" lon="35.2755300">
<ele>209.809998</ele>
<time>2025-01-08T10:27:25.772Z</time>
</trkpt>
<trkpt lat="31.3499500" lon="35.2755100">
<ele>208.080002</ele>
<time>2025-01-08T10:27:25.772Z</time>
</trkpt>
<trkpt lat="31.3498300" lon="35.2755200">
<ele>205.199997</ele>
<time>2025-01-08T10:27:25.772Z</time>
</trkpt>
<trkpt lat="31.3497200" lon="35.2755000">
<ele>202.110001</ele>
<time>2025-01-08T10:27:25.772Z</time>
</trkpt>
<trkpt lat="31.3496100" lon="35.2755300">
<ele>198.009995</ele>
<time>2025-01-08T10:27:25.772Z</time>
</trkpt>
<trkpt lat="31.3495300" lon="35.2755700">
<ele>195.110001</ele>
<time>2025-01-08T10:27:25.772Z</time>
</trkpt>
<trkpt lat="31.3494000" lon="35.2755800">
<ele>192.240005</ele>
<time>2025-01-08T10:27:25.772Z</time>
</trkpt>
<trkpt lat="31.3493200" lon="35.2755700">
<ele>193.130005</ele>
<time>2025-01-08T10:27:25.772Z</time>
</trkpt>
<trkpt lat="31.3491800" lon="35.2755700">
<ele>195.119995</ele>
<time>2025-01-08T10:27:25.772Z</time>
</trkpt>
<trkpt lat="31.3491200" lon="35.2755700">
<ele>195.380005</ele>
<time>2025-01-08T10:27:25.772Z</time>
</trkpt>
<trkpt lat="31.3490200" lon="35.2755600">
<ele>195.159988</ele>
<time>2025-01-08T10:27:25.772Z</time>
</trkpt>
<trkpt lat="31.3488200" lon="35.2755300">
<ele>195.069992</ele>
<time>2025-01-08T10:27:25.772Z</time>
</trkpt>
<trkpt lat="31.3485900" lon="35.2755100">
<ele>194.709991</ele>
<time>2025-01-08T10:27:25.772Z</time>
</trkpt>
<trkpt lat="31.3482200" lon="35.2754500">
<ele>197.559998</ele>
<time>2025-01-08T10:27:25.772Z</time>
</trkpt>
<trkpt lat="31.3478500" lon="35.2753800">
<ele>193.420013</ele>
<time>2025-01-08T10:27:25.772Z</time>
</trkpt>
<trkpt lat="31.3475200" lon="35.2753300">
<ele>188.880005</ele>
<time>2025-01-08T10:27:25.772Z</time>
</trkpt>
<trkpt lat="31.3472900" lon="35.2753700">
<ele>189.000000</ele>
<time>2025-01-08T10:27:25.772Z</time>
</trkpt>
<trkpt lat="31.3470900" lon="35.2753700">
<ele>191.859985</ele>
<time>2025-01-08T10:27:25.772Z</time>
</trkpt>
<trkpt lat="31.3467600" lon="35.2752900">
<ele>203.059998</ele>
<time>2025-01-08T10:27:25.772Z</time>
</trkpt>
<trkpt lat="31.3463900" lon="35.2753300">
<ele>209.229996</ele>
<time>2025-01-08T10:27:25.772Z</time>
</trkpt>
<trkpt lat="31.3459700" lon="35.2754500">
<ele>207.180008</ele>
<time>2025-01-08T10:27:25.772Z</time>
</trkpt>
<trkpt lat="31.3456600" lon="35.2755300">
<ele>200.740005</ele>
<time>2025-01-08T10:27:25.772Z</time>
</trkpt>
<trkpt lat="31.3455700" lon="35.2755400">
<ele>198.639999</ele>
<time>2025-01-08T10:27:25.772Z</time>
</trkpt>
<trkpt lat="31.3454900" lon="35.2755700">
<ele>198.800003</ele>
<time>2025-01-08T10:27:25.772Z</time>
</trkpt>
<trkpt lat="31.3452900" lon="35.2757200">
<ele>198.940002</ele>
<time>2025-01-08T10:27:25.772Z</time>
</trkpt>
<trkpt lat="31.3452000" lon="35.2757100">
<ele>200.369995</ele>
<time>2025-01-08T10:27:25.772Z</time>
</trkpt>
<trkpt lat="31.3452100" lon="35.2756400">
<ele>201.910004</ele>
<time>2025-01-08T10:27:25.772Z</time>
</trkpt>
<trkpt lat="31.3452400" lon="35.2755100">
<ele>204.380005</ele>
<time>2025-01-08T10:27:25.772Z</time>
</trkpt>
<trkpt lat="31.3452300" lon="35.2754100">
<ele>207.480011</ele>
<time>2025-01-08T10:27:25.772Z</time>
</trkpt>
<trkpt lat="31.3452300" lon="35.2753300">
<ele>209.730011</ele>
<time>2025-01-08T10:27:25.772Z</time>
</trkpt>
<trkpt lat="31.3452200" lon="35.2752700">
<ele>211.639999</ele>
<time>2025-01-08T10:27:25.772Z</time>
</trkpt>
<trkpt lat="31.3452200" lon="35.2751300">
<ele>214.959991</ele>
<time>2025-01-08T10:27:25.772Z</time>
</trkpt>
<trkpt lat="31.3451800" lon="35.2750600">
<ele>217.399994</ele>
<time>2025-01-08T10:27:25.772Z</time>
</trkpt>
<trkpt lat="31.3450700" lon="35.2749800">
<ele>220.699997</ele>
<time>2025-01-08T10:27:25.772Z</time>
</trkpt>
<trkpt lat="31.3450300" lon="35.2749700">
<ele>221.379990</ele>
<time>2025-01-08T10:27:25.772Z</time>
</trkpt>
<trkpt lat="31.3448900" lon="35.2750000">
<ele>222.789993</ele>
<time>2025-01-08T10:27:25.772Z</time>
</trkpt>
<trkpt lat="31.3447000" lon="35.2750100">
<ele>224.050003</ele>
<time>2025-01-08T10:27:25.772Z</time>
</trkpt>
<trkpt lat="31.3446300" lon="35.2750400">
<ele>224.329987</ele>
<time>2025-01-08T10:27:25.772Z</time>
</trkpt>
<trkpt lat="31.3445400" lon="35.2751800">
<ele>225.279999</ele>
<time>2025-01-08T10:27:25.772Z</time>
</trkpt>
<trkpt lat="31.3444200" lon="35.2752200">
<ele>227.500000</ele>
<time>2025-01-08T10:27:25.772Z</time>
</trkpt>
<trkpt lat="31.3442200" lon="35.2753100">
<ele>235.039993</ele>
<time>2025-01-08T10:27:25.772Z</time>
</trkpt>
<trkpt lat="31.3441400" lon="35.2754900">
<ele>238.649994</ele>
<time>2025-01-08T10:27:25.772Z</time>
</trkpt>
<trkpt lat="31.3441200" lon="35.2756800">
<ele>238.940002</ele>
<time>2025-01-08T10:27:25.772Z</time>
</trkpt>
<trkpt lat="31.3440400" lon="35.2758500">
<ele>240.870010</ele>
<time>2025-01-08T10:27:25.772Z</time>
</trkpt>
<trkpt lat="31.3440000" lon="35.2759000">
<ele>240.800003</ele>
<time>2025-01-08T10:27:25.772Z</time>
</trkpt>
<trkpt lat="31.3439500" lon="35.2761200">
<ele>235.149994</ele>
<time>2025-01-08T10:27:25.772Z</time>
</trkpt>
<trkpt lat="31.3439000" lon="35.2761800">
<ele>235.600006</ele>
<time>2025-01-08T10:27:25.772Z</time>
</trkpt>
<trkpt lat="31.3437800" lon="35.2762500">
<ele>236.740005</ele>
<time>2025-01-08T10:27:25.772Z</time>
</trkpt>
<trkpt lat="31.3436600" lon="35.2762300">
<ele>240.819992</ele>
<time>2025-01-08T10:27:25.772Z</time>
</trkpt>
<trkpt lat="31.3434000" lon="35.2761300">
<ele>245.790009</ele>
<time>2025-01-08T10:27:25.772Z</time>
</trkpt>
<trkpt lat="31.3431600" lon="35.2760900">
<ele>249.399994</ele>
<time>2025-01-08T10:27:25.772Z</time>
</trkpt>
<trkpt lat="31.3428900" lon="35.2760700">
<ele>256.070007</ele>
<time>2025-01-08T10:27:25.772Z</time>
</trkpt>
<trkpt lat="31.3428100" lon="35.2760800">
<ele>257.829987</ele>
<time>2025-01-08T10:27:25.772Z</time>
</trkpt>
<trkpt lat="31.3426900" lon="35.2761400">
<ele>255.970001</ele>
<time>2025-01-08T10:27:25.772Z</time>
</trkpt>
<trkpt lat="31.3426400" lon="35.2762000">
<ele>252.850006</ele>
<time>2025-01-08T10:27:25.772Z</time>
</trkpt>
<trkpt lat="31.3424700" lon="35.2763100">
<ele>250.959991</ele>
<time>2025-01-08T10:27:25.772Z</time>
</trkpt>
<trkpt lat="31.3422000" lon="35.2763100">
<ele>254.559998</ele>
<time>2025-01-08T10:27:25.772Z</time>
</trkpt>
<trkpt lat="31.3421100" lon="35.2762500">
<ele>257.010010</ele>
<time>2025-01-08T10:27:25.772Z</time>
</trkpt>
<trkpt lat="31.3420600" lon="35.2762200">
<ele>258.010010</ele>
<time>2025-01-08T10:27:25.772Z</time>
</trkpt>
<trkpt lat="31.3418200" lon="35.2762300">
<ele>258.970001</ele>
<time>2025-01-08T10:27:25.772Z</time>
</trkpt>
<trkpt lat="31.3417900" lon="35.2763000">
<ele>258.140015</ele>
<time>2025-01-08T10:27:25.772Z</time>
</trkpt>
<trkpt lat="31.3417900" lon="35.2765400">
<ele>253.800003</ele>
<time>2025-01-08T10:27:25.772Z</time>
</trkpt>
<trkpt lat="31.3415400" lon="35.2766900">
<ele>253.050003</ele>
<time>2025-01-08T10:27:25.772Z</time>
</trkpt>
<trkpt lat="31.3414300" lon="35.2767400">
<ele>253.589996</ele>
<time>2025-01-08T10:27:25.772Z</time>
</trkpt>
<trkpt lat="31.3414000" lon="35.2767300">
<ele>254.419998</ele>
<time>2025-01-08T10:27:25.772Z</time>
</trkpt>
<trkpt lat="31.3412400" lon="35.2767600">
<ele>254.700012</ele>
<time>2025-01-08T10:27:25.772Z</time>
</trkpt>
<trkpt lat="31.3411400" lon="35.2768600">
<ele>253.339996</ele>
<time>2025-01-08T10:27:25.772Z</time>
</trkpt>
<trkpt lat="31.3409800" lon="35.2767500">
<ele>254.930008</ele>
<time>2025-01-08T10:27:25.772Z</time>
</trkpt>
<trkpt lat="31.3409500" lon="35.2765600">
<ele>254.879990</ele>
<time>2025-01-08T10:27:25.772Z</time>
</trkpt>
<trkpt lat="31.3408800" lon="35.2762900">
<ele>253.679993</ele>
<time>2025-01-08T10:27:25.772Z</time>
</trkpt>
<trkpt lat="31.3406000" lon="35.2759500">
<ele>252.660004</ele>
<time>2025-01-08T10:27:25.772Z</time>
</trkpt>
<trkpt lat="31.3404600" lon="35.2758400">
<ele>249.860001</ele>
<time>2025-01-08T10:27:25.772Z</time>
</trkpt>
<trkpt lat="31.3401500" lon="35.2756000">
<ele>242.070007</ele>
<time>2025-01-08T10:27:25.772Z</time>
</trkpt>
<trkpt lat="31.3400700" lon="35.2754000">
<ele>240.440002</ele>
<time>2025-01-08T10:27:25.772Z</time>
</trkpt>
<trkpt lat="31.3399500" lon="35.2749400">
<ele>238.320007</ele>
<time>2025-01-08T10:27:25.772Z</time>
</trkpt>
<trkpt lat="31.3397600" lon="35.2746600">
<ele>239.639999</ele>
<time>2025-01-08T10:27:25.772Z</time>
</trkpt>
<trkpt lat="31.3395800" lon="35.2746300">
<ele>233.520004</ele>
<time>2025-01-08T10:27:25.772Z</time>
</trkpt>
<trkpt lat="31.3395000" lon="35.2746500">
<ele>229.809998</ele>
<time>2025-01-08T10:27:25.772Z</time>
</trkpt>
<trkpt lat="31.3394100" lon="35.2746900">
<ele>225.400009</ele>
<time>2025-01-08T10:27:25.772Z</time>
</trkpt>
<trkpt lat="31.3392100" lon="35.2747600">
<ele>215.919998</ele>
<time>2025-01-08T10:27:25.772Z</time>
</trkpt>
<trkpt lat="31.3391200" lon="35.2747800">
<ele>213.490005</ele>
<time>2025-01-08T10:27:25.772Z</time>
</trkpt>
<trkpt lat="31.3388300" lon="35.2749100">
<ele>211.639999</ele>
<time>2025-01-08T10:27:25.772Z</time>
</trkpt>
<trkpt lat="31.3387900" lon="35.2749300">
<ele>212.320007</ele>
<time>2025-01-08T10:27:25.772Z</time>
</trkpt>
<trkpt lat="31.3385000" lon="35.2749900">
<ele>216.889999</ele>
<time>2025-01-08T10:27:25.772Z</time>
</trkpt>
<trkpt lat="31.3384700" lon="35.2749600">
<ele>217.379990</ele>
<time>2025-01-08T10:27:25.772Z</time>
</trkpt>
<trkpt lat="31.3381800" lon="35.2745200">
<ele>222.660004</ele>
<time>2025-01-08T10:27:25.772Z</time>
</trkpt>
<trkpt lat="31.3380700" lon="35.2745200">
<ele>221.760010</ele>
<time>2025-01-08T10:27:25.772Z</time>
</trkpt>
<trkpt lat="31.3380100" lon="35.2747800">
<ele>217.070007</ele>
<time>2025-01-08T10:27:25.772Z</time>
</trkpt>
<trkpt lat="31.3380300" lon="35.2748600">
<ele>216.020004</ele>
<time>2025-01-08T10:27:25.772Z</time>
</trkpt>
<trkpt lat="31.3380800" lon="35.2749500">
<ele>215.060013</ele>
<time>2025-01-08T10:27:25.772Z</time>
</trkpt>
<trkpt lat="31.3381700" lon="35.2752000">
<ele>212.050003</ele>
<time>2025-01-08T10:27:25.772Z</time>
</trkpt>
<trkpt lat="31.3382400" lon="35.2755300">
<ele>206.820007</ele>
<time>2025-01-08T10:27:25.772Z</time>
</trkpt>
<trkpt lat="31.3381000" lon="35.2757300">
<ele>205.119995</ele>
<time>2025-01-08T10:27:25.772Z</time>
</trkpt>
<trkpt lat="31.3381000" lon="35.2757300">
<ele>205.119995</ele>
<time>2025-01-08T10:27:25.772Z</time>
</trkpt>
<trkpt lat="31.3380700" lon="35.2757800">
<ele>205.020004</ele>
<time>2025-01-08T10:27:25.772Z</time>
</trkpt>
<trkpt lat="31.3378800" lon="35.2757500">
<ele>203.930008</ele>
<time>2025-01-08T10:27:25.772Z</time>
</trkpt>
<trkpt lat="31.3376800" lon="35.2757200">
<ele>204.610001</ele>
<time>2025-01-08T10:27:25.772Z</time>
</trkpt>
<trkpt lat="31.3375000" lon="35.2756700">
<ele>207.180008</ele>
<time>2025-01-08T10:27:25.772Z</time>
</trkpt>
<trkpt lat="31.3373800" lon="35.2755900">
<ele>208.290009</ele>
<time>2025-01-08T10:27:25.772Z</time>
</trkpt>
<trkpt lat="31.3370000" lon="35.2755300">
<ele>210.729996</ele>
<time>2025-01-08T10:27:25.772Z</time>
</trkpt>
<trkpt lat="31.3368100" lon="35.2755500">
<ele>210.569992</ele>
<time>2025-01-08T10:27:25.772Z</time>
</trkpt>
<trkpt lat="31.3367600" lon="35.2755700">
<ele>210.459991</ele>
<time>2025-01-08T10:27:25.772Z</time>
</trkpt>
<trkpt lat="31.3365600" lon="35.2755900">
<ele>211.380005</ele>
<time>2025-01-08T10:27:25.772Z</time>
</trkpt>
<trkpt lat="31.3363500" lon="35.2756200">
<ele>213.390015</ele>
<time>2025-01-08T10:27:25.772Z</time>
</trkpt>
<trkpt lat="31.3361400" lon="35.2756600">
<ele>215.350006</ele>
<time>2025-01-08T10:27:25.772Z</time>
</trkpt>
<trkpt lat="31.3359600" lon="35.2756900">
<ele>216.320007</ele>
<time>2025-01-08T10:27:25.772Z</time>
</trkpt>
<trkpt lat="31.3357900" lon="35.2757600">
<ele>217.630005</ele>
<time>2025-01-08T10:27:25.772Z</time>
</trkpt>
<trkpt lat="31.3357200" lon="35.2757800">
<ele>218.539993</ele>
<time>2025-01-08T10:27:25.772Z</time>
</trkpt>
<trkpt lat="31.3356200" lon="35.2757700">
<ele>220.000000</ele>
<time>2025-01-08T10:27:25.772Z</time>
</trkpt>
<trkpt lat="31.3354000" lon="35.2757400">
<ele>222.649994</ele>
<time>2025-01-08T10:27:25.772Z</time>
</trkpt>
<trkpt lat="31.3352300" lon="35.2757200">
<ele>224.070007</ele>
<time>2025-01-08T10:27:25.772Z</time>
</trkpt>
<trkpt lat="31.3351500" lon="35.2757200">
<ele>224.119995</ele>
<time>2025-01-08T10:27:25.772Z</time>
</trkpt>
<trkpt lat="31.3349400" lon="35.2756900">
<ele>225.630005</ele>
<time>2025-01-08T10:27:25.772Z</time>
</trkpt>
<trkpt lat="31.3347000" lon="35.2756600">
<ele>230.400009</ele>
<time>2025-01-08T10:27:25.772Z</time>
</trkpt>
<trkpt lat="31.3345000" lon="35.2756500">
<ele>235.310013</ele>
<time>2025-01-08T10:27:25.772Z</time>
</trkpt>
<trkpt lat="31.3342800" lon="35.2756900">
<ele>236.899994</ele>
<time>2025-01-08T10:27:25.772Z</time>
</trkpt>
<trkpt lat="31.3340900" lon="35.2758100">
<ele>238.190002</ele>
<time>2025-01-08T10:27:25.772Z</time>
</trkpt>
<trkpt lat="31.3339100" lon="35.2758900">
<ele>240.179993</ele>
<time>2025-01-08T10:27:25.772Z</time>
</trkpt>
<trkpt lat="31.3337200" lon="35.2758000">
<ele>243.740005</ele>
<time>2025-01-08T10:27:25.772Z</time>
</trkpt>
<trkpt lat="31.3337500" lon="35.2756100">
<ele>242.200012</ele>
<time>2025-01-08T10:27:25.772Z</time>
</trkpt>
<trkpt lat="31.3338300" lon="35.2753600">
<ele>241.510010</ele>
<time>2025-01-08T10:27:25.772Z</time>
</trkpt>
<trkpt lat="31.3338900" lon="35.2751100">
<ele>241.009995</ele>
<time>2025-01-08T10:27:25.772Z</time>
</trkpt>
<trkpt lat="31.3338800" lon="35.2749500">
<ele>241.589996</ele>
<time>2025-01-08T10:27:25.772Z</time>
</trkpt>
<trkpt lat="31.3338500" lon="35.2748800">
<ele>242.900009</ele>
<time>2025-01-08T10:27:25.772Z</time>
</trkpt>
<trkpt lat="31.3337300" lon="35.2746700">
<ele>248.380005</ele>
<time>2025-01-08T10:27:25.772Z</time>
</trkpt>
<trkpt lat="31.3335700" lon="35.2744700">
<ele>255.100006</ele>
<time>2025-01-08T10:27:25.772Z</time>
</trkpt>
<trkpt lat="31.3335100" lon="35.2743000">
<ele>258.459991</ele>
<time>2025-01-08T10:27:25.772Z</time>
</trkpt>
<trkpt lat="31.3335800" lon="35.2740800">
<ele>259.619995</ele>
<time>2025-01-08T10:27:25.772Z</time>
</trkpt>
<trkpt lat="31.3337900" lon="35.2740000">
<ele>262.660004</ele>
<time>2025-01-08T10:27:25.772Z</time>
</trkpt>
<trkpt lat="31.3340100" lon="35.2739700">
<ele>266.589996</ele>
<time>2025-01-08T10:27:25.772Z</time>
</trkpt>
<trkpt lat="31.3343000" lon="35.2740000">
<ele>270.300018</ele>
<time>2025-01-08T10:27:25.772Z</time>
</trkpt>
<trkpt lat="31.3344800" lon="35.2741000">
<ele>270.019989</ele>
<time>2025-01-08T10:27:25.772Z</time>
</trkpt>
<trkpt lat="31.3347100" lon="35.2741000">
<ele>270.679993</ele>
<time>2025-01-08T10:27:25.772Z</time>
</trkpt>
<trkpt lat="31.3347900" lon="35.2740000">
<ele>270.479980</ele>
<time>2025-01-08T10:27:25.772Z</time>
</trkpt>
<trkpt lat="31.3347400" lon="35.2737600">
<ele>272.929993</ele>
<time>2025-01-08T10:27:25.772Z</time>
</trkpt>
<trkpt lat="31.3346100" lon="35.2735900">
<ele>277.350006</ele>
<time>2025-01-08T10:27:25.772Z</time>
</trkpt>
<trkpt lat="31.3344700" lon="35.2734500">
<ele>281.899994</ele>
<time>2025-01-08T10:27:25.772Z</time>
</trkpt>
<trkpt lat="31.3342900" lon="35.2732900">
<ele>282.600006</ele>
<time>2025-01-08T10:27:25.772Z</time>
</trkpt>
<trkpt lat="31.3340800" lon="35.2732000">
<ele>279.830017</ele>
<time>2025-01-08T10:27:25.772Z</time>
</trkpt>
<trkpt lat="31.3338600" lon="35.2731400">
<ele>275.740021</ele>
<time>2025-01-08T10:27:25.772Z</time>
</trkpt>
<trkpt lat="31.3336900" lon="35.2730900">
<ele>274.839996</ele>
<time>2025-01-08T10:27:25.772Z</time>
</trkpt>
<trkpt lat="31.3334900" lon="35.2730400">
<ele>277.819977</ele>
<time>2025-01-08T10:27:25.772Z</time>
</trkpt>
<trkpt lat="31.3334500" lon="35.2730200">
<ele>278.920013</ele>
<time>2025-01-08T10:27:25.772Z</time>
</trkpt>
<trkpt lat="31.3333800" lon="35.2729800">
<ele>280.850006</ele>
<time>2025-01-08T10:27:25.772Z</time>
</trkpt>
<trkpt lat="31.3332400" lon="35.2728600">
<ele>285.660004</ele>
<time>2025-01-08T10:27:25.772Z</time>
</trkpt>
<trkpt lat="31.3331200" lon="35.2726800">
<ele>288.860016</ele>
<time>2025-01-08T10:27:25.772Z</time>
</trkpt>
<trkpt lat="31.3329900" lon="35.2725400">
<ele>290.550018</ele>
<time>2025-01-08T10:27:25.772Z</time>
</trkpt>
<trkpt lat="31.3329400" lon="35.2725200">
<ele>290.640015</ele>
<time>2025-01-08T10:27:25.772Z</time>
</trkpt>
<trkpt lat="31.3328400" lon="35.2724800">
<ele>290.739990</ele>
<time>2025-01-08T10:27:25.772Z</time>
</trkpt>
<trkpt lat="31.3326300" lon="35.2724700">
<ele>293.899994</ele>
<time>2025-01-08T10:27:25.772Z</time>
</trkpt>
<trkpt lat="31.3325800" lon="35.2724900">
<ele>295.139984</ele>
<time>2025-01-08T10:27:25.772Z</time>
</trkpt>
<trkpt lat="31.3325300" lon="35.2725000">
<ele>296.350006</ele>
<time>2025-01-08T10:27:25.772Z</time>
</trkpt>
<trkpt lat="31.3323100" lon="35.2725500">
<ele>301.700012</ele>
<time>2025-01-08T10:27:25.772Z</time>
</trkpt>
<trkpt lat="31.3321600" lon="35.2725900">
<ele>304.270020</ele>
<time>2025-01-08T10:27:25.772Z</time>
</trkpt>
<trkpt lat="31.3319800" lon="35.2727600">
<ele>305.920013</ele>
<time>2025-01-08T10:27:25.772Z</time>
</trkpt>
<trkpt lat="31.3319300" lon="35.2729900">
<ele>305.040009</ele>
<time>2025-01-08T10:27:25.772Z</time>
</trkpt>
<trkpt lat="31.3319000" lon="35.2732900">
<ele>302.500000</ele>
<time>2025-01-08T10:27:25.772Z</time>
</trkpt>
<trkpt lat="31.3319300" lon="35.2736400">
<ele>300.200012</ele>
<time>2025-01-08T10:27:25.772Z</time>
</trkpt>
<trkpt lat="31.3319400" lon="35.2739200">
<ele>300.039978</ele>
<time>2025-01-08T10:27:25.772Z</time>
</trkpt>
<trkpt lat="31.3319600" lon="35.2741300">
<ele>299.920013</ele>
<time>2025-01-08T10:27:25.772Z</time>
</trkpt>
<trkpt lat="31.3319900" lon="35.2743700">
<ele>297.480011</ele>
<time>2025-01-08T10:27:25.772Z</time>
</trkpt>
<trkpt lat="31.3319400" lon="35.2748600">
<ele>297.380005</ele>
<time>2025-01-08T10:27:25.772Z</time>
</trkpt>
<trkpt lat="31.3316800" lon="35.2751500">
<ele>288.679993</ele>
<time>2025-01-08T10:27:25.772Z</time>
</trkpt>
<trkpt lat="31.3315100" lon="35.2753100">
<ele>287.549988</ele>
<time>2025-01-08T10:27:25.772Z</time>
</trkpt>
<trkpt lat="31.3313400" lon="35.2754700">
<ele>285.709991</ele>
<time>2025-01-08T10:27:25.772Z</time>
</trkpt>
<trkpt lat="31.3312700" lon="35.2755300">
<ele>285.989990</ele>
<time>2025-01-08T10:27:25.772Z</time>
</trkpt>
<trkpt lat="31.3312600" lon="35.2755100">
<ele>286.169983</ele>
<time>2025-01-08T10:27:25.772Z</time>
</trkpt>
<trkpt lat="31.3310500" lon="35.2757200">
<ele>286.850006</ele>
<time>2025-01-08T10:27:25.772Z</time>
</trkpt>
<trkpt lat="31.3310200" lon="35.2757400">
<ele>286.989990</ele>
<time>2025-01-08T10:27:25.772Z</time>
</trkpt>
<trkpt lat="31.3310200" lon="35.2757400">
<ele>286.989990</ele>
<time>2025-01-08T10:27:25.772Z</time>
</trkpt>
<trkpt lat="31.3310500" lon="35.2757100">
<ele>286.880005</ele>
<time>2025-01-08T10:27:25.772Z</time>
</trkpt>
<trkpt lat="31.3309500" lon="35.2758000">
<ele>287.279999</ele>
<time>2025-01-08T10:27:25.772Z</time>
</trkpt>
<trkpt lat="31.3309300" lon="35.2758700">
<ele>287.339996</ele>
<time>2025-01-08T10:27:25.772Z</time>
</trkpt>
<trkpt lat="31.3309500" lon="35.2759700">
<ele>287.109985</ele>
<time>2025-01-08T10:27:25.772Z</time>
</trkpt>
<trkpt lat="31.3310300" lon="35.2762100">
<ele>285.299988</ele>
<time>2025-01-08T10:27:25.772Z</time>
</trkpt>
<trkpt lat="31.3311000" lon="35.2764100">
<ele>284.329987</ele>
<time>2025-01-08T10:27:25.772Z</time>
</trkpt>
<trkpt lat="31.3314200" lon="35.2771900">
<ele>282.330017</ele>
<time>2025-01-08T10:27:25.772Z</time>
</trkpt>
<trkpt lat="31.3314700" lon="35.2773500">
<ele>281.800018</ele>
<time>2025-01-08T10:27:25.772Z</time>
</trkpt>
<trkpt lat="31.3314900" lon="35.2775000">
<ele>281.089996</ele>
<time>2025-01-08T10:27:25.772Z</time>
</trkpt>
<trkpt lat="31.3314900" lon="35.2776100">
<ele>280.549988</ele>
<time>2025-01-08T10:27:25.772Z</time>
</trkpt>
<trkpt lat="31.3314600" lon="35.2777500">
<ele>279.639984</ele>
<time>2025-01-08T10:27:25.772Z</time>
</trkpt>
<trkpt lat="31.3313900" lon="35.2778400">
<ele>278.779999</ele>
<time>2025-01-08T10:27:25.772Z</time>
</trkpt>
<trkpt lat="31.3313200" lon="35.2779100">
<ele>279.270020</ele>
<time>2025-01-08T10:27:25.772Z</time>
</trkpt>
<trkpt lat="31.3311700" lon="35.2780600">
<ele>280.350006</ele>
<time>2025-01-08T10:27:25.772Z</time>
</trkpt>
<trkpt lat="31.3310700" lon="35.2781500">
<ele>281.299988</ele>
<time>2025-01-08T10:27:25.772Z</time>
</trkpt>
<trkpt lat="31.3310200" lon="35.2781700">
<ele>282.040009</ele>
<time>2025-01-08T10:27:25.772Z</time>
</trkpt>
<trkpt lat="31.3309300" lon="35.2782400">
<ele>283.380005</ele>
<time>2025-01-08T10:27:25.772Z</time>
</trkpt>
<trkpt lat="31.3308200" lon="35.2783000">
<ele>285.110016</ele>
<time>2025-01-08T10:27:25.772Z</time>
</trkpt>
<trkpt lat="31.3307100" lon="35.2783200">
<ele>285.929993</ele>
<time>2025-01-08T10:27:25.772Z</time>
</trkpt>
<trkpt lat="31.3306500" lon="35.2783100">
<ele>286.429993</ele>
<time>2025-01-08T10:27:25.772Z</time>
</trkpt>
<trkpt lat="31.3306100" lon="35.2783000">
<ele>286.799988</ele>
<time>2025-01-08T10:27:25.772Z</time>
</trkpt>
<trkpt lat="31.3305200" lon="35.2782500">
<ele>287.600006</ele>
<time>2025-01-08T10:27:25.772Z</time>
</trkpt>
<trkpt lat="31.3304500" lon="35.2781700">
<ele>288.179993</ele>
<time>2025-01-08T10:27:25.772Z</time>
</trkpt>
<trkpt lat="31.3303600" lon="35.2780700">
<ele>288.899994</ele>
<time>2025-01-08T10:27:25.772Z</time>
</trkpt>
<trkpt lat="31.3301900" lon="35.2779500">
<ele>290.720001</ele>
<time>2025-01-08T10:27:25.772Z</time>
</trkpt>
<trkpt lat="31.3299900" lon="35.2778600">
<ele>292.359985</ele>
<time>2025-01-08T10:27:25.772Z</time>
</trkpt>
<trkpt lat="31.3297100" lon="35.2777800">
<ele>299.220001</ele>
<time>2025-01-08T10:27:25.772Z</time>
</trkpt>
<trkpt lat="31.3294400" lon="35.2777700">
<ele>303.970001</ele>
<time>2025-01-08T10:27:25.772Z</time>
</trkpt>
<trkpt lat="31.3293500" lon="35.2777700">
<ele>303.979980</ele>
<time>2025-01-08T10:27:25.772Z</time>
</trkpt>
<trkpt lat="31.3292200" lon="35.2777300">
<ele>303.970001</ele>
<time>2025-01-08T10:27:25.772Z</time>
</trkpt>
<trkpt lat="31.3290200" lon="35.2774300">
<ele>302.959991</ele>
<time>2025-01-08T10:27:25.772Z</time>
</trkpt>
<trkpt lat="31.3289000" lon="35.2773500">
<ele>302.580017</ele>
<time>2025-01-08T10:27:25.772Z</time>
</trkpt>
<trkpt lat="31.3286900" lon="35.2773100">
<ele>301.519989</ele>
<time>2025-01-08T10:27:25.772Z</time>
</trkpt>
<trkpt lat="31.3284100" lon="35.2772700">
<ele>299.059998</ele>
<time>2025-01-08T10:27:25.772Z</time>
</trkpt>
<trkpt lat="31.3282600" lon="35.2772700">
<ele>297.700012</ele>
<time>2025-01-08T10:27:25.772Z</time>
</trkpt>
<trkpt lat="31.3281400" lon="35.2772400">
<ele>297.380005</ele>
<time>2025-01-08T10:27:25.772Z</time>
</trkpt>
<trkpt lat="31.3277500" lon="35.2771600">
<ele>299.500000</ele>
<time>2025-01-08T10:27:25.772Z</time>
</trkpt>
<trkpt lat="31.3276300" lon="35.2770900">
<ele>299.980011</ele>
<time>2025-01-08T10:27:25.772Z</time>
</trkpt>
<trkpt lat="31.3275300" lon="35.2771000">
<ele>299.989990</ele>
<time>2025-01-08T10:27:25.772Z</time>
</trkpt>
<trkpt lat="31.3273200" lon="35.2771200">
<ele>298.059998</ele>
<time>2025-01-08T10:27:25.772Z</time>
</trkpt>
<trkpt lat="31.3272400" lon="35.2771400">
<ele>297.190002</ele>
<time>2025-01-08T10:27:25.772Z</time>
</trkpt>
<trkpt lat="31.3270600" lon="35.2772000">
<ele>296.910004</ele>
<time>2025-01-08T10:27:25.772Z</time>
</trkpt>
<trkpt lat="31.3267300" lon="35.2772100">
<ele>297.790009</ele>
<time>2025-01-08T10:27:25.772Z</time>
</trkpt>
<trkpt lat="31.3264900" lon="35.2771600">
<ele>298.220001</ele>
<time>2025-01-08T10:27:25.772Z</time>
</trkpt>
<trkpt lat="31.3261100" lon="35.2770400">
<ele>304.700012</ele>
<time>2025-01-08T10:27:25.772Z</time>
</trkpt>
<trkpt lat="31.3246400" lon="35.2763600">
<ele>318.850006</ele>
<time>2025-01-08T10:27:25.772Z</time>
</trkpt>
<trkpt lat="31.3244300" lon="35.2763000">
<ele>319.030029</ele>
<time>2025-01-08T10:27:25.772Z</time>
</trkpt>
<trkpt lat="31.3242700" lon="35.2762500">
<ele>319.940002</ele>
<time>2025-01-08T10:27:25.772Z</time>
</trkpt>
<trkpt lat="31.3242200" lon="35.2762300">
<ele>320.500000</ele>
<time>2025-01-08T10:27:25.772Z</time>
</trkpt>
<trkpt lat="31.3238700" lon="35.2761800">
<ele>318.420013</ele>
<time>2025-01-08T10:27:25.772Z</time>
</trkpt>
<trkpt lat="31.3237000" lon="35.2760900">
<ele>317.839996</ele>
<time>2025-01-08T10:27:25.772Z</time>
</trkpt>
<trkpt lat="31.3235400" lon="35.2760600">
<ele>317.040009</ele>
<time>2025-01-08T10:27:25.772Z</time>
</trkpt>
<trkpt lat="31.3233300" lon="35.2760300">
<ele>315.550018</ele>
<time>2025-01-08T10:27:25.772Z</time>
</trkpt>
<trkpt lat="31.3230700" lon="35.2759600">
<ele>315.309967</ele>
<time>2025-01-08T10:27:25.772Z</time>
</trkpt>
<trkpt lat="31.3229100" lon="35.2759000">
<ele>315.260010</ele>
<time>2025-01-08T10:27:25.772Z</time>
</trkpt>
<trkpt lat="31.3225100" lon="35.2757600">
<ele>313.559998</ele>
<time>2025-01-08T10:27:25.772Z</time>
</trkpt>
<trkpt lat="31.3221900" lon="35.2756100">
<ele>311.690002</ele>
<time>2025-01-08T10:27:25.772Z</time>
</trkpt>
<trkpt lat="31.3220000" lon="35.2755500">
<ele>311.250000</ele>
<time>2025-01-08T10:27:25.772Z</time>
</trkpt>
<trkpt lat="31.3216800" lon="35.2754800">
<ele>313.460022</ele>
<time>2025-01-08T10:27:25.772Z</time>
</trkpt>
<trkpt lat="31.3215400" lon="35.2754100">
<ele>313.790009</ele>
<time>2025-01-08T10:27:25.772Z</time>
</trkpt>
<trkpt lat="31.3215400" lon="35.2754100">
<ele>313.790009</ele>
<time>2025-01-08T10:27:25.772Z</time>
</trkpt>
<trkpt lat="31.3215000" lon="35.2753900">
<ele>313.720001</ele>
<time>2025-01-08T10:27:25.772Z</time>
</trkpt>
<trkpt lat="31.3211700" lon="35.2751200">
<ele>312.199982</ele>
<time>2025-01-08T10:27:25.772Z</time>
</trkpt>
<trkpt lat="31.3206200" lon="35.2749200">
<ele>312.020020</ele>
<time>2025-01-08T10:27:25.772Z</time>
</trkpt>
<trkpt lat="31.3203700" lon="35.2748800">
<ele>313.619995</ele>
<time>2025-01-08T10:27:25.772Z</time>
</trkpt>
<trkpt lat="31.3197000" lon="35.2746700">
<ele>313.739990</ele>
<time>2025-01-08T10:27:25.772Z</time>
</trkpt>
<trkpt lat="31.3190700" lon="35.2745700">
<ele>308.579987</ele>
<time>2025-01-08T10:27:25.772Z</time>
</trkpt>
<trkpt lat="31.3177700" lon="35.2743000">
<ele>307.760010</ele>
<time>2025-01-08T10:27:25.772Z</time>
</trkpt>
<trkpt lat="31.3173600" lon="35.2741600">
<ele>311.919983</ele>
<time>2025-01-08T10:27:25.772Z</time>
</trkpt>
<trkpt lat="31.3167900" lon="35.2740100">
<ele>304.019989</ele>
<time>2025-01-08T10:27:25.772Z</time>
</trkpt>
<trkpt lat="31.3166400" lon="35.2739400">
<ele>301.809998</ele>
<time>2025-01-08T10:27:25.772Z</time>
</trkpt>
<trkpt lat="31.3165200" lon="35.2738900">
<ele>300.410004</ele>
<time>2025-01-08T10:27:25.772Z</time>
</trkpt>
<trkpt lat="31.3164300" lon="35.2738700">
<ele>299.570007</ele>
<time>2025-01-08T10:27:25.772Z</time>
</trkpt>
<trkpt lat="31.3162000" lon="35.2738900">
<ele>298.980011</ele>
<time>2025-01-08T10:27:25.772Z</time>
</trkpt>
<trkpt lat="31.3161100" lon="35.2738700">
<ele>299.130005</ele>
<time>2025-01-08T10:27:25.772Z</time>
</trkpt>
<trkpt lat="31.3149400" lon="35.2735800">
<ele>301.160004</ele>
<time>2025-01-08T10:27:25.772Z</time>
</trkpt>
<trkpt lat="31.3145600" lon="35.2734500">
<ele>304.160004</ele>
<time>2025-01-08T10:27:25.772Z</time>
</trkpt>
<trkpt lat="31.3138700" lon="35.2732800">
<ele>302.350006</ele>
<time>2025-01-08T10:27:25.772Z</time>
</trkpt>
<trkpt lat="31.3137000" lon="35.2732200">
<ele>300.630005</ele>
<time>2025-01-08T10:27:25.772Z</time>
</trkpt>
<trkpt lat="31.3135900" lon="35.2731900">
<ele>299.410004</ele>
<time>2025-01-08T10:27:25.772Z</time>
</trkpt>
<trkpt lat="31.3133800" lon="35.2731400">
<ele>298.940002</ele>
<time>2025-01-08T10:27:25.772Z</time>
</trkpt>
<trkpt lat="31.3129500" lon="35.2730600">
<ele>299.589996</ele>
<time>2025-01-08T10:27:25.772Z</time>
</trkpt>
<trkpt lat="31.3123900" lon="35.2729200">
<ele>297.179993</ele>
<time>2025-01-08T10:27:25.772Z</time>
</trkpt>
<trkpt lat="31.3122300" lon="35.2728600">
<ele>297.700012</ele>
<time>2025-01-08T10:27:25.772Z</time>
</trkpt>
<trkpt lat="31.3120000" lon="35.2727300">
<ele>302.970001</ele>
<time>2025-01-08T10:27:25.772Z</time>
</trkpt>
<trkpt lat="31.3118800" lon="35.2725700">
<ele>305.440002</ele>
<time>2025-01-08T10:27:25.772Z</time>
</trkpt>
<trkpt lat="31.3116700" lon="35.2723100">
<ele>307.950012</ele>
<time>2025-01-08T10:27:25.772Z</time>
</trkpt>
<trkpt lat="31.3115400" lon="35.2720200">
<ele>307.600006</ele>
<time>2025-01-08T10:27:25.772Z</time>
</trkpt>
<trkpt lat="31.3113900" lon="35.2716400">
<ele>307.890015</ele>
<time>2025-01-08T10:27:25.772Z</time>
</trkpt>
<trkpt lat="31.3111800" lon="35.2711900">
<ele>310.910004</ele>
<time>2025-01-08T10:27:25.772Z</time>
</trkpt>
<trkpt lat="31.3109200" lon="35.2705900">
<ele>321.170013</ele>
<time>2025-01-08T10:27:25.772Z</time>
</trkpt>
<trkpt lat="31.3106500" lon="35.2700600">
<ele>320.919983</ele>
<time>2025-01-08T10:27:25.772Z</time>
</trkpt>
<trkpt lat="31.3105700" lon="35.2699200">
<ele>320.720001</ele>
<time>2025-01-08T10:27:25.772Z</time>
</trkpt>
<trkpt lat="31.3104800" lon="35.2698400">
<ele>319.119995</ele>
<time>2025-01-08T10:27:25.772Z</time>
</trkpt>
<trkpt lat="31.3103700" lon="35.2697600">
<ele>318.090027</ele>
<time>2025-01-08T10:27:25.772Z</time>
</trkpt>
<trkpt lat="31.3101400" lon="35.2696500">
<ele>317.140015</ele>
<time>2025-01-08T10:27:25.772Z</time>
</trkpt>
<trkpt lat="31.3099400" lon="35.2696100">
<ele>315.369995</ele>
<time>2025-01-08T10:27:25.772Z</time>
</trkpt>
<trkpt lat="31.3098900" lon="35.2696000">
<ele>314.509979</ele>
<time>2025-01-08T10:27:25.772Z</time>
</trkpt>
<trkpt lat="31.3098200" lon="35.2696000">
<ele>313.279999</ele>
<time>2025-01-08T10:27:25.772Z</time>
</trkpt>
<trkpt lat="31.3096500" lon="35.2696200">
<ele>310.950012</ele>
<time>2025-01-08T10:27:25.772Z</time>
</trkpt>
<trkpt lat="31.3092700" lon="35.2697500">
<ele>308.959991</ele>
<time>2025-01-08T10:27:25.772Z</time>
</trkpt>
<trkpt lat="31.3091200" lon="35.2697400">
<ele>308.700012</ele>
<time>2025-01-08T10:27:25.772Z</time>
</trkpt>
<trkpt lat="31.3089900" lon="35.2697000">
<ele>309.269989</ele>
<time>2025-01-08T10:27:25.772Z</time>
</trkpt>
<trkpt lat="31.3084600" lon="35.2694300">
<ele>310.839996</ele>
<time>2025-01-08T10:27:25.772Z</time>
</trkpt>
<trkpt lat="31.3082500" lon="35.2693700">
<ele>309.920013</ele>
<time>2025-01-08T10:27:25.772Z</time>
</trkpt>
<trkpt lat="31.3080200" lon="35.2693600">
<ele>309.260010</ele>
<time>2025-01-08T10:27:25.772Z</time>
</trkpt>
<trkpt lat="31.3079300" lon="35.2693700">
<ele>308.170013</ele>
<time>2025-01-08T10:27:25.772Z</time>
</trkpt>
<trkpt lat="31.3077900" lon="35.2694000">
<ele>306.320007</ele>
<time>2025-01-08T10:27:25.772Z</time>
</trkpt>
<trkpt lat="31.3077300" lon="35.2694200">
<ele>304.899994</ele>
<time>2025-01-08T10:27:25.772Z</time>
</trkpt>
<trkpt lat="31.3076900" lon="35.2694200">
<ele>303.899994</ele>
<time>2025-01-08T10:27:25.772Z</time>
</trkpt>
<trkpt lat="31.3076500" lon="35.2694200">
<ele>302.910004</ele>
<time>2025-01-08T10:27:25.772Z</time>
</trkpt>
<trkpt lat="31.3076300" lon="35.2694200">
<ele>302.410004</ele>
<time>2025-01-08T10:27:25.772Z</time>
</trkpt>
<trkpt lat="31.3074900" lon="35.2694300">
<ele>299.149994</ele>
<time>2025-01-08T10:27:25.772Z</time>
</trkpt>
<trkpt lat="31.3073200" lon="35.2694200">
<ele>300.000000</ele>
<time>2025-01-08T10:27:25.772Z</time>
</trkpt>
<trkpt lat="31.3071800" lon="35.2694100">
<ele>301.209991</ele>
<time>2025-01-08T10:27:25.772Z</time>
</trkpt>
<trkpt lat="31.3068000" lon="35.2693400">
<ele>307.519989</ele>
<time>2025-01-08T10:27:25.772Z</time>
</trkpt>
<trkpt lat="31.3066700" lon="35.2692800">
<ele>309.549988</ele>
<time>2025-01-08T10:27:25.772Z</time>
</trkpt>
<trkpt lat="31.3066300" lon="35.2692300">
<ele>310.040009</ele>
<time>2025-01-08T10:27:25.772Z</time>
</trkpt>
<trkpt lat="31.3061900" lon="35.2687800">
<ele>315.970001</ele>
<time>2025-01-08T10:27:25.772Z</time>
</trkpt>
<trkpt lat="31.3062600" lon="35.2690100">
<ele>313.920013</ele>
<time>2025-01-08T10:27:25.772Z</time>
</trkpt>
<trkpt lat="31.3062900" lon="35.2691700">
<ele>313.059998</ele>
<time>2025-01-08T10:27:25.772Z</time>
</trkpt>
<trkpt lat="31.3063600" lon="35.2694600">
<ele>311.089996</ele>
<time>2025-01-08T10:27:25.772Z</time>
</trkpt>
<trkpt lat="31.3064700" lon="35.2699300">
<ele>305.980011</ele>
<time>2025-01-08T10:27:25.772Z</time>
</trkpt>
<trkpt lat="31.3064700" lon="35.2700600">
<ele>306.200012</ele>
<time>2025-01-08T10:27:25.772Z</time>
</trkpt>
<trkpt lat="31.3064500" lon="35.2704200">
<ele>306.880005</ele>
<time>2025-01-08T10:27:25.772Z</time>
</trkpt>
<trkpt lat="31.3064400" lon="35.2705500">
<ele>306.119995</ele>
<time>2025-01-08T10:27:25.772Z</time>
</trkpt>
<trkpt lat="31.3064300" lon="35.2706500">
<ele>305.630005</ele>
<time>2025-01-08T10:27:25.772Z</time>
</trkpt>
<trkpt lat="31.3064000" lon="35.2707100">
<ele>305.709991</ele>
<time>2025-01-08T10:27:25.772Z</time>
</trkpt>
<trkpt lat="31.3062800" lon="35.2707100">
<ele>305.669983</ele>
<time>2025-01-08T10:27:25.772Z</time>
</trkpt>
<trkpt lat="31.3061500" lon="35.2706800">
<ele>305.720001</ele>
<time>2025-01-08T10:27:25.772Z</time>
</trkpt>
<trkpt lat="31.3061200" lon="35.2706500">
<ele>305.989990</ele>
<time>2025-01-08T10:27:25.772Z</time>
</trkpt>
<trkpt lat="31.3060500" lon="35.2706500">
<ele>306.130005</ele>
<time>2025-01-08T10:27:25.772Z</time>
</trkpt>
<trkpt lat="31.3060000" lon="35.2706800">
<ele>306.009979</ele>
<time>2025-01-08T10:27:25.772Z</time>
</trkpt>
<trkpt lat="31.3059700" lon="35.2706800">
<ele>306.110016</ele>
<time>2025-01-08T10:27:25.772Z</time>
</trkpt>
<trkpt lat="31.3058900" lon="35.2706700">
<ele>306.419983</ele>
<time>2025-01-08T10:27:25.772Z</time>
</trkpt>
<trkpt lat="31.3057300" lon="35.2707000">
<ele>306.480011</ele>
<time>2025-01-08T10:27:25.772Z</time>
</trkpt>
<trkpt lat="31.3056900" lon="35.2706700">
<ele>306.589996</ele>
<time>2025-01-08T10:27:25.772Z</time>
</trkpt>
<trkpt lat="31.3055700" lon="35.2707000">
<ele>306.480011</ele>
<time>2025-01-08T10:27:25.772Z</time>
</trkpt>
<trkpt lat="31.3055700" lon="35.2706200">
<ele>306.769989</ele>
<time>2025-01-08T10:27:25.772Z</time>
</trkpt>
<trkpt lat="31.3055700" lon="35.2705000">
<ele>307.790009</ele>
<time>2025-01-08T10:27:25.772Z</time>
</trkpt>
<trkpt lat="31.3055800" lon="35.2703600">
<ele>309.750000</ele>
<time>2025-01-08T10:27:25.772Z</time>
</trkpt>
<trkpt lat="31.3055500" lon="35.2703000">
<ele>310.660004</ele>
<time>2025-01-08T10:27:25.772Z</time>
</trkpt>
<trkpt lat="31.3056400" lon="35.2702900">
<ele>310.529999</ele>
<time>2025-01-08T10:27:25.772Z</time>
</trkpt>
<trkpt lat="31.3056500" lon="35.2702200">
<ele>311.350006</ele>
<time>2025-01-08T10:27:25.772Z</time>
</trkpt>
<trkpt lat="31.3056600" lon="35.2701200">
<ele>312.470001</ele>
<time>2025-01-08T10:27:25.772Z</time>
</trkpt>
<trkpt lat="31.3056400" lon="35.2700600">
<ele>313.359985</ele>
<time>2025-01-08T10:27:25.772Z</time>
</trkpt>
<trkpt lat="31.3056400" lon="35.2700400">
<ele>313.599976</ele>
<time>2025-01-08T10:27:25.772Z</time>
</trkpt>
<trkpt lat="31.3056300" lon="35.2699600">
<ele>314.480011</ele>
<time>2025-01-08T10:27:25.772Z</time>
</trkpt>
<trkpt lat="31.3056300" lon="35.2698800">
<ele>315.059998</ele>
<time>2025-01-08T10:27:25.772Z</time>
</trkpt>
<trkpt lat="31.3056300" lon="35.2698300">
<ele>315.420013</ele>
<time>2025-01-08T10:27:25.772Z</time>
</trkpt>
<trkpt lat="31.3056200" lon="35.2697200">
<ele>316.320007</ele>
<time>2025-01-08T10:27:25.772Z</time>
</trkpt>
<trkpt lat="31.3056300" lon="35.2695900">
<ele>317.279968</ele>
<time>2025-01-08T10:27:25.772Z</time>
</trkpt>
<trkpt lat="31.3056400" lon="35.2695000">
<ele>317.929993</ele>
<time>2025-01-08T10:27:25.772Z</time>
</trkpt>
<trkpt lat="31.3056600" lon="35.2695000">
<ele>317.769989</ele>
<time>2025-01-08T10:27:25.772Z</time>
</trkpt>
<trkpt lat="31.3056700" lon="35.2694600">
<ele>318.040009</ele>
<time>2025-01-08T10:27:25.772Z</time>
</trkpt>
<trkpt lat="31.3057100" lon="35.2694200">
<ele>317.769989</ele>
<time>2025-01-08T10:27:25.772Z</time>
</trkpt>
<trkpt lat="31.3057800" lon="35.2693600">
<ele>317.209991</ele>
<time>2025-01-08T10:27:25.772Z</time>
</trkpt>
<trkpt lat="31.3058200" lon="35.2693200">
<ele>317.029999</ele>
<time>2025-01-08T10:27:25.772Z</time>
</trkpt>
<trkpt lat="31.3058500" lon="35.2692500">
<ele>316.859985</ele>
<time>2025-01-08T10:27:25.772Z</time>
</trkpt>
<trkpt lat="31.3058800" lon="35.2691200">
<ele>316.580017</ele>
<time>2025-01-08T10:27:25.772Z</time>
</trkpt>
<trkpt lat="31.3059000" lon="35.2690100">
<ele>316.360016</ele>
<time>2025-01-08T10:27:25.772Z</time>
</trkpt>
<trkpt lat="31.3059100" lon="35.2689500">
<ele>316.309998</ele>
<time>2025-01-08T10:27:25.772Z</time>
</trkpt>
<trkpt lat="31.3058500" lon="35.2689300">
<ele>316.179993</ele>
<time>2025-01-08T10:27:25.772Z</time>
</trkpt>
<trkpt lat="31.3057200" lon="35.2688800">
<ele>315.619995</ele>
<time>2025-01-08T10:27:25.772Z</time>
</trkpt>
<trkpt lat="31.3055900" lon="35.2688400">
<ele>315.300018</ele>
<time>2025-01-08T10:27:25.772Z</time>
</trkpt>
<trkpt lat="31.3055000" lon="35.2688100">
<ele>315.339996</ele>
<time>2025-01-08T10:27:25.772Z</time>
</trkpt>
<trkpt lat="31.3054600" lon="35.2688000">
<ele>315.430023</ele>
<time>2025-01-08T10:27:25.772Z</time>
</trkpt>
<trkpt lat="31.3053100" lon="35.2687800">
<ele>315.739990</ele>
<time>2025-01-08T10:27:25.772Z</time>
</trkpt>
<trkpt lat="31.3053200" lon="35.2687300">
<ele>316.059998</ele>
<time>2025-01-08T10:27:25.772Z</time>
</trkpt>
<trkpt lat="31.3053200" lon="35.2687300">
<ele>316.059998</ele>
<time>2025-01-08T10:27:25.772Z</time>
</trkpt>
<trkpt lat="31.3053100" lon="35.2687800">
<ele>315.739990</ele>
<time>2025-01-08T10:27:25.772Z</time>
</trkpt>
<trkpt lat="31.3052500" lon="35.2687700">
<ele>315.799988</ele>
<time>2025-01-08T10:27:25.772Z</time>
</trkpt>
<trkpt lat="31.3051600" lon="35.2687700">
<ele>315.609985</ele>
<time>2025-01-08T10:27:25.772Z</time>
</trkpt>
<trkpt lat="31.3051700" lon="35.2685100">
<ele>317.809998</ele>
<time>2025-01-08T10:27:25.772Z</time>
</trkpt>
<trkpt lat="31.3051700" lon="35.2683200">
<ele>319.230011</ele>
<time>2025-01-08T10:27:25.772Z</time>
</trkpt>
<trkpt lat="31.3051800" lon="35.2681500">
<ele>319.450012</ele>
<time>2025-01-08T10:27:25.772Z</time>
</trkpt>
<trkpt lat="31.3053500" lon="35.2683400">
<ele>319.410004</ele>
<time>2025-01-08T10:27:25.772Z</time>
</trkpt>
<trkpt lat="31.3054800" lon="35.2685200">
<ele>317.020020</ele>
<time>2025-01-08T10:27:25.772Z</time>
</trkpt>
<trkpt lat="31.3054000" lon="35.2686100">
<ele>316.570007</ele>
<time>2025-01-08T10:27:25.772Z</time>
</trkpt>
</trkseg>
</trk>
</gpx>
